Time,TemperatureF,DewpointF,PressureIn,WindDirection,WindDirectionDegrees,WindSpeedMPH,WindSpeedGustMPH,Humidity,HourlyPrecipIn,Conditions,Clouds,dailyrainin,SoftwareType,DateUTC
2013-01-02 00:00:00,17.3,13.0,29.91,SSE,164,0.0,7.0,83,0.00,,OVC011,0.00,VWS V14.01,2013-01-02 06:00:00,
2013-01-02 00:01:00,17.3,13.0,29.91,SSE,166,2.0,5.0,83,0.00,,OVC011,0.00,VWS V14.01,2013-01-02 06:01:00,
2013-01-02 00:02:00,17.3,13.0,29.91,SSE,167,2.0,5.0,83,0.00,,OVC011,0.00,VWS V14.01,2013-01-02 06:02:00,
2013-01-02 00:03:00,17.3,13.0,29.91,SSE,168,3.0,5.0,83,0.00,,OVC011,0.00,VWS V14.01,2013-01-02 06:03:00,
2013-01-02 00:04:00,17.2,12.9,29.91,SSE,167,0.0,5.0,83,0.00,,OVC011,0.00,VWS V14.01,2013-01-02 06:04:00,
2013-01-02 00:05:00,17.2,12.9,29.91,SSE,161,0.0,6.0,83,0.00,,OVC011,0.00,VWS V14.01,2013-01-02 06:05:00,
2013-01-02 00:06:00,17.2,12.9,29.91,South,188,0.0,6.0,83,0.00,,OVC011,0.00,VWS V14.01,2013-01-02 06:06:00,
2013-01-02 00:07:00,17.2,12.9,29.91,South,188,0.0,6.0,83,0.00,,OVC011,0.00,VWS V14.01,2013-01-02 06:07:00,
2013-01-02 00:08:00,17.2,12.9,29.91,South,177,4.0,6.0,83,0.00,,OVC011,0.00,VWS V14.01,2013-01-02 06:08:00,
2013-01-02 00:09:00,17.2,12.9,29.91,SE,143,1.0,6.0,83,0.00,,OVC011,0.00,VWS V14.01,2013-01-02 06:09:00,
2013-01-02 00:10:00,17.0,12.7,29.91,SE,142,2.0,6.0,83,0.00,,OVC011,0.00,VWS V14.01,2013-01-02 06:10:00,
2013-01-02 00:11:00,17.0,12.7,29.91,SE,143,3.0,6.0,83,0.00,,OVC011,0.00,VWS V14.01,2013-01-02 06:11:00,
2013-01-02 00:12:00,17.0,12.7,29.91,SE,143,1.0,6.0,83,0.00,,OVC011,0.00,VWS V14.01,2013-01-02 06:12:00,
2013-01-02 00:13:00,17.0,12.7,29.91,SE,143,2.0,6.0,83,0.00,,OVC011,0.00,VWS V14.01,2013-01-02 06:13:00,
2013-01-02 00:14:00,17.0,12.7,29.91,SE,144,3.0,6.0,83,0.00,,OVC011,0.00,VWS V14.01,2013-01-02 06:14:00,
2013-01-02 00:15:00,16.9,12.6,29.91,SW,233,3.0,6.0,83,0.00,,OVC011,0.00,VWS V14.01,2013-01-02 06:15:00,
2013-01-02 00:16:00,16.9,12.6,29.91,SW,233,0.0,6.0,83,0.00,,OVC011,0.00,VWS V14.01,2013-01-02 06:16:00,
2013-01-02 00:17:00,16.9,12.6,29.91,SW,232,1.0,6.0,83,0.00,,OVC011,0.00,VWS V14.01,2013-01-02 06:17:00,
2013-01-02 00:18:00,16.9,12.6,29.91,SW,232,0.0,6.0,83,0.00,,OVC011,0.00,VWS V14.01,2013-01-02 06:18:00,
2013-01-02 00:19:00,16.9,12.6,29.91,SW,235,0.0,6.0,83,0.00,,OVC011,0.00,VWS V14.01,2013-01-02 06:19:00,
2013-01-02 00:20:00,16.9,12.6,29.91,SW,226,6.0,6.0,83,0.00,,OVC011,0.00,VWS V14.01,2013-01-02 06:20:00,
2013-01-02 00:21:00,16.9,12.6,29.91,SSW,208,2.0,6.0,83,0.00,,OVC011,0.00,VWS V14.01,2013-01-02 06:21:00,
2013-01-02 00:22:00,16.9,12.6,29.91,SSW,208,3.0,6.0,83,0.00,,OVC011,0.00,VWS V14.01,2013-01-02 06:22:00,
2013-01-02 00:23:00,16.9,12.6,29.91,SSW,209,1.0,6.0,83,0.00,,OVC011,0.00,VWS V14.01,2013-01-02 06:23:00,
2013-01-02 00:24:00,16.9,12.6,29.91,SE,134,0.0,8.0,83,0.00,,OVC011,0.00,VWS V14.01,2013-01-02 06:24:00,
2013-01-02 00:25:00,16.7,12.4,29.91,SE,137,5.0,8.0,83,0.00,,OVC011,0.00,VWS V14.01,2013-01-02 06:25:00,
2013-01-02 00:26:00,16.7,12.4,29.91,SE,140,2.0,8.0,83,0.00,,OVC011,0.00,VWS V14.01,2013-01-02 06:26:00,
2013-01-02 00:27:00,16.7,12.4,29.91,SE,140,1.0,8.0,83,0.00,,OVC011,0.00,VWS V14.01,2013-01-02 06:27:00,
2013-01-02 00:28:00,16.7,12.4,29.91,SE,140,2.0,8.0,83,0.00,,OVC011,0.00,VWS V14.01,2013-01-02 06:28:00,
2013-01-02 00:29:00,16.7,12.4,29.91,SE,140,0.0,8.0,83,0.00,,OVC011,0.00,VWS V14.01,2013-01-02 06:29:00,
2013-01-02 00:30:00,16.7,12.4,29.90,SE,140,0.0,8.0,83,0.00,,OVC011,0.00,VWS V14.01,2013-01-02 06:30:00,
2013-01-02 00:31:00,16.7,12.4,29.90,SE,140,2.0,6.0,83,0.00,,OVC011,0.00,VWS V14.01,2013-01-02 06:31:00,
2013-01-02 00:32:00,16.7,12.4,29.90,SE,143,1.0,7.0,83,0.00,,OVC011,0.00,VWS V14.01,2013-01-02 06:32:00,
2013-01-02 00:33:00,16.7,12.4,29.90,SE,143,0.0,7.0,83,0.00,,OVC011,0.00,VWS V14.01,2013-01-02 06:33:00,
2013-01-02 00:34:00,16.7,12.4,29.90,SE,143,0.0,7.0,83,0.00,,OVC011,0.00,VWS V14.01,2013-01-02 06:34:00,
2013-01-02 00:35:00,16.7,12.4,29.90,SE,143,0.0,7.0,83,0.00,,OVC011,0.00,VWS V14.01,2013-01-02 06:35:00,
2013-01-02 00:36:00,16.7,12.4,29.90,SE,143,1.0,7.0,83,0.00,,OVC011,0.00,VWS V14.01,2013-01-02 06:36:00,
2013-01-02 00:37:00,16.7,12.4,29.90,SE,143,2.0,7.0,83,0.00,,OVC011,0.00,VWS V14.01,2013-01-02 06:37:00,
2013-01-02 00:38:00,16.7,12.4,29.90,SE,143,1.0,7.0,83,0.00,,OVC011,0.00,VWS V14.01,2013-01-02 06:38:00,
2013-01-02 00:39:00,16.7,12.4,29.90,SE,144,4.0,7.0,83,0.00,,OVC011,0.00,VWS V14.01,2013-01-02 06:39:00,
2013-01-02 00:40:00,16.7,12.4,29.90,SE,144,5.0,7.0,83,0.00,,OVC011,0.00,VWS V14.01,2013-01-02 06:40:00,
2013-01-02 00:41:00,16.7,12.4,29.90,SSE,163,5.0,7.0,83,0.00,,OVC011,0.00,VWS V14.01,2013-01-02 06:41:00,
2013-01-02 00:42:00,16.5,12.2,29.90,SSE,163,0.0,7.0,83,0.00,,OVC011,0.00,VWS V14.01,2013-01-02 06:42:00,
2013-01-02 00:43:00,16.5,12.2,29.90,SSE,157,4.0,7.0,83,0.00,,OVC011,0.00,VWS V14.01,2013-01-02 06:43:00,
2013-01-02 00:44:00,16.5,12.2,29.90,SSE,160,1.0,7.0,83,0.00,,OVC011,0.00,VWS V14.01,2013-01-02 06:44:00,
2013-01-02 00:45:00,16.5,12.2,29.89,SSE,158,0.0,7.0,83,0.00,,OVC011,0.00,VWS V14.01,2013-01-02 06:45:00,
2013-01-02 00:46:00,16.5,12.2,29.89,SSE,153,1.0,7.0,83,0.00,,OVC011,0.00,VWS V14.01,2013-01-02 06:46:00,
2013-01-02 00:47:00,16.5,12.2,29.89,SSE,153,1.0,7.0,83,0.00,,OVC011,0.00,VWS V14.01,2013-01-02 06:47:00,
2013-01-02 00:48:00,16.5,12.2,29.89,SSE,153,0.0,7.0,83,0.00,,OVC011,0.00,VWS V14.01,2013-01-02 06:48:00,
2013-01-02 00:49:00,16.5,12.2,29.89,SSE,154,1.0,7.0,83,0.00,,OVC011,0.00,VWS V14.01,2013-01-02 06:49:00,
2013-01-02 00:50:00,16.5,12.2,29.89,SSE,153,0.0,7.0,83,0.00,,OVC011,0.00,VWS V14.01,2013-01-02 06:50:00,
2013-01-02 00:51:00,16.5,12.2,29.89,SSE,153,0.0,7.0,83,0.00,,OVC011,0.00,VWS V14.01,2013-01-02 06:51:00,
2013-01-02 00:52:00,16.5,12.2,29.89,SSE,154,3.0,7.0,83,0.00,,OVC011,0.00,VWS V14.01,2013-01-02 06:52:00,
2013-01-02 00:53:00,16.5,12.2,29.89,SSE,154,2.0,7.0,83,0.00,,OVC011,0.00,VWS V14.01,2013-01-02 06:53:00,
2013-01-02 00:54:00,16.5,12.2,29.89,SSE,154,0.0,7.0,83,0.00,,OVC011,0.00,VWS V14.01,2013-01-02 06:54:00,
2013-01-02 00:55:00,16.5,12.2,29.89,SSE,154,0.0,7.0,83,0.00,,OVC011,0.00,VWS V14.01,2013-01-02 06:55:00,
2013-01-02 00:56:00,16.4,12.1,29.89,SSE,154,0.0,7.0,83,0.00,,OVC011,0.00,VWS V14.01,2013-01-02 06:56:00,
2013-01-02 00:57:00,16.4,12.1,29.89,SSE,154,0.0,7.0,83,0.00,,OVC011,0.00,VWS V14.01,2013-01-02 06:57:00,
2013-01-02 00:58:00,16.4,12.1,29.89,SE,129,0.0,7.0,83,0.00,,OVC011,0.00,VWS V14.01,2013-01-02 06:58:00,
2013-01-02 00:59:00,16.4,12.1,29.89,SE,130,2.0,7.0,83,0.00,,OVC011,0.00,VWS V14.01,2013-01-02 06:59:00,
2013-01-02 01:00:00,16.4,12.1,29.89,SE,130,0.0,7.0,83,0.00,,OVC011,0.00,VWS V14.01,2013-01-02 07:00:00,
2013-01-02 01:01:00,16.4,12.1,29.89,SE,132,3.0,6.0,83,0.00,,OVC011,0.00,VWS V14.01,2013-01-02 07:01:00,
2013-01-02 01:02:00,16.4,12.1,29.89,SE,132,0.0,6.0,83,0.00,,OVC011,0.00,VWS V14.01,2013-01-02 07:02:00,
2013-01-02 01:03:00,16.4,12.1,29.89,SE,132,0.0,6.0,83,0.00,,OVC011,0.00,VWS V14.01,2013-01-02 07:03:00,
2013-01-02 01:04:00,16.4,12.1,29.89,SE,132,0.0,6.0,83,0.00,,OVC011,0.00,VWS V14.01,2013-01-02 07:04:00,
2013-01-02 01:05:00,16.4,12.1,29.89,SE,132,0.0,6.0,83,0.00,,OVC011,0.00,VWS V14.01,2013-01-02 07:05:00,
2013-01-02 01:06:00,16.4,12.1,29.89,SE,132,2.0,6.0,83,0.00,,OVC011,0.00,VWS V14.01,2013-01-02 07:06:00,
2013-01-02 01:07:00,16.4,12.1,29.89,SE,132,0.0,6.0,83,0.00,,OVC011,0.00,VWS V14.01,2013-01-02 07:07:00,
2013-01-02 01:08:00,16.4,12.1,29.89,SE,132,2.0,6.0,83,0.00,,OVC011,0.00,VWS V14.01,2013-01-02 07:08:00,
2013-01-02 01:09:00,16.4,12.1,29.89,SE,132,3.0,6.0,83,0.00,,OVC011,0.00,VWS V14.01,2013-01-02 07:09:00,
2013-01-02 01:10:00,16.4,12.1,29.89,SE,133,5.0,6.0,83,0.00,,OVC011,0.00,VWS V14.01,2013-01-02 07:10:00,
2013-01-02 01:11:00,16.4,12.1,29.89,SE,134,1.0,6.0,83,0.00,,OVC011,0.00,VWS V14.01,2013-01-02 07:11:00,
2013-01-02 01:12:00,16.2,12.0,29.89,SE,134,2.0,6.0,83,0.00,,OVC011,0.00,VWS V14.01,2013-01-02 07:12:00,
2013-01-02 01:13:00,16.2,12.0,29.89,SE,134,0.0,6.0,83,0.00,,OVC011,0.00,VWS V14.01,2013-01-02 07:13:00,
2013-01-02 01:14:00,16.2,12.0,29.89,SE,134,0.0,6.0,83,0.00,,OVC011,0.00,VWS V14.01,2013-01-02 07:14:00,
2013-01-02 01:15:00,16.2,12.0,29.88,SE,134,2.0,6.0,83,0.00,,OVC011,0.00,VWS V14.01,2013-01-02 07:15:00,
2013-01-02 01:16:00,16.2,12.0,29.88,SE,134,2.0,6.0,83,0.00,,OVC011,0.00,VWS V14.01,2013-01-02 07:16:00,
2013-01-02 01:17:00,16.2,12.0,29.88,SE,134,3.0,6.0,83,0.00,,OVC011,0.00,VWS V14.01,2013-01-02 07:17:00,
2013-01-02 01:18:00,16.2,12.0,29.88,SE,134,0.0,6.0,83,0.00,,OVC011,0.00,VWS V14.01,2013-01-02 07:18:00,
2013-01-02 01:19:00,16.2,12.0,29.88,SE,134,2.0,6.0,83,0.00,,OVC011,0.00,VWS V14.01,2013-01-02 07:19:00,
2013-01-02 01:20:00,16.2,12.0,29.88,SE,134,1.0,6.0,83,0.00,,OVC011,0.00,VWS V14.01,2013-01-02 07:20:00,
2013-01-02 01:21:00,16.2,12.0,29.88,SE,134,3.0,6.0,83,0.00,,OVC011,0.00,VWS V14.01,2013-01-02 07:21:00,
2013-01-02 01:22:00,16.2,12.0,29.88,SE,134,0.0,6.0,83,0.00,,OVC011,0.00,VWS V14.01,2013-01-02 07:22:00,
2013-01-02 01:23:00,16.2,12.0,29.88,SE,134,2.0,6.0,83,0.00,,OVC011,0.00,VWS V14.01,2013-01-02 07:23:00,
2013-01-02 01:24:00,16.2,12.2,29.88,SE,133,5.0,6.0,84,0.00,,OVC011,0.00,VWS V14.01,2013-01-02 07:24:00,
2013-01-02 01:25:00,16.2,12.2,29.88,SE,133,4.0,6.0,84,0.00,,OVC011,0.00,VWS V14.01,2013-01-02 07:25:00,
2013-01-02 01:26:00,16.1,12.1,29.88,SE,133,6.0,7.0,84,0.00,,OVC011,0.00,VWS V14.01,2013-01-02 07:26:00,
2013-01-02 01:27:00,16.1,12.1,29.88,SE,133,3.0,7.0,84,0.00,,OVC011,0.00,VWS V14.01,2013-01-02 07:27:00,
2013-01-02 01:28:00,16.1,12.1,29.88,SE,137,3.0,7.0,84,0.00,,OVC011,0.00,VWS V14.01,2013-01-02 07:28:00,
2013-01-02 01:29:00,16.1,12.1,29.88,SE,139,6.0,7.0,84,0.00,,OVC011,0.00,VWS V14.01,2013-01-02 07:29:00,
2013-01-02 01:30:00,16.1,12.1,29.88,SE,137,6.0,7.0,84,0.00,,OVC011,0.00,VWS V14.01,2013-01-02 07:30:00,
2013-01-02 01:31:00,16.1,12.1,29.88,SE,129,1.0,7.0,84,0.00,,OVC011,0.00,VWS V14.01,2013-01-02 07:31:00,
2013-01-02 01:32:00,16.1,12.1,29.88,SE,139,0.0,7.0,84,0.00,,OVC011,0.00,VWS V14.01,2013-01-02 07:32:00,
2013-01-02 01:33:00,15.9,11.9,29.88,SE,139,0.0,7.0,84,0.00,,OVC011,0.00,VWS V14.01,2013-01-02 07:33:00,
2013-01-02 01:34:00,15.9,11.9,29.88,SE,139,0.0,7.0,84,0.00,,OVC011,0.00,VWS V14.01,2013-01-02 07:34:00,
2013-01-02 01:35:00,15.9,11.9,29.88,SE,139,0.0,7.0,84,0.00,,OVC011,0.00,VWS V14.01,2013-01-02 07:35:00,
2013-01-02 01:36:00,15.9,11.9,29.88,SE,137,1.0,7.0,84,0.00,,OVC011,0.00,VWS V14.01,2013-01-02 07:36:00,
2013-01-02 01:37:00,15.9,11.9,29.88,SE,134,6.0,8.0,84,0.00,,OVC011,0.00,VWS V14.01,2013-01-02 07:37:00,
2013-01-02 01:38:00,15.9,11.9,29.88,ESE,102,4.0,8.0,84,0.00,,OVC011,0.00,VWS V14.01,2013-01-02 07:38:00,
2013-01-02 01:39:00,15.9,11.9,29.88,ESE,103,3.0,8.0,84,0.00,,OVC011,0.00,VWS V14.01,2013-01-02 07:39:00,
2013-01-02 01:40:00,15.9,11.9,29.88,ESE,103,2.0,8.0,84,0.00,,OVC011,0.00,VWS V14.01,2013-01-02 07:40:00,
2013-01-02 01:41:00,15.7,11.7,29.88,ESE,103,0.0,8.0,84,0.00,,OVC011,0.00,VWS V14.01,2013-01-02 07:41:00,
2013-01-02 01:42:00,15.7,11.7,29.88,ESE,103,0.0,8.0,84,0.00,,OVC011,0.00,VWS V14.01,2013-01-02 07:42:00,
2013-01-02 01:43:00,15.7,11.7,29.88,ESE,103,0.0,8.0,84,0.00,,OVC011,0.00,VWS V14.01,2013-01-02 07:43:00,
2013-01-02 01:44:00,15.7,11.7,29.88,ESE,103,0.0,8.0,84,0.00,,OVC011,0.00,VWS V14.01,2013-01-02 07:44:00,
2013-01-02 01:45:00,15.7,11.7,29.88,ESE,103,1.0,8.0,84,0.00,,OVC011,0.00,VWS V14.01,2013-01-02 07:45:00,
2013-01-02 01:46:00,15.7,11.7,29.88,ESE,103,3.0,8.0,84,0.00,,OVC011,0.00,VWS V14.01,2013-01-02 07:46:00,
2013-01-02 01:47:00,15.7,11.7,29.88,ESE,108,0.0,8.0,84,0.00,,OVC011,0.00,VWS V14.01,2013-01-02 07:47:00,
2013-01-02 01:48:00,15.7,11.7,29.88,ESE,109,0.0,8.0,84,0.00,,OVC011,0.00,VWS V14.01,2013-01-02 07:48:00,
2013-01-02 01:49:00,15.7,11.7,29.88,ESE,109,1.0,8.0,84,0.00,,OVC011,0.00,VWS V14.01,2013-01-02 07:49:00,
2013-01-02 01:50:00,15.7,11.7,29.88,ESE,110,6.0,8.0,84,0.00,,OVC011,0.00,VWS V14.01,2013-01-02 07:50:00,
2013-01-02 01:51:00,15.7,11.7,29.88,ESE,123,1.0,8.0,84,0.00,,OVC011,0.00,VWS V14.01,2013-01-02 07:51:00,
2013-01-02 01:52:00,15.7,11.7,29.88,ESE,123,2.0,8.0,84,0.00,,OVC011,0.00,VWS V14.01,2013-01-02 07:52:00,
2013-01-02 01:53:00,15.7,11.7,29.88,ESE,123,0.0,8.0,84,0.00,,OVC011,0.00,VWS V14.01,2013-01-02 07:53:00,
2013-01-02 01:54:00,15.7,11.7,29.88,SE,134,5.0,8.0,84,0.00,,OVC011,0.00,VWS V14.01,2013-01-02 07:54:00,
2013-01-02 01:55:00,15.6,11.9,29.88,SE,136,0.0,8.0,85,0.00,,OVC011,0.00,VWS V14.01,2013-01-02 07:55:00,
2013-01-02 01:56:00,15.6,11.9,29.88,SE,136,0.0,8.0,85,0.00,,OVC011,0.00,VWS V14.01,2013-01-02 07:56:00,
2013-01-02 01:57:00,15.6,11.9,29.88,SE,136,0.0,8.0,85,0.00,,OVC011,0.00,VWS V14.01,2013-01-02 07:57:00,
2013-01-02 01:58:00,15.6,11.9,29.88,SE,140,3.0,8.0,85,0.00,,OVC011,0.00,VWS V14.01,2013-01-02 07:58:00,
2013-01-02 01:59:00,15.6,11.9,29.88,SSW,192,0.0,8.0,85,0.00,,OVC011,0.00,VWS V14.01,2013-01-02 07:59:00,
2013-01-02 02:00:00,15.6,11.9,29.90,SSW,192,0.0,8.0,85,0.00,,OVC011,0.00,VWS V14.01,2013-01-02 08:00:00,
2013-01-02 02:01:00,15.6,11.9,29.90,SSW,192,0.0,2.0,85,0.00,,OVC011,0.00,VWS V14.01,2013-01-02 08:01:00,
2013-01-02 02:02:00,15.6,11.9,29.90,SSW,192,0.0,2.0,85,0.00,,OVC011,0.00,VWS V14.01,2013-01-02 08:02:00,
2013-01-02 02:03:00,15.6,11.9,29.90,South,184,0.0,5.0,85,0.00,,OVC011,0.00,VWS V14.01,2013-01-02 08:03:00,
2013-01-02 02:04:00,15.6,11.9,29.90,South,184,0.0,5.0,85,0.00,,OVC011,0.00,VWS V14.01,2013-01-02 08:04:00,
2013-01-02 02:05:00,15.6,11.9,29.90,South,182,1.0,5.0,85,0.00,,OVC011,0.00,VWS V14.01,2013-01-02 08:05:00,
2013-01-02 02:06:00,15.6,11.9,29.90,South,184,0.0,5.0,85,0.00,,OVC011,0.00,VWS V14.01,2013-01-02 08:06:00,
2013-01-02 02:07:00,15.6,11.9,29.90,South,182,0.0,5.0,85,0.00,,OVC011,0.00,VWS V14.01,2013-01-02 08:07:00,
2013-01-02 02:08:00,15.6,11.9,29.90,South,187,0.0,5.0,85,0.00,,OVC011,0.00,VWS V14.01,2013-01-02 08:08:00,
2013-01-02 02:09:00,15.6,11.9,29.90,South,185,2.0,5.0,85,0.00,,OVC011,0.00,VWS V14.01,2013-01-02 08:09:00,
2013-01-02 02:10:00,15.4,11.7,29.90,South,181,1.0,5.0,85,0.00,,OVC011,0.00,VWS V14.01,2013-01-02 08:10:00,
2013-01-02 02:11:00,15.6,11.9,29.90,SSE,147,0.0,6.0,85,0.00,,OVC011,0.00,VWS V14.01,2013-01-02 08:11:00,
2013-01-02 02:12:00,15.4,11.7,29.90,SSE,147,0.0,6.0,85,0.00,,OVC011,0.00,VWS V14.01,2013-01-02 08:12:00,
2013-01-02 02:13:00,15.4,11.7,29.90,SSE,147,2.0,6.0,85,0.00,,OVC011,0.00,VWS V14.01,2013-01-02 08:13:00,
2013-01-02 02:14:00,15.4,11.7,29.90,SE,144,5.0,6.0,85,0.00,,OVC011,0.00,VWS V14.01,2013-01-02 08:14:00,
2013-01-02 02:15:00,15.4,11.7,29.90,SE,143,0.0,6.0,85,0.00,,OVC011,0.00,VWS V14.01,2013-01-02 08:15:00,
2013-01-02 02:16:00,15.4,12.0,29.90,SE,143,0.0,6.0,86,0.00,,OVC011,0.00,VWS V14.01,2013-01-02 08:16:00,
2013-01-02 02:17:00,15.4,12.0,29.90,SE,143,0.0,6.0,86,0.00,,OVC011,0.00,VWS V14.01,2013-01-02 08:17:00,
2013-01-02 02:18:00,15.4,12.0,29.90,SE,143,0.0,6.0,86,0.00,,OVC011,0.00,VWS V14.01,2013-01-02 08:18:00,
2013-01-02 02:19:00,15.4,12.0,29.90,SE,143,1.0,6.0,86,0.00,,OVC011,0.00,VWS V14.01,2013-01-02 08:19:00,
2013-01-02 02:20:00,15.4,12.0,29.90,SE,143,2.0,6.0,86,0.00,,OVC011,0.00,VWS V14.01,2013-01-02 08:20:00,
2013-01-02 02:21:00,15.4,12.0,29.90,SE,143,0.0,6.0,86,0.00,,OVC011,0.00,VWS V14.01,2013-01-02 08:21:00,
2013-01-02 02:22:00,15.4,12.0,29.90,SE,143,0.0,6.0,86,0.00,,OVC011,0.00,VWS V14.01,2013-01-02 08:22:00,
2013-01-02 02:23:00,15.4,12.0,29.90,SE,143,0.0,6.0,86,0.00,,OVC011,0.00,VWS V14.01,2013-01-02 08:23:00,
2013-01-02 02:24:00,15.4,12.0,29.90,SE,143,1.0,6.0,86,0.00,,OVC011,0.00,VWS V14.01,2013-01-02 08:24:00,
2013-01-02 02:25:00,15.4,12.0,29.90,SE,143,4.0,6.0,86,0.00,,OVC011,0.00,VWS V14.01,2013-01-02 08:25:00,
2013-01-02 02:26:00,15.4,12.0,29.90,SE,142,5.0,6.0,86,0.00,,OVC011,0.00,VWS V14.01,2013-01-02 08:26:00,
2013-01-02 02:27:00,15.4,12.0,29.90,SE,139,5.0,7.0,86,0.00,,OVC011,0.00,VWS V14.01,2013-01-02 08:27:00,
2013-01-02 02:28:00,15.4,12.0,29.90,SE,136,4.0,7.0,86,0.00,,OVC011,0.00,VWS V14.01,2013-01-02 08:28:00,
2013-01-02 02:29:00,15.2,11.5,29.90,SE,136,6.0,7.0,85,0.00,,OVC011,0.00,VWS V14.01,2013-01-02 08:29:00,
2013-01-02 02:30:00,15.2,11.5,29.90,SE,136,5.0,8.0,85,0.00,,,0.00,VWS V14.01,2013-01-02 08:30:00,
2013-01-02 02:31:00,15.1,11.4,29.90,SE,136,6.0,6.0,85,0.00,,,0.00,VWS V14.01,2013-01-02 08:31:00,
2013-01-02 02:32:00,14.9,10.9,29.90,SE,137,6.0,8.0,84,0.00,,,0.00,VWS V14.01,2013-01-02 08:32:00,
2013-01-02 02:33:00,14.9,10.9,29.90,SE,136,6.0,8.0,84,0.00,,,0.00,VWS V14.01,2013-01-02 08:33:00,
2013-01-02 02:34:00,14.8,10.9,29.90,SE,134,2.0,8.0,84,0.00,,,0.00,VWS V14.01,2013-01-02 08:34:00,
2013-01-02 02:35:00,14.8,10.9,29.90,SE,134,5.0,8.0,84,0.00,,,0.00,VWS V14.01,2013-01-02 08:35:00,
2013-01-02 02:36:00,14.6,10.7,29.90,SE,134,3.0,8.0,84,0.00,,,0.00,VWS V14.01,2013-01-02 08:36:00,
2013-01-02 02:37:00,14.6,10.7,29.90,SE,129,6.0,8.0,84,0.00,,,0.00,VWS V14.01,2013-01-02 08:37:00,
2013-01-02 02:38:00,14.6,10.7,29.90,ESE,123,3.0,8.0,84,0.00,,,0.00,VWS V14.01,2013-01-02 08:38:00,
2013-01-02 02:39:00,14.4,10.5,29.90,SE,125,5.0,8.0,84,0.00,,,0.00,VWS V14.01,2013-01-02 08:39:00,
2013-01-02 02:40:00,14.4,10.5,29.90,SE,126,2.0,8.0,84,0.00,,,0.00,VWS V14.01,2013-01-02 08:40:00,
2013-01-02 02:41:00,14.4,10.5,29.90,SE,126,3.0,8.0,84,0.00,,,0.00,VWS V14.01,2013-01-02 08:41:00,
2013-01-02 02:42:00,14.4,10.5,29.90,SE,126,0.0,8.0,84,0.00,,,0.00,VWS V14.01,2013-01-02 08:42:00,
2013-01-02 02:43:00,14.3,10.4,29.90,SE,126,3.0,8.0,84,0.00,,,0.00,VWS V14.01,2013-01-02 08:43:00,
2013-01-02 02:44:00,14.3,10.4,29.90,SE,126,0.0,8.0,84,0.00,,,0.00,VWS V14.01,2013-01-02 08:44:00,
2013-01-02 02:45:00,14.3,10.4,29.89,SE,126,2.0,8.0,84,0.00,,,0.00,VWS V14.01,2013-01-02 08:45:00,
2013-01-02 02:46:00,14.3,10.4,29.89,SE,126,5.0,8.0,84,0.00,,,0.00,VWS V14.01,2013-01-02 08:46:00,
2013-01-02 02:47:00,14.3,10.4,29.89,SE,126,3.0,8.0,84,0.00,,,0.00,VWS V14.01,2013-01-02 08:47:00,
2013-01-02 02:48:00,14.3,10.4,29.89,SE,126,6.0,8.0,84,0.00,,,0.00,VWS V14.01,2013-01-02 08:48:00,
2013-01-02 02:49:00,14.3,10.4,29.89,SE,132,4.0,8.0,84,0.00,,,0.00,VWS V14.01,2013-01-02 08:49:00,
2013-01-02 02:50:00,14.1,10.4,29.89,SE,132,4.0,8.0,85,0.00,,,0.00,VWS V14.01,2013-01-02 08:50:00,
2013-01-02 02:51:00,14.1,10.4,29.89,SE,132,0.0,8.0,85,0.00,,,0.00,VWS V14.01,2013-01-02 08:51:00,
2013-01-02 02:52:00,14.1,10.4,29.89,SE,132,3.0,8.0,85,0.00,,,0.00,VWS V14.01,2013-01-02 08:52:00,
2013-01-02 02:53:00,14.1,10.4,29.89,SE,132,5.0,8.0,85,0.00,,,0.00,VWS V14.01,2013-01-02 08:53:00,
2013-01-02 02:54:00,14.1,10.4,29.89,SE,132,1.0,8.0,85,0.00,,,0.00,VWS V14.01,2013-01-02 08:54:00,
2013-01-02 02:55:00,14.1,10.4,29.89,SE,132,3.0,8.0,85,0.00,,,0.00,VWS V14.01,2013-01-02 08:55:00,
2013-01-02 02:56:00,14.1,10.4,29.89,SE,132,5.0,8.0,85,0.00,,,0.00,VWS V14.01,2013-01-02 08:56:00,
2013-01-02 02:57:00,14.1,10.4,29.89,SE,132,5.0,8.0,85,0.00,,,0.00,VWS V14.01,2013-01-02 08:57:00,
2013-01-02 02:58:00,14.1,10.4,29.89,SE,130,7.0,8.0,85,0.00,,,0.00,VWS V14.01,2013-01-02 08:58:00,
2013-01-02 02:59:00,14.1,10.4,29.89,SE,132,3.0,8.0,85,0.00,,,0.00,VWS V14.01,2013-01-02 08:59:00,
2013-01-02 03:00:00,14.1,10.4,29.89,SE,129,8.0,8.0,85,0.00,,,0.00,VWS V14.01,2013-01-02 09:00:00,
2013-01-02 03:01:00,14.0,10.3,29.89,SE,142,6.0,8.0,85,0.00,,,0.00,VWS V14.01,2013-01-02 09:01:00,
2013-01-02 03:02:00,14.0,10.3,29.89,SE,140,4.0,8.0,85,0.00,,,0.00,VWS V14.01,2013-01-02 09:02:00,
2013-01-02 03:03:00,14.0,10.3,29.89,SE,139,5.0,8.0,85,0.00,,,0.00,VWS V14.01,2013-01-02 09:03:00,
2013-01-02 03:04:00,14.0,10.3,29.89,SE,139,2.0,8.0,85,0.00,,,0.00,VWS V14.01,2013-01-02 09:04:00,
2013-01-02 03:05:00,14.0,10.6,29.89,SE,139,0.0,8.0,86,0.00,,,0.00,VWS V14.01,2013-01-02 09:05:00,
2013-01-02 03:06:00,14.0,10.6,29.89,SE,139,5.0,8.0,86,0.00,,,0.00,VWS V14.01,2013-01-02 09:06:00,
2013-01-02 03:07:00,14.0,10.6,29.89,SE,137,3.0,8.0,86,0.00,,,0.00,VWS V14.01,2013-01-02 09:07:00,
2013-01-02 03:08:00,14.0,10.6,29.89,SE,139,5.0,8.0,86,0.00,,,0.00,VWS V14.01,2013-01-02 09:08:00,
2013-01-02 03:09:00,14.0,10.6,29.89,SE,133,3.0,8.0,86,0.00,,,0.00,VWS V14.01,2013-01-02 09:09:00,
2013-01-02 03:10:00,14.0,10.6,29.89,SE,133,2.0,8.0,86,0.00,,,0.00,VWS V14.01,2013-01-02 09:10:00,
2013-01-02 03:11:00,14.0,10.6,29.89,SE,133,0.0,8.0,86,0.00,,,0.00,VWS V14.01,2013-01-02 09:11:00,
2013-01-02 03:12:00,14.0,10.6,29.89,SE,134,6.0,8.0,86,0.00,,,0.00,VWS V14.01,2013-01-02 09:12:00,
2013-01-02 03:13:00,14.0,10.6,29.89,SE,134,3.0,8.0,86,0.00,,,0.00,VWS V14.01,2013-01-02 09:13:00,
2013-01-02 03:14:00,14.0,10.6,29.89,SE,134,2.0,8.0,86,0.00,,,0.00,VWS V14.01,2013-01-02 09:14:00,
2013-01-02 03:15:00,14.0,10.6,29.88,SE,134,3.0,8.0,86,0.00,,,0.00,VWS V14.01,2013-01-02 09:15:00,
2013-01-02 03:16:00,14.0,10.6,29.88,SE,134,2.0,8.0,86,0.00,,,0.00,VWS V14.01,2013-01-02 09:16:00,
2013-01-02 03:17:00,14.0,10.6,29.88,SE,134,3.0,8.0,86,0.00,,,0.00,VWS V14.01,2013-01-02 09:17:00,
2013-01-02 03:18:00,14.0,10.6,29.88,SE,134,5.0,8.0,86,0.00,,,0.00,VWS V14.01,2013-01-02 09:18:00,
2013-01-02 03:19:00,14.0,10.9,29.88,SE,129,4.0,8.0,87,0.00,,,0.00,VWS V14.01,2013-01-02 09:19:00,
2013-01-02 03:20:00,13.8,10.6,29.88,SE,132,4.0,8.0,87,0.00,,,0.00,VWS V14.01,2013-01-02 09:20:00,
2013-01-02 03:21:00,13.8,10.6,29.88,SE,134,6.0,8.0,87,0.00,,,0.00,VWS V14.01,2013-01-02 09:21:00,
2013-01-02 03:22:00,13.8,10.6,29.88,SE,132,6.0,8.0,87,0.00,,,0.00,VWS V14.01,2013-01-02 09:22:00,
2013-01-02 03:23:00,13.8,10.6,29.88,SE,132,6.0,8.0,87,0.00,,,0.00,VWS V14.01,2013-01-02 09:23:00,
2013-01-02 03:24:00,13.8,10.6,29.88,SE,132,3.0,8.0,87,0.00,,,0.00,VWS V14.01,2013-01-02 09:24:00,
2013-01-02 03:25:00,13.8,10.6,29.88,SE,132,3.0,8.0,87,0.00,,,0.00,VWS V14.01,2013-01-02 09:25:00,
2013-01-02 03:26:00,13.8,10.6,29.88,SE,132,3.0,8.0,87,0.00,,,0.00,VWS V14.01,2013-01-02 09:26:00,
2013-01-02 03:27:00,13.8,10.6,29.88,SE,132,3.0,8.0,87,0.00,,,0.00,VWS V14.01,2013-01-02 09:27:00,
2013-01-02 03:28:00,13.8,10.6,29.88,SE,137,6.0,8.0,87,0.00,,,0.00,VWS V14.01,2013-01-02 09:28:00,
2013-01-02 03:29:00,13.8,10.6,29.88,SE,134,7.0,8.0,87,0.00,,,0.00,VWS V14.01,2013-01-02 09:29:00,
2013-01-02 03:30:00,13.8,10.6,29.87,SE,134,7.0,8.0,87,0.00,,,0.00,VWS V14.01,2013-01-02 09:30:00,
2013-01-02 03:31:00,13.8,10.9,29.87,SE,133,6.0,7.0,88,0.00,,,0.00,VWS V14.01,2013-01-02 09:31:00,
2013-01-02 03:32:00,13.8,10.9,29.87,SE,133,1.0,7.0,88,0.00,,,0.00,VWS V14.01,2013-01-02 09:32:00,
2013-01-02 03:33:00,13.8,10.9,29.87,SE,129,6.0,7.0,88,0.00,,,0.00,VWS V14.01,2013-01-02 09:33:00,
2013-01-02 03:34:00,13.8,10.9,29.87,SE,130,1.0,7.0,88,0.00,,,0.00,VWS V14.01,2013-01-02 09:34:00,
2013-01-02 03:35:00,13.8,10.9,29.87,SE,127,7.0,7.0,88,0.00,,,0.00,VWS V14.01,2013-01-02 09:35:00,
2013-01-02 03:36:00,13.8,10.9,29.87,SE,126,0.0,7.0,88,0.00,,,0.00,VWS V14.01,2013-01-02 09:36:00,
2013-01-02 03:37:00,13.8,10.9,29.87,SE,126,3.0,7.0,88,0.00,,,0.00,VWS V14.01,2013-01-02 09:37:00,
2013-01-02 03:38:00,13.8,10.9,29.87,SE,125,6.0,8.0,88,0.00,,,0.00,VWS V14.01,2013-01-02 09:38:00,
2013-01-02 03:39:00,13.8,10.9,29.87,SE,127,3.0,8.0,88,0.00,,,0.00,VWS V14.01,2013-01-02 09:39:00,
2013-01-02 03:40:00,13.8,11.2,29.87,SE,127,2.0,8.0,89,0.00,,,0.00,VWS V14.01,2013-01-02 09:40:00,
2013-01-02 03:41:00,13.8,11.2,29.87,SE,127,1.0,8.0,89,0.00,,,0.00,VWS V14.01,2013-01-02 09:41:00,
2013-01-02 03:42:00,13.8,11.2,29.87,SE,127,6.0,8.0,89,0.00,,,0.00,VWS V14.01,2013-01-02 09:42:00,
2013-01-02 03:43:00,13.8,11.2,29.87,SE,127,3.0,8.0,89,0.00,,,0.00,VWS V14.01,2013-01-02 09:43:00,
2013-01-02 03:44:00,13.8,11.2,29.87,SE,127,2.0,8.0,89,0.00,,,0.00,VWS V14.01,2013-01-02 09:44:00,
2013-01-02 03:45:00,13.8,11.2,29.86,SE,127,3.0,8.0,89,0.00,,,0.00,VWS V14.01,2013-01-02 09:45:00,
2013-01-02 03:46:00,13.8,11.2,29.86,SE,126,5.0,8.0,89,0.00,,,0.00,VWS V14.01,2013-01-02 09:46:00,
2013-01-02 03:47:00,13.8,11.2,29.86,SE,126,5.0,8.0,89,0.00,,,0.00,VWS V14.01,2013-01-02 09:47:00,
2013-01-02 03:48:00,13.8,11.2,29.86,SE,126,4.0,8.0,89,0.00,,,0.00,VWS V14.01,2013-01-02 09:48:00,
2013-01-02 03:49:00,13.8,11.2,29.86,SE,126,2.0,8.0,89,0.00,,,0.00,VWS V14.01,2013-01-02 09:49:00,
2013-01-02 03:50:00,13.8,11.2,29.86,SE,126,5.0,8.0,89,0.00,,,0.00,VWS V14.01,2013-01-02 09:50:00,
2013-01-02 03:51:00,13.8,11.2,29.86,SE,126,4.0,8.0,89,0.00,,,0.00,VWS V14.01,2013-01-02 09:51:00,
2013-01-02 03:52:00,13.8,11.2,29.86,SE,126,5.0,8.0,89,0.00,,,0.00,VWS V14.01,2013-01-02 09:52:00,
2013-01-02 03:53:00,13.8,11.2,29.86,SE,125,5.0,8.0,89,0.00,,,0.00,VWS V14.01,2013-01-02 09:53:00,
2013-01-02 03:54:00,13.8,11.2,29.86,SE,125,0.0,8.0,89,0.00,,,0.00,VWS V14.01,2013-01-02 09:54:00,
2013-01-02 03:55:00,14.0,11.4,29.86,SE,127,2.0,8.0,89,0.00,,,0.00,VWS V14.01,2013-01-02 09:55:00,
2013-01-02 03:56:00,14.0,11.4,29.86,SE,127,4.0,8.0,89,0.00,,,0.00,VWS V14.01,2013-01-02 09:56:00,
2013-01-02 03:57:00,14.0,11.4,29.86,SE,127,5.0,8.0,89,0.00,,,0.00,VWS V14.01,2013-01-02 09:57:00,
2013-01-02 03:58:00,14.0,11.4,29.86,SE,127,3.0,8.0,89,0.00,,,0.00,VWS V14.01,2013-01-02 09:58:00,
2013-01-02 03:59:00,14.0,11.4,29.86,SE,127,3.0,8.0,89,0.00,,,0.00,VWS V14.01,2013-01-02 09:59:00,
2013-01-02 04:00:00,14.0,11.4,29.86,SE,127,2.0,8.0,89,0.00,,,0.00,VWS V14.01,2013-01-02 10:00:00,
2013-01-02 04:01:00,14.0,11.4,29.86,SE,127,3.0,4.0,89,0.00,,,0.00,VWS V14.01,2013-01-02 10:01:00,
2013-01-02 04:02:00,14.0,11.4,29.86,SE,127,2.0,5.0,89,0.00,,,0.00,VWS V14.01,2013-01-02 10:02:00,
2013-01-02 04:03:00,14.0,11.4,29.86,SE,127,0.0,5.0,89,0.00,,,0.00,VWS V14.01,2013-01-02 10:03:00,
2013-01-02 04:04:00,14.0,11.4,29.86,SE,127,3.0,5.0,89,0.00,,,0.00,VWS V14.01,2013-01-02 10:04:00,
2013-01-02 04:05:00,14.0,11.4,29.86,SE,127,3.0,5.0,89,0.00,,,0.00,VWS V14.01,2013-01-02 10:05:00,
2013-01-02 04:06:00,14.1,11.5,29.86,SE,130,1.0,6.0,89,0.00,,,0.00,VWS V14.01,2013-01-02 10:06:00,
2013-01-02 04:07:00,14.1,11.5,29.86,SE,130,1.0,6.0,89,0.00,,,0.00,VWS V14.01,2013-01-02 10:07:00,
2013-01-02 04:08:00,14.1,11.5,29.86,SE,130,0.0,6.0,89,0.00,,,0.00,VWS V14.01,2013-01-02 10:08:00,
2013-01-02 04:09:00,14.1,11.5,29.86,SE,130,3.0,6.0,89,0.00,,,0.00,VWS V14.01,2013-01-02 10:09:00,
2013-01-02 04:10:00,14.1,11.7,29.86,SE,129,3.0,6.0,90,0.00,,,0.00,VWS V14.01,2013-01-02 10:10:00,
2013-01-02 04:11:00,14.1,11.7,29.86,SE,129,1.0,6.0,90,0.00,,,0.00,VWS V14.01,2013-01-02 10:11:00,
2013-01-02 04:12:00,14.1,11.7,29.86,ESE,123,7.0,8.0,90,0.00,,,0.00,VWS V14.01,2013-01-02 10:12:00,
2013-01-02 04:13:00,14.1,11.7,29.86,SE,130,3.0,8.0,90,0.00,,,0.00,VWS V14.01,2013-01-02 10:13:00,
2013-01-02 04:14:00,14.1,11.7,29.86,SE,129,6.0,8.0,90,0.00,,,0.00,VWS V14.01,2013-01-02 10:14:00,
2013-01-02 04:15:00,14.1,11.7,29.86,SE,129,3.0,8.0,90,0.00,,,0.00,VWS V14.01,2013-01-02 10:15:00,
2013-01-02 04:16:00,14.1,11.7,29.86,SE,129,6.0,8.0,90,0.00,,,0.00,VWS V14.01,2013-01-02 10:16:00,
2013-01-02 04:17:00,14.1,11.7,29.86,SE,129,0.0,8.0,90,0.00,,,0.00,VWS V14.01,2013-01-02 10:17:00,
2013-01-02 04:18:00,14.1,11.7,29.86,SE,130,3.0,8.0,90,0.00,,,0.00,VWS V14.01,2013-01-02 10:18:00,
2013-01-02 04:19:00,14.1,11.7,29.86,SE,130,4.0,8.0,90,0.00,,,0.00,VWS V14.01,2013-01-02 10:19:00,
2013-01-02 04:20:00,14.1,11.7,29.86,SE,130,4.0,8.0,90,0.00,,,0.00,VWS V14.01,2013-01-02 10:20:00,
2013-01-02 04:21:00,14.1,11.7,29.86,SE,130,0.0,8.0,90,0.00,,,0.00,VWS V14.01,2013-01-02 10:21:00,
2013-01-02 04:22:00,14.1,11.7,29.86,SE,130,0.0,8.0,90,0.00,,,0.00,VWS V14.01,2013-01-02 10:22:00,
2013-01-02 04:23:00,14.1,11.7,29.86,SE,130,0.0,8.0,90,0.00,,,0.00,VWS V14.01,2013-01-02 10:23:00,
2013-01-02 04:24:00,14.1,11.7,29.86,SE,129,5.0,8.0,90,0.00,,,0.00,VWS V14.01,2013-01-02 10:24:00,
2013-01-02 04:25:00,14.1,11.5,29.86,SE,130,2.0,8.0,89,0.00,,,0.00,VWS V14.01,2013-01-02 10:25:00,
2013-01-02 04:26:00,14.1,11.5,29.86,SE,129,4.0,8.0,89,0.00,,,0.00,VWS V14.01,2013-01-02 10:26:00,
2013-01-02 04:27:00,14.1,11.5,29.86,SE,142,7.0,8.0,89,0.00,,,0.00,VWS V14.01,2013-01-02 10:27:00,
2013-01-02 04:28:00,14.1,11.5,29.86,SE,142,1.0,8.0,89,0.00,,,0.00,VWS V14.01,2013-01-02 10:28:00,
2013-01-02 04:29:00,14.1,11.5,29.86,SE,142,1.0,8.0,89,0.00,,,0.00,VWS V14.01,2013-01-02 10:29:00,
2013-01-02 04:30:00,14.1,11.5,29.86,SE,142,1.0,8.0,89,0.00,,,0.00,VWS V14.01,2013-01-02 10:30:00,
2013-01-02 04:31:00,14.1,11.5,29.86,SE,142,2.0,5.0,89,0.00,,,0.00,VWS V14.01,2013-01-02 10:31:00,
2013-01-02 04:32:00,14.1,11.5,29.86,SE,142,3.0,5.0,89,0.00,,,0.00,VWS V14.01,2013-01-02 10:32:00,
2013-01-02 04:33:00,14.1,11.5,29.86,SE,139,7.0,7.0,89,0.00,,,0.00,VWS V14.01,2013-01-02 10:33:00,
2013-01-02 04:34:00,14.1,11.5,29.86,SE,129,3.0,10.0,89,0.00,,,0.00,VWS V14.01,2013-01-02 10:34:00,
2013-01-02 04:35:00,14.1,11.5,29.86,SE,129,2.0,10.0,89,0.00,,,0.00,VWS V14.01,2013-01-02 10:35:00,
2013-01-02 04:36:00,14.1,11.5,29.86,SE,125,5.0,10.0,89,0.00,,,0.00,VWS V14.01,2013-01-02 10:36:00,
2013-01-02 04:37:00,14.1,11.5,29.86,SW,222,5.0,10.0,89,0.00,,,0.00,VWS V14.01,2013-01-02 10:37:00,
2013-01-02 04:38:00,14.1,11.5,29.86,SSW,205,3.0,10.0,89,0.00,,,0.00,VWS V14.01,2013-01-02 10:38:00,
2013-01-02 04:39:00,14.1,11.5,29.86,South,181,2.0,10.0,89,0.00,,,0.00,VWS V14.01,2013-01-02 10:39:00,
2013-01-02 04:40:00,14.1,11.5,29.86,SE,137,2.0,10.0,89,0.00,,,0.00,VWS V14.01,2013-01-02 10:40:00,
2013-01-02 04:41:00,14.1,11.5,29.86,SE,140,5.0,10.0,89,0.00,,,0.00,VWS V14.01,2013-01-02 10:41:00,
2013-01-02 04:42:00,14.1,11.5,29.86,SSE,156,7.0,10.0,89,0.00,,,0.00,VWS V14.01,2013-01-02 10:42:00,
2013-01-02 04:43:00,14.0,11.4,29.86,SSE,149,3.0,10.0,89,0.00,,,0.00,VWS V14.01,2013-01-02 10:43:00,
2013-01-02 04:44:00,14.0,11.4,29.86,SE,137,5.0,10.0,89,0.00,,,0.00,VWS V14.01,2013-01-02 10:44:00,
2013-01-02 04:45:00,14.0,11.4,29.85,SE,132,2.0,10.0,89,0.00,,,0.00,VWS V14.01,2013-01-02 10:45:00,
2013-01-02 04:46:00,14.0,11.4,29.85,SE,130,0.0,10.0,89,0.00,,,0.00,VWS V14.01,2013-01-02 10:46:00,
2013-01-02 04:47:00,14.0,11.4,29.85,SE,130,0.0,10.0,89,0.00,,,0.00,VWS V14.01,2013-01-02 10:47:00,
2013-01-02 04:48:00,14.0,11.4,29.85,SE,132,6.0,10.0,89,0.00,,,0.00,VWS V14.01,2013-01-02 10:48:00,
2013-01-02 04:49:00,14.0,11.4,29.85,SE,129,5.0,10.0,89,0.00,,,0.00,VWS V14.01,2013-01-02 10:49:00,
2013-01-02 04:50:00,14.0,11.4,29.85,SE,129,2.0,10.0,89,0.00,,,0.00,VWS V14.01,2013-01-02 10:50:00,
2013-01-02 04:51:00,14.0,11.4,29.85,SE,130,4.0,10.0,89,0.00,,,0.00,VWS V14.01,2013-01-02 10:51:00,
2013-01-02 04:52:00,14.0,11.4,29.85,SE,127,6.0,10.0,89,0.00,,,0.00,VWS V14.01,2013-01-02 10:52:00,
2013-01-02 04:53:00,14.0,11.4,29.85,SE,142,0.0,10.0,89,0.00,,,0.00,VWS V14.01,2013-01-02 10:53:00,
2013-01-02 04:54:00,14.0,11.4,29.85,SE,127,6.0,10.0,89,0.00,,,0.00,VWS V14.01,2013-01-02 10:54:00,
2013-01-02 04:55:00,14.0,11.4,29.85,SE,129,6.0,10.0,89,0.00,,,0.00,VWS V14.01,2013-01-02 10:55:00,
2013-01-02 04:56:00,14.0,11.4,29.85,SE,132,4.0,10.0,89,0.00,,,0.00,VWS V14.01,2013-01-02 10:56:00,
2013-01-02 04:57:00,14.0,11.4,29.85,SE,132,6.0,10.0,89,0.00,,,0.00,VWS V14.01,2013-01-02 10:57:00,
2013-01-02 04:58:00,14.0,11.4,29.85,SE,132,5.0,10.0,89,0.00,,,0.00,VWS V14.01,2013-01-02 10:58:00,
2013-01-02 04:59:00,14.0,11.4,29.85,SE,132,4.0,10.0,89,0.00,,,0.00,VWS V14.01,2013-01-02 10:59:00,
2013-01-02 05:00:00,14.0,11.4,29.85,SE,132,5.0,10.0,89,0.00,,,0.00,VWS V14.01,2013-01-02 11:00:00,
2013-01-02 05:01:00,14.0,11.4,29.85,SE,132,5.0,6.0,89,0.00,,,0.00,VWS V14.01,2013-01-02 11:01:00,
2013-01-02 05:02:00,14.0,11.4,29.85,South,170,5.0,7.0,89,0.00,,,0.00,VWS V14.01,2013-01-02 11:02:00,
2013-01-02 05:03:00,14.0,11.4,29.85,SE,132,8.0,10.0,89,0.00,,,0.00,VWS V14.01,2013-01-02 11:03:00,
2013-01-02 05:04:00,13.8,10.9,29.85,SE,132,0.0,10.0,88,0.00,,,0.00,VWS V14.01,2013-01-02 11:04:00,
2013-01-02 05:05:00,13.8,10.9,29.85,SE,132,3.0,10.0,88,0.00,,,0.00,VWS V14.01,2013-01-02 11:05:00,
2013-01-02 05:06:00,13.8,11.2,29.85,SE,130,7.0,10.0,89,0.00,,,0.00,VWS V14.01,2013-01-02 11:06:00,
2013-01-02 05:07:00,13.8,10.9,29.85,SE,129,4.0,10.0,88,0.00,,,0.00,VWS V14.01,2013-01-02 11:07:00,
2013-01-02 05:08:00,13.8,10.9,29.85,SE,129,3.0,10.0,88,0.00,,,0.00,VWS V14.01,2013-01-02 11:08:00,
2013-01-02 05:09:00,13.8,10.9,29.85,SE,129,0.0,10.0,88,0.00,,,0.00,VWS V14.01,2013-01-02 11:09:00,
2013-01-02 05:10:00,13.8,10.9,29.85,SE,125,7.0,10.0,88,0.00,,,0.00,VWS V14.01,2013-01-02 11:10:00,
2013-01-02 05:11:00,13.6,10.7,29.85,SE,126,8.0,10.0,88,0.00,,,0.00,VWS V14.01,2013-01-02 11:11:00,
2013-01-02 05:12:00,13.6,10.7,29.85,SE,125,6.0,10.0,88,0.00,,,0.00,VWS V14.01,2013-01-02 11:12:00,
2013-01-02 05:13:00,13.6,10.7,29.85,SE,127,5.0,10.0,88,0.00,,,0.00,VWS V14.01,2013-01-02 11:13:00,
2013-01-02 05:14:00,13.5,10.6,29.85,SE,126,6.0,10.0,88,0.00,,,0.00,VWS V14.01,2013-01-02 11:14:00,
2013-01-02 05:15:00,13.5,10.6,29.85,SE,126,2.0,10.0,88,0.00,,,0.00,VWS V14.01,2013-01-02 11:15:00,
2013-01-02 05:16:00,13.5,10.6,29.85,SE,126,4.0,10.0,88,0.00,,,0.00,VWS V14.01,2013-01-02 11:16:00,
2013-01-02 05:17:00,13.5,10.6,29.85,SE,127,3.0,10.0,88,0.00,,,0.00,VWS V14.01,2013-01-02 11:17:00,
2013-01-02 05:18:00,13.5,10.6,29.85,SE,127,0.0,10.0,88,0.00,,,0.00,VWS V14.01,2013-01-02 11:18:00,
2013-01-02 05:19:00,13.5,10.6,29.85,SE,127,3.0,10.0,88,0.00,,,0.00,VWS V14.01,2013-01-02 11:19:00,
2013-01-02 05:20:00,13.5,10.6,29.85,SE,127,0.0,10.0,88,0.00,,,0.00,VWS V14.01,2013-01-02 11:20:00,
2013-01-02 05:21:00,13.5,10.6,29.85,SE,133,2.0,10.0,88,0.00,,,0.00,VWS V14.01,2013-01-02 11:21:00,
2013-01-02 05:22:00,13.5,10.6,29.85,SE,133,0.0,10.0,88,0.00,,,0.00,VWS V14.01,2013-01-02 11:22:00,
2013-01-02 05:23:00,13.5,10.6,29.85,East,92,4.0,10.0,88,0.00,,,0.00,VWS V14.01,2013-01-02 11:23:00,
2013-01-02 05:24:00,13.3,10.4,29.85,SE,132,1.0,10.0,88,0.00,,,0.00,VWS V14.01,2013-01-02 11:24:00,
2013-01-02 05:25:00,13.3,10.4,29.85,SE,132,4.0,10.0,88,0.00,,,0.00,VWS V14.01,2013-01-02 11:25:00,
2013-01-02 05:26:00,13.3,10.4,29.85,SE,132,3.0,10.0,88,0.00,,,0.00,VWS V14.01,2013-01-02 11:26:00,
2013-01-02 05:27:00,13.3,10.4,29.85,SE,132,7.0,10.0,88,0.00,,,0.00,VWS V14.01,2013-01-02 11:27:00,
2013-01-02 05:28:00,13.3,10.4,29.85,SE,132,6.0,10.0,88,0.00,,,0.00,VWS V14.01,2013-01-02 11:28:00,
2013-01-02 05:29:00,13.3,10.4,29.85,SE,132,0.0,10.0,88,0.00,,,0.00,VWS V14.01,2013-01-02 11:29:00,
2013-01-02 05:30:00,13.3,10.4,29.84,SE,132,0.0,10.0,88,0.00,,,0.00,VWS V14.01,2013-01-02 11:30:00,
2013-01-02 05:31:00,13.3,10.4,29.84,SE,132,0.0,1.0,88,0.00,,,0.00,VWS V14.01,2013-01-02 11:31:00,
2013-01-02 05:32:00,13.3,10.4,29.84,SE,132,2.0,5.0,88,0.00,,,0.00,VWS V14.01,2013-01-02 11:32:00,
2013-01-02 05:33:00,13.3,10.4,29.84,SE,130,2.0,6.0,88,0.00,,,0.00,VWS V14.01,2013-01-02 11:33:00,
2013-01-02 05:34:00,13.5,10.6,29.84,SE,139,1.0,7.0,88,0.00,,,0.00,VWS V14.01,2013-01-02 11:34:00,
2013-01-02 05:35:00,13.3,10.4,29.84,SE,142,2.0,7.0,88,0.00,,,0.00,VWS V14.01,2013-01-02 11:35:00,
2013-01-02 05:36:00,13.3,10.4,29.84,SE,142,0.0,7.0,88,0.00,,,0.00,VWS V14.01,2013-01-02 11:36:00,
2013-01-02 05:37:00,13.3,10.4,29.84,SE,142,1.0,7.0,88,0.00,,,0.00,VWS V14.01,2013-01-02 11:37:00,
2013-01-02 05:38:00,13.3,10.4,29.84,SE,142,0.0,7.0,88,0.00,,,0.00,VWS V14.01,2013-01-02 11:38:00,
2013-01-02 05:39:00,13.3,10.4,29.84,SSE,161,0.0,7.0,88,0.00,,,0.00,VWS V14.01,2013-01-02 11:39:00,
2013-01-02 05:40:00,13.3,10.4,29.84,South,173,0.0,7.0,88,0.00,,,0.00,VWS V14.01,2013-01-02 11:40:00,
2013-01-02 05:41:00,13.3,10.4,29.84,SE,139,0.0,7.0,88,0.00,,,0.00,VWS V14.01,2013-01-02 11:41:00,
2013-01-02 05:42:00,13.3,10.4,29.84,SE,142,3.0,7.0,88,0.00,,,0.00,VWS V14.01,2013-01-02 11:42:00,
2013-01-02 05:43:00,13.3,10.4,29.84,SE,139,1.0,7.0,88,0.00,,,0.00,VWS V14.01,2013-01-02 11:43:00,
2013-01-02 05:44:00,13.3,10.4,29.84,SE,139,2.0,7.0,88,0.00,,,0.00,VWS V14.01,2013-01-02 11:44:00,
2013-01-02 05:45:00,13.3,10.4,29.85,SE,139,0.0,7.0,88,0.00,,,0.00,VWS V14.01,2013-01-02 11:45:00,
2013-01-02 05:46:00,13.3,10.4,29.85,SE,140,0.0,7.0,88,0.00,,,0.00,VWS V14.01,2013-01-02 11:46:00,
2013-01-02 05:47:00,13.1,10.2,29.85,SE,142,2.0,7.0,88,0.00,,,0.00,VWS V14.01,2013-01-02 11:47:00,
2013-01-02 05:48:00,13.1,10.2,29.85,SE,142,4.0,7.0,88,0.00,,,0.00,VWS V14.01,2013-01-02 11:48:00,
2013-01-02 05:49:00,13.1,10.2,29.85,SE,133,8.0,8.0,88,0.00,,,0.00,VWS V14.01,2013-01-02 11:49:00,
2013-01-02 05:50:00,13.1,10.2,29.85,SE,137,3.0,8.0,88,0.00,,,0.00,VWS V14.01,2013-01-02 11:50:00,
2013-01-02 05:51:00,13.1,10.2,29.85,SE,137,2.0,8.0,88,0.00,,,0.00,VWS V14.01,2013-01-02 11:51:00,
2013-01-02 05:52:00,13.1,10.2,29.85,SE,144,8.0,9.0,88,0.00,,,0.00,VWS V14.01,2013-01-02 11:52:00,
2013-01-02 05:53:00,13.1,10.2,29.85,SE,127,5.0,9.0,88,0.00,,,0.00,VWS V14.01,2013-01-02 11:53:00,
2013-01-02 05:54:00,13.1,10.2,29.85,SE,127,6.0,9.0,88,0.00,,,0.00,VWS V14.01,2013-01-02 11:54:00,
2013-01-02 05:55:00,13.1,10.2,29.85,SE,127,3.0,9.0,88,0.00,,,0.00,VWS V14.01,2013-01-02 11:55:00,
2013-01-02 05:56:00,13.1,10.2,29.85,SE,127,6.0,9.0,88,0.00,,,0.00,VWS V14.01,2013-01-02 11:56:00,
2013-01-02 05:57:00,13.1,10.2,29.85,SE,127,2.0,9.0,88,0.00,,,0.00,VWS V14.01,2013-01-02 11:57:00,
2013-01-02 05:58:00,13.1,10.2,29.85,SE,127,1.0,9.0,88,0.00,,,0.00,VWS V14.01,2013-01-02 11:58:00,
2013-01-02 05:59:00,13.1,10.2,29.85,SE,127,0.0,9.0,88,0.00,,,0.00,VWS V14.01,2013-01-02 11:59:00,
2013-01-02 06:00:00,13.1,10.2,29.85,SE,129,5.0,9.0,88,0.00,,,0.00,VWS V14.01,2013-01-02 12:00:00,
2013-01-02 06:01:00,13.1,10.2,29.85,SE,125,5.0,7.0,88,0.00,,,0.00,VWS V14.01,2013-01-02 12:01:00,
2013-01-02 06:02:00,13.1,10.2,29.85,SE,133,7.0,7.0,88,0.00,,,0.00,VWS V14.01,2013-01-02 12:02:00,
2013-01-02 06:03:00,13.1,10.2,29.85,SE,137,4.0,7.0,88,0.00,,,0.00,VWS V14.01,2013-01-02 12:03:00,
2013-01-02 06:04:00,13.1,10.2,29.85,SE,136,4.0,7.0,88,0.00,,,0.00,VWS V14.01,2013-01-02 12:04:00,
2013-01-02 06:05:00,13.1,10.2,29.85,SE,136,0.0,7.0,88,0.00,,,0.00,VWS V14.01,2013-01-02 12:05:00,
2013-01-02 06:06:00,13.1,10.2,29.85,SSE,156,5.0,7.0,88,0.00,,,0.00,VWS V14.01,2013-01-02 12:06:00,
2013-01-02 06:07:00,13.1,10.2,29.85,South,181,3.0,7.0,88,0.00,,,0.00,VWS V14.01,2013-01-02 12:07:00,
2013-01-02 06:08:00,13.1,10.2,29.85,SSW,208,4.0,7.0,88,0.00,,,0.00,VWS V14.01,2013-01-02 12:08:00,
2013-01-02 06:09:00,12.9,10.0,29.85,SSW,208,3.0,7.0,88,0.00,,,0.00,VWS V14.01,2013-01-02 12:09:00,
2013-01-02 06:10:00,12.9,9.8,29.85,SSW,208,5.0,7.0,87,0.00,,,0.00,VWS V14.01,2013-01-02 12:10:00,
2013-01-02 06:11:00,12.9,9.8,29.85,South,187,5.0,7.0,87,0.00,,,0.00,VWS V14.01,2013-01-02 12:11:00,
2013-01-02 06:12:00,12.9,9.8,29.85,South,187,1.0,7.0,87,0.00,,,0.00,VWS V14.01,2013-01-02 12:12:00,
2013-01-02 06:13:00,12.9,10.0,29.85,SE,144,0.0,7.0,88,0.00,,,0.00,VWS V14.01,2013-01-02 12:13:00,
2013-01-02 06:14:00,12.9,10.0,29.85,SW,218,0.0,7.0,88,0.00,,,0.00,VWS V14.01,2013-01-02 12:14:00,
2013-01-02 06:15:00,12.9,10.0,29.85,SW,218,0.0,7.0,88,0.00,,,0.00,VWS V14.01,2013-01-02 12:15:00,
2013-01-02 06:16:00,12.9,9.8,29.85,SW,218,1.0,7.0,87,0.00,,,0.00,VWS V14.01,2013-01-02 12:16:00,
2013-01-02 06:17:00,12.8,9.7,29.85,SW,214,2.0,7.0,87,0.00,,,0.00,VWS V14.01,2013-01-02 12:17:00,
2013-01-02 06:18:00,12.8,9.9,29.85,SSW,211,1.0,7.0,88,0.00,,,0.00,VWS V14.01,2013-01-02 12:18:00,
2013-01-02 06:19:00,12.8,9.9,29.85,South,171,1.0,7.0,88,0.00,,,0.00,VWS V14.01,2013-01-02 12:19:00,
2013-01-02 06:20:00,12.8,9.9,29.85,South,171,0.0,7.0,88,0.00,,,0.00,VWS V14.01,2013-01-02 12:20:00,
2013-01-02 06:21:00,12.8,9.9,29.85,South,174,1.0,7.0,88,0.00,,,0.00,VWS V14.01,2013-01-02 12:21:00,
2013-01-02 06:22:00,12.8,9.9,29.85,South,174,0.0,7.0,88,0.00,,,0.00,VWS V14.01,2013-01-02 12:22:00,
2013-01-02 06:23:00,12.8,9.7,29.85,SSW,198,0.0,7.0,87,0.00,,,0.00,VWS V14.01,2013-01-02 12:23:00,
2013-01-02 06:24:00,12.8,9.7,29.85,SSW,198,0.0,7.0,87,0.00,,,0.00,VWS V14.01,2013-01-02 12:24:00,
2013-01-02 06:25:00,12.8,9.7,29.85,SSW,198,0.0,7.0,87,0.00,,,0.00,VWS V14.01,2013-01-02 12:25:00,
2013-01-02 06:26:00,12.8,9.7,29.85,SSE,160,4.0,7.0,87,0.00,,,0.00,VWS V14.01,2013-01-02 12:26:00,
2013-01-02 06:27:00,12.8,9.7,29.85,SSE,166,4.0,7.0,87,0.00,,,0.00,VWS V14.01,2013-01-02 12:27:00,
2013-01-02 06:28:00,12.8,9.7,29.85,SSE,167,0.0,7.0,87,0.00,,,0.00,VWS V14.01,2013-01-02 12:28:00,
2013-01-02 06:29:00,12.8,9.7,29.85,SSE,167,0.0,7.0,87,0.00,,,0.00,VWS V14.01,2013-01-02 12:29:00,
2013-01-02 06:30:00,12.8,9.7,29.85,SSE,167,0.0,7.0,87,0.00,,,0.00,VWS V14.01,2013-01-02 12:30:00,
2013-01-02 06:31:00,12.8,9.7,29.85,SSE,167,0.0,1.0,87,0.00,,,0.00,VWS V14.01,2013-01-02 12:31:00,
2013-01-02 06:32:00,12.8,9.7,29.85,SSE,167,0.0,2.0,87,0.00,,,0.00,VWS V14.01,2013-01-02 12:32:00,
2013-01-02 06:33:00,12.8,9.7,29.85,SSE,167,0.0,2.0,87,0.00,,,0.00,VWS V14.01,2013-01-02 12:33:00,
2013-01-02 06:34:00,12.8,9.7,29.85,SSW,211,0.0,4.0,87,0.00,,,0.00,VWS V14.01,2013-01-02 12:34:00,
2013-01-02 06:35:00,12.8,9.7,29.85,SSE,153,5.0,7.0,87,0.00,,,0.00,VWS V14.01,2013-01-02 12:35:00,
2013-01-02 06:36:00,12.8,9.7,29.85,SE,146,3.0,7.0,87,0.00,,,0.00,VWS V14.01,2013-01-02 12:36:00,
2013-01-02 06:37:00,12.8,9.7,29.85,SE,144,0.0,7.0,87,0.00,,,0.00,VWS V14.01,2013-01-02 12:37:00,
2013-01-02 06:38:00,12.8,9.7,29.85,SE,139,4.0,7.0,87,0.00,,,0.00,VWS V14.01,2013-01-02 12:38:00,
2013-01-02 06:39:00,12.8,9.7,29.85,SE,140,0.0,7.0,87,0.00,,,0.00,VWS V14.01,2013-01-02 12:39:00,
2013-01-02 06:40:00,12.8,9.7,29.85,SSE,147,3.0,7.0,87,0.00,,,0.00,VWS V14.01,2013-01-02 12:40:00,
2013-01-02 06:41:00,12.8,9.7,29.85,SW,218,0.0,7.0,87,0.00,,,0.00,VWS V14.01,2013-01-02 12:41:00,
2013-01-02 06:42:00,12.8,9.7,29.85,SW,216,3.0,7.0,87,0.00,,,0.00,VWS V14.01,2013-01-02 12:42:00,
2013-01-02 06:43:00,12.8,9.7,29.85,SW,229,1.0,7.0,87,0.00,,,0.00,VWS V14.01,2013-01-02 12:43:00,
2013-01-02 06:44:00,12.8,9.7,29.85,SW,229,0.0,7.0,87,0.00,,,0.00,VWS V14.01,2013-01-02 12:44:00,
2013-01-02 06:45:00,12.8,9.7,29.86,SSE,161,6.0,7.0,87,0.00,,,0.00,VWS V14.01,2013-01-02 12:45:00,
2013-01-02 06:46:00,12.8,9.7,29.86,SSE,161,1.0,7.0,87,0.00,,,0.00,VWS V14.01,2013-01-02 12:46:00,
2013-01-02 06:47:00,12.8,9.9,29.86,SSE,161,2.0,7.0,88,0.00,,,0.00,VWS V14.01,2013-01-02 12:47:00,
2013-01-02 06:48:00,12.8,9.7,29.86,SSE,161,0.0,7.0,87,0.00,,,0.00,VWS V14.01,2013-01-02 12:48:00,
2013-01-02 06:49:00,12.8,9.7,29.86,SSE,161,0.0,7.0,87,0.00,,,0.00,VWS V14.01,2013-01-02 12:49:00,
2013-01-02 06:50:00,12.8,9.9,29.86,SSE,161,3.0,7.0,88,0.00,,,0.00,VWS V14.01,2013-01-02 12:50:00,
2013-01-02 06:51:00,12.8,9.9,29.86,SSE,157,0.0,7.0,88,0.00,,,0.00,VWS V14.01,2013-01-02 12:51:00,
2013-01-02 06:52:00,12.8,9.7,29.86,SSE,157,0.0,7.0,87,0.00,,,0.00,VWS V14.01,2013-01-02 12:52:00,
2013-01-02 06:53:00,12.8,9.7,29.86,SSE,157,0.0,7.0,87,0.00,,,0.00,VWS V14.01,2013-01-02 12:53:00,
2013-01-02 06:54:00,12.8,9.7,29.86,SSE,157,0.0,7.0,87,0.00,,,0.00,VWS V14.01,2013-01-02 12:54:00,
2013-01-02 06:55:00,12.8,9.9,29.86,SSE,156,5.0,7.0,88,0.00,,,0.00,VWS V14.01,2013-01-02 12:55:00,
2013-01-02 06:56:00,12.8,9.9,29.86,SE,133,2.0,7.0,88,0.00,,,0.00,VWS V14.01,2013-01-02 12:56:00,
2013-01-02 06:57:00,12.8,9.9,29.86,SE,133,0.0,7.0,88,0.00,,,0.00,VWS V14.01,2013-01-02 12:57:00,
2013-01-02 06:58:00,12.8,9.9,29.86,SE,132,5.0,7.0,88,0.00,,,0.00,VWS V14.01,2013-01-02 12:58:00,
2013-01-02 06:59:00,12.8,9.9,29.86,SE,130,6.0,7.0,88,0.00,,,0.00,VWS V14.01,2013-01-02 12:59:00,
2013-01-02 07:00:00,12.8,9.9,29.86,SE,130,0.0,7.0,88,0.00,,,0.00,VWS V14.01,2013-01-02 13:00:00,
2013-01-02 07:01:00,12.9,10.0,29.86,SE,129,0.0,5.0,88,0.00,,,0.00,VWS V14.01,2013-01-02 13:01:00,
2013-01-02 07:02:00,12.9,10.0,29.86,SE,132,5.0,5.0,88,0.00,,,0.00,VWS V14.01,2013-01-02 13:02:00,
2013-01-02 07:03:00,12.9,10.0,29.86,SE,133,1.0,5.0,88,0.00,,,0.00,VWS V14.01,2013-01-02 13:03:00,
2013-01-02 07:04:00,12.9,10.0,29.86,SE,132,2.0,5.0,88,0.00,,,0.00,VWS V14.01,2013-01-02 13:04:00,
2013-01-02 07:05:00,12.9,10.0,29.86,SE,132,2.0,5.0,88,0.00,,,0.00,VWS V14.01,2013-01-02 13:05:00,
2013-01-02 07:06:00,12.9,9.8,29.86,SE,132,3.0,5.0,87,0.00,,,0.00,VWS V14.01,2013-01-02 13:06:00,
2013-01-02 07:07:00,12.9,9.8,29.86,SE,133,2.0,5.0,87,0.00,,,0.00,VWS V14.01,2013-01-02 13:07:00,
2013-01-02 07:08:00,12.9,10.0,29.86,SE,133,1.0,5.0,88,0.00,,,0.00,VWS V14.01,2013-01-02 13:08:00,
2013-01-02 07:09:00,12.9,10.0,29.86,SE,134,1.0,5.0,88,0.00,,,0.00,VWS V14.01,2013-01-02 13:09:00,
2013-01-02 07:10:00,12.9,10.0,29.86,SE,136,4.0,6.0,88,0.00,,,0.00,VWS V14.01,2013-01-02 13:10:00,
2013-01-02 07:11:00,12.9,10.0,29.86,SE,136,2.0,6.0,88,0.00,,,0.00,VWS V14.01,2013-01-02 13:11:00,
2013-01-02 07:12:00,12.9,10.0,29.86,SE,136,0.0,6.0,88,0.00,,,0.00,VWS V14.01,2013-01-02 13:12:00,
2013-01-02 07:13:00,12.9,9.8,29.86,SE,136,0.0,6.0,87,0.00,,,0.00,VWS V14.01,2013-01-02 13:13:00,
2013-01-02 07:14:00,12.9,9.8,29.86,SE,136,0.0,6.0,87,0.00,,,0.00,VWS V14.01,2013-01-02 13:14:00,
2013-01-02 07:15:00,12.9,9.8,29.86,SE,136,0.0,6.0,87,0.00,,,0.00,VWS V14.01,2013-01-02 13:15:00,
2013-01-02 07:16:00,12.9,9.8,29.86,SE,136,1.0,6.0,87,0.00,,,0.00,VWS V14.01,2013-01-02 13:16:00,
2013-01-02 07:17:00,12.9,10.0,29.86,SE,136,4.0,6.0,88,0.00,,,0.00,VWS V14.01,2013-01-02 13:17:00,
2013-01-02 07:18:00,12.9,9.8,29.86,SE,136,3.0,6.0,87,0.00,,,0.00,VWS V14.01,2013-01-02 13:18:00,
2013-01-02 07:19:00,12.9,10.0,29.86,SE,132,5.0,6.0,88,0.00,,,0.00,VWS V14.01,2013-01-02 13:19:00,
2013-01-02 07:20:00,13.1,10.2,29.86,SE,133,5.0,6.0,88,0.00,,,0.00,VWS V14.01,2013-01-02 13:20:00,
2013-01-02 07:21:00,13.1,10.0,29.86,SE,132,3.0,6.0,87,0.00,,,0.00,VWS V14.01,2013-01-02 13:21:00,
2013-01-02 07:22:00,13.1,10.0,29.86,SE,132,5.0,6.0,87,0.00,,,0.00,VWS V14.01,2013-01-02 13:22:00,
2013-01-02 07:23:00,13.1,10.2,29.86,SE,132,2.0,6.0,88,0.00,,,0.00,VWS V14.01,2013-01-02 13:23:00,
2013-01-02 07:24:00,13.1,10.2,29.86,SE,127,6.0,6.0,88,0.00,,,0.00,VWS V14.01,2013-01-02 13:24:00,
2013-01-02 07:25:00,13.1,10.2,29.86,SE,129,6.0,8.0,88,0.00,,,0.00,VWS V14.01,2013-01-02 13:25:00,
2013-01-02 07:26:00,13.1,10.0,29.86,SE,132,6.0,8.0,87,0.00,,,0.00,VWS V14.01,2013-01-02 13:26:00,
2013-01-02 07:27:00,13.1,10.0,29.86,SE,125,6.0,8.0,87,0.00,,,0.00,VWS V14.01,2013-01-02 13:27:00,
2013-01-02 07:28:00,13.1,10.0,29.86,SE,132,2.0,8.0,87,0.00,,,0.00,VWS V14.01,2013-01-02 13:28:00,
2013-01-02 07:29:00,13.1,10.0,29.86,SE,134,5.0,8.0,87,0.00,,,0.00,VWS V14.01,2013-01-02 13:29:00,
2013-01-02 07:30:00,13.1,10.2,29.85,SE,136,2.0,8.0,88,0.00,,,0.00,VWS V14.01,2013-01-02 13:30:00,
2013-01-02 07:31:00,13.1,10.2,29.85,SE,136,5.0,7.0,88,0.00,,,0.00,VWS V14.01,2013-01-02 13:31:00,
2013-01-02 07:32:00,13.1,10.2,29.85,SE,136,6.0,7.0,88,0.00,,,0.00,VWS V14.01,2013-01-02 13:32:00,
2013-01-02 07:33:00,13.1,10.2,29.85,SE,134,6.0,7.0,88,0.00,,,0.00,VWS V14.01,2013-01-02 13:33:00,
2013-01-02 07:34:00,13.1,10.2,29.85,SE,133,3.0,7.0,88,0.00,,,0.00,VWS V14.01,2013-01-02 13:34:00,
2013-01-02 07:35:00,13.1,10.2,29.85,SE,132,6.0,7.0,88,0.00,,,0.00,VWS V14.01,2013-01-02 13:35:00,
2013-01-02 07:36:00,13.1,10.2,29.85,SE,130,1.0,7.0,88,0.00,,,0.00,VWS V14.01,2013-01-02 13:36:00,
2013-01-02 07:37:00,13.1,10.2,29.85,SE,143,7.0,7.0,88,0.00,,,0.00,VWS V14.01,2013-01-02 13:37:00,
2013-01-02 07:38:00,13.1,10.0,29.85,SE,139,6.0,8.0,87,0.00,,,0.00,VWS V14.01,2013-01-02 13:38:00,
2013-01-02 07:39:00,13.1,10.2,29.85,SE,130,6.0,8.0,88,0.00,,,0.00,VWS V14.01,2013-01-02 13:39:00,
2013-01-02 07:40:00,13.1,10.0,29.85,ESE,118,5.0,8.0,87,0.00,,,0.00,VWS V14.01,2013-01-02 13:40:00,
2013-01-02 07:41:00,13.1,10.0,29.85,SE,132,8.0,8.0,87,0.00,,,0.00,VWS V14.01,2013-01-02 13:41:00,
2013-01-02 07:42:00,12.9,10.0,29.85,SE,132,4.0,8.0,88,0.00,,,0.00,VWS V14.01,2013-01-02 13:42:00,
2013-01-02 07:43:00,12.9,9.8,29.85,SE,144,6.0,8.0,87,0.00,,,0.00,VWS V14.01,2013-01-02 13:43:00,
2013-01-02 07:44:00,12.9,10.0,29.85,SE,134,6.0,8.0,88,0.00,,,0.00,VWS V14.01,2013-01-02 13:44:00,
2013-01-02 07:45:00,12.9,10.0,29.85,SE,130,6.0,8.0,88,0.00,,,0.00,VWS V14.01,2013-01-02 13:45:00,
2013-01-02 07:46:00,12.9,10.0,29.85,SE,140,7.0,8.0,88,0.00,,,0.00,VWS V14.01,2013-01-02 13:46:00,
2013-01-02 07:47:00,12.9,10.0,29.85,SE,139,3.0,8.0,88,0.00,,,0.00,VWS V14.01,2013-01-02 13:47:00,
2013-01-02 07:48:00,12.9,10.0,29.85,SE,137,5.0,8.0,88,0.00,,,0.00,VWS V14.01,2013-01-02 13:48:00,
2013-01-02 07:49:00,12.9,10.0,29.85,SE,137,6.0,8.0,88,0.00,,,0.00,VWS V14.01,2013-01-02 13:49:00,
2013-01-02 07:50:00,12.9,10.0,29.85,SE,139,6.0,8.0,88,0.00,,,0.00,VWS V14.01,2013-01-02 13:50:00,
2013-01-02 07:51:00,12.9,10.0,29.85,SE,130,5.0,8.0,88,0.00,,,0.00,VWS V14.01,2013-01-02 13:51:00,
2013-01-02 07:52:00,12.9,9.8,29.85,SE,130,5.0,8.0,87,0.00,,,0.00,VWS V14.01,2013-01-02 13:52:00,
2013-01-02 07:53:00,12.9,10.0,29.85,SE,130,3.0,8.0,88,0.00,,,0.00,VWS V14.01,2013-01-02 13:53:00,
2013-01-02 07:54:00,12.9,10.0,29.85,SE,129,5.0,8.0,88,0.00,,,0.00,VWS V14.01,2013-01-02 13:54:00,
2013-01-02 07:55:00,12.9,10.0,29.85,SE,129,5.0,8.0,88,0.00,,,0.00,VWS V14.01,2013-01-02 13:55:00,
2013-01-02 07:56:00,12.9,10.0,29.85,SE,129,3.0,8.0,88,0.00,,,0.00,VWS V14.01,2013-01-02 13:56:00,
2013-01-02 07:57:00,12.9,10.0,29.85,SE,129,5.0,8.0,88,0.00,,,0.00,VWS V14.01,2013-01-02 13:57:00,
2013-01-02 07:58:00,12.9,10.0,29.85,SE,136,5.0,8.0,88,0.00,,,0.00,VWS V14.01,2013-01-02 13:58:00,
2013-01-02 07:59:00,12.9,10.0,29.85,SE,134,7.0,8.0,88,0.00,,,0.00,VWS V14.01,2013-01-02 13:59:00,
2013-01-02 08:00:00,12.9,10.0,29.85,SE,127,4.0,8.0,88,0.00,,,0.00,VWS V14.01,2013-01-02 14:00:00,
2013-01-02 08:01:00,12.9,10.0,29.85,SE,129,6.0,6.0,88,0.00,,,0.00,VWS V14.01,2013-01-02 14:01:00,
2013-01-02 08:02:00,12.9,10.0,29.85,SE,130,6.0,6.0,88,0.00,,,0.00,VWS V14.01,2013-01-02 14:02:00,
2013-01-02 08:03:00,12.9,10.0,29.85,SE,127,6.0,7.0,88,0.00,,,0.00,VWS V14.01,2013-01-02 14:03:00,
2013-01-02 08:04:00,12.9,10.0,29.85,SE,127,3.0,7.0,88,0.00,,,0.00,VWS V14.01,2013-01-02 14:04:00,
2013-01-02 08:05:00,12.9,10.0,29.85,SE,127,4.0,7.0,88,0.00,,,0.00,VWS V14.01,2013-01-02 14:05:00,
2013-01-02 08:06:00,12.9,10.0,29.85,SE,127,5.0,7.0,88,0.00,,,0.00,VWS V14.01,2013-01-02 14:06:00,
2013-01-02 08:07:00,12.9,10.0,29.85,SE,127,3.0,7.0,88,0.00,,,0.00,VWS V14.01,2013-01-02 14:07:00,
2013-01-02 08:08:00,12.9,10.0,29.85,SE,127,4.0,7.0,88,0.00,,,0.00,VWS V14.01,2013-01-02 14:08:00,
2013-01-02 08:09:00,12.9,10.0,29.85,SE,127,4.0,7.0,88,0.00,,,0.00,VWS V14.01,2013-01-02 14:09:00,
2013-01-02 08:10:00,12.9,10.0,29.85,SE,127,3.0,7.0,88,0.00,,,0.00,VWS V14.01,2013-01-02 14:10:00,
2013-01-02 08:11:00,12.9,10.0,29.85,SE,127,2.0,7.0,88,0.00,,,0.00,VWS V14.01,2013-01-02 14:11:00,
2013-01-02 08:12:00,12.9,9.8,29.85,SE,129,2.0,7.0,87,0.00,,,0.00,VWS V14.01,2013-01-02 14:12:00,
2013-01-02 08:13:00,12.9,10.0,29.85,SE,127,3.0,7.0,88,0.00,,,0.00,VWS V14.01,2013-01-02 14:13:00,
2013-01-02 08:14:00,13.1,10.2,29.85,SE,127,1.0,7.0,88,0.00,,,0.00,VWS V14.01,2013-01-02 14:14:00,
2013-01-02 08:15:00,13.1,10.2,29.85,SE,127,1.0,7.0,88,0.00,,,0.00,VWS V14.01,2013-01-02 14:15:00,
2013-01-02 08:16:00,13.1,10.2,29.85,ESE,122,6.0,7.0,88,0.00,,,0.00,VWS V14.01,2013-01-02 14:16:00,
2013-01-02 08:17:00,13.1,10.2,29.85,ESE,123,1.0,7.0,88,0.00,,,0.00,VWS V14.01,2013-01-02 14:17:00,
2013-01-02 08:18:00,13.1,10.2,29.85,SE,125,4.0,7.0,88,0.00,,,0.00,VWS V14.01,2013-01-02 14:18:00,
2013-01-02 08:19:00,13.1,10.2,29.85,SE,125,5.0,7.0,88,0.00,,,0.00,VWS V14.01,2013-01-02 14:19:00,
2013-01-02 08:20:00,13.1,10.2,29.85,ESE,123,3.0,7.0,88,0.00,,,0.00,VWS V14.01,2013-01-02 14:20:00,
2013-01-02 08:21:00,13.1,10.2,29.85,ESE,123,4.0,7.0,88,0.00,,,0.00,VWS V14.01,2013-01-02 14:21:00,
2013-01-02 08:22:00,13.1,10.0,29.85,ESE,123,2.0,7.0,87,0.00,,,0.00,VWS V14.01,2013-01-02 14:22:00,
2013-01-02 08:23:00,13.1,10.0,29.85,SE,126,3.0,8.0,87,0.00,,,0.00,VWS V14.01,2013-01-02 14:23:00,
2013-01-02 08:24:00,13.1,10.0,29.85,ESE,119,2.0,8.0,87,0.00,,,0.00,VWS V14.01,2013-01-02 14:24:00,
2013-01-02 08:25:00,13.1,10.0,29.85,ESE,119,2.0,8.0,87,0.00,,,0.00,VWS V14.01,2013-01-02 14:25:00,
2013-01-02 08:26:00,13.1,10.2,29.85,ESE,119,3.0,8.0,88,0.00,,,0.00,VWS V14.01,2013-01-02 14:26:00,
2013-01-02 08:27:00,13.1,10.2,29.85,ESE,120,0.0,8.0,88,0.00,,,0.00,VWS V14.01,2013-01-02 14:27:00,
2013-01-02 08:28:00,13.1,10.0,29.85,ESE,120,2.0,8.0,87,0.00,,,0.00,VWS V14.01,2013-01-02 14:28:00,
2013-01-02 08:29:00,13.1,10.0,29.85,ESE,120,6.0,8.0,87,0.00,,,0.00,VWS V14.01,2013-01-02 14:29:00,
2013-01-02 08:30:00,13.1,10.0,29.85,ESE,123,5.0,8.0,87,0.00,,,0.00,VWS V14.01,2013-01-02 14:30:00,
2013-01-02 08:31:00,13.1,10.0,29.85,ESE,123,3.0,5.0,87,0.00,,,0.00,VWS V14.01,2013-01-02 14:31:00,
2013-01-02 08:32:00,13.1,10.0,29.85,ESE,123,2.0,5.0,87,0.00,,,0.00,VWS V14.01,2013-01-02 14:32:00,
2013-01-02 08:33:00,13.1,10.0,29.85,SE,126,7.0,7.0,87,0.00,,,0.00,VWS V14.01,2013-01-02 14:33:00,
2013-01-02 08:34:00,13.1,10.2,29.85,ESE,120,6.0,7.0,88,0.00,,,0.00,VWS V14.01,2013-01-02 14:34:00,
2013-01-02 08:35:00,13.1,10.0,29.85,ESE,120,3.0,7.0,87,0.00,,,0.00,VWS V14.01,2013-01-02 14:35:00,
2013-01-02 08:36:00,13.1,10.0,29.85,ESE,120,4.0,7.0,87,0.00,,,0.00,VWS V14.01,2013-01-02 14:36:00,
2013-01-02 08:37:00,13.1,10.2,29.85,ESE,120,3.0,7.0,88,0.00,,,0.00,VWS V14.01,2013-01-02 14:37:00,
2013-01-02 08:38:00,13.1,10.2,29.85,ESE,120,3.0,7.0,88,0.00,,,0.00,VWS V14.01,2013-01-02 14:38:00,
2013-01-02 08:39:00,13.1,10.2,29.85,ESE,120,4.0,7.0,88,0.00,,,0.00,VWS V14.01,2013-01-02 14:39:00,
2013-01-02 08:40:00,13.3,10.4,29.85,ESE,122,5.0,7.0,88,0.00,,,0.00,VWS V14.01,2013-01-02 14:40:00,
2013-01-02 08:41:00,13.3,10.4,29.85,ESE,122,3.0,7.0,88,0.00,,,0.00,VWS V14.01,2013-01-02 14:41:00,
2013-01-02 08:42:00,13.3,10.4,29.85,ESE,122,2.0,7.0,88,0.00,,,0.00,VWS V14.01,2013-01-02 14:42:00,
2013-01-02 08:43:00,13.3,10.4,29.85,SE,129,8.0,8.0,88,0.00,,,0.00,VWS V14.01,2013-01-02 14:43:00,
2013-01-02 08:44:00,13.3,10.4,29.85,SE,140,2.0,9.0,88,0.00,,,0.00,VWS V14.01,2013-01-02 14:44:00,
2013-01-02 08:45:00,13.3,10.4,29.85,SE,134,1.0,9.0,88,0.00,,,0.00,VWS V14.01,2013-01-02 14:45:00,
2013-01-02 08:46:00,13.3,10.2,29.85,SE,134,6.0,9.0,87,0.00,,,0.00,VWS V14.01,2013-01-02 14:46:00,
2013-01-02 08:47:00,13.3,10.4,29.85,SE,134,5.0,9.0,88,0.00,,,0.00,VWS V14.01,2013-01-02 14:47:00,
2013-01-02 08:48:00,13.3,10.2,29.85,SE,134,4.0,9.0,87,0.00,,,0.00,VWS V14.01,2013-01-02 14:48:00,
2013-01-02 08:49:00,13.3,10.4,29.85,SE,134,5.0,9.0,88,0.00,,,0.00,VWS V14.01,2013-01-02 14:49:00,
2013-01-02 08:50:00,13.3,10.4,29.85,SE,133,6.0,9.0,88,0.00,,,0.00,VWS V14.01,2013-01-02 14:50:00,
2013-01-02 08:51:00,13.3,10.4,29.85,SE,133,5.0,9.0,88,0.00,,,0.00,VWS V14.01,2013-01-02 14:51:00,
2013-01-02 08:52:00,13.3,10.4,29.85,SE,130,4.0,9.0,88,0.00,,,0.00,VWS V14.01,2013-01-02 14:52:00,
2013-01-02 08:53:00,13.3,10.4,29.85,SE,130,1.0,9.0,88,0.00,,,0.00,VWS V14.01,2013-01-02 14:53:00,
2013-01-02 08:54:00,13.5,10.6,29.85,SE,132,3.0,9.0,88,0.00,,,0.00,VWS V14.01,2013-01-02 14:54:00,
2013-01-02 08:55:00,13.5,10.6,29.85,SE,130,2.0,9.0,88,0.00,,,0.00,VWS V14.01,2013-01-02 14:55:00,
2013-01-02 08:56:00,13.5,10.6,29.85,SE,129,6.0,9.0,88,0.00,,,0.00,VWS V14.01,2013-01-02 14:56:00,
2013-01-02 08:57:00,13.5,10.6,29.85,SE,127,7.0,9.0,88,0.00,,,0.00,VWS V14.01,2013-01-02 14:57:00,
2013-01-02 08:58:00,13.5,10.6,29.85,SE,129,4.0,9.0,88,0.00,,,0.00,VWS V14.01,2013-01-02 14:58:00,
2013-01-02 08:59:00,13.5,10.6,29.85,SE,129,5.0,9.0,88,0.00,,,0.00,VWS V14.01,2013-01-02 14:59:00,
2013-01-02 09:00:00,13.5,10.6,29.85,SE,129,3.0,9.0,88,0.00,,,0.00,VWS V14.01,2013-01-02 15:00:00,
2013-01-02 09:01:00,13.5,10.6,29.85,SE,129,2.0,2.0,88,0.00,,,0.00,VWS V14.01,2013-01-02 15:01:00,
2013-01-02 09:02:00,13.5,10.6,29.85,SE,129,5.0,7.0,88,0.00,,,0.00,VWS V14.01,2013-01-02 15:02:00,
2013-01-02 09:03:00,13.6,10.7,29.85,SE,136,8.0,8.0,88,0.00,,,0.00,VWS V14.01,2013-01-02 15:03:00,
2013-01-02 09:04:00,13.6,10.7,29.85,SE,144,5.0,8.0,88,0.00,,,0.00,VWS V14.01,2013-01-02 15:04:00,
2013-01-02 09:05:00,13.6,10.7,29.85,SE,142,3.0,8.0,88,0.00,,,0.00,VWS V14.01,2013-01-02 15:05:00,
2013-01-02 09:06:00,13.6,10.7,29.85,SE,143,7.0,8.0,88,0.00,,,0.00,VWS V14.01,2013-01-02 15:06:00,
2013-01-02 09:07:00,13.6,10.7,29.85,SE,137,6.0,8.0,88,0.00,,,0.00,VWS V14.01,2013-01-02 15:07:00,
2013-01-02 09:08:00,13.6,10.7,29.85,SE,137,3.0,8.0,88,0.00,,,0.00,VWS V14.01,2013-01-02 15:08:00,
2013-01-02 09:09:00,13.6,10.7,29.85,SE,136,5.0,8.0,88,0.00,,,0.00,VWS V14.01,2013-01-02 15:09:00,
2013-01-02 09:10:00,13.6,10.7,29.85,SE,133,3.0,8.0,88,0.00,,,0.00,VWS V14.01,2013-01-02 15:10:00,
2013-01-02 09:11:00,13.6,10.7,29.85,SE,139,5.0,8.0,88,0.00,,,0.00,VWS V14.01,2013-01-02 15:11:00,
2013-01-02 09:12:00,13.6,10.7,29.85,SE,139,4.0,8.0,88,0.00,,,0.00,VWS V14.01,2013-01-02 15:12:00,
2013-01-02 09:13:00,13.8,10.9,29.85,SE,137,0.0,8.0,88,0.00,,,0.00,VWS V14.01,2013-01-02 15:13:00,
2013-01-02 09:14:00,13.8,10.9,29.85,SE,136,6.0,8.0,88,0.00,,,0.00,VWS V14.01,2013-01-02 15:14:00,
2013-01-02 09:15:00,13.8,10.9,29.86,SE,136,2.0,8.0,88,0.00,,,0.00,VWS V14.01,2013-01-02 15:15:00,
2013-01-02 09:16:00,13.8,10.9,29.86,SE,132,6.0,8.0,88,0.00,,,0.00,VWS V14.01,2013-01-02 15:16:00,
2013-01-02 09:17:00,13.8,10.9,29.86,SE,130,5.0,8.0,88,0.00,,,0.00,VWS V14.01,2013-01-02 15:17:00,
2013-01-02 09:18:00,13.8,10.9,29.86,SE,129,5.0,8.0,88,0.00,,,0.00,VWS V14.01,2013-01-02 15:18:00,
2013-01-02 09:19:00,13.8,10.9,29.86,SE,129,3.0,8.0,88,0.00,,,0.00,VWS V14.01,2013-01-02 15:19:00,
2013-01-02 09:20:00,13.8,10.9,29.86,SE,129,1.0,8.0,88,0.00,,,0.00,VWS V14.01,2013-01-02 15:20:00,
2013-01-02 09:21:00,13.8,10.9,29.86,SE,129,0.0,8.0,88,0.00,,,0.00,VWS V14.01,2013-01-02 15:21:00,
2013-01-02 09:22:00,13.8,10.9,29.86,SE,129,0.0,8.0,88,0.00,,,0.00,VWS V14.01,2013-01-02 15:22:00,
2013-01-02 09:23:00,13.8,10.9,29.86,SE,129,5.0,8.0,88,0.00,,,0.00,VWS V14.01,2013-01-02 15:23:00,
2013-01-02 09:24:00,13.8,10.9,29.86,SE,146,4.0,8.0,88,0.00,,,0.00,VWS V14.01,2013-01-02 15:24:00,
2013-01-02 09:25:00,14.0,11.1,29.86,SE,146,1.0,8.0,88,0.00,,,0.00,VWS V14.01,2013-01-02 15:25:00,
2013-01-02 09:26:00,14.0,11.1,29.86,SE,146,0.0,8.0,88,0.00,,,0.00,VWS V14.01,2013-01-02 15:26:00,
2013-01-02 09:27:00,14.0,11.1,29.86,SE,146,0.0,8.0,88,0.00,,,0.00,VWS V14.01,2013-01-02 15:27:00,
2013-01-02 09:28:00,14.0,11.1,29.86,SE,146,0.0,8.0,88,0.00,,,0.00,VWS V14.01,2013-01-02 15:28:00,
2013-01-02 09:29:00,14.0,11.1,29.86,SE,146,0.0,8.0,88,0.00,,,0.00,VWS V14.01,2013-01-02 15:29:00,
2013-01-02 09:30:00,14.0,11.1,29.86,SE,146,0.0,8.0,88,0.00,,,0.00,VWS V14.01,2013-01-02 15:30:00,
2013-01-02 09:31:00,14.0,11.1,29.86,SE,144,3.0,5.0,88,0.00,,,0.00,VWS V14.01,2013-01-02 15:31:00,
2013-01-02 09:32:00,14.0,11.1,29.86,SE,144,2.0,6.0,88,0.00,,,0.00,VWS V14.01,2013-01-02 15:32:00,
2013-01-02 09:33:00,14.0,11.1,29.86,SE,144,0.0,6.0,88,0.00,,,0.00,VWS V14.01,2013-01-02 15:33:00,
2013-01-02 09:34:00,14.0,11.1,29.86,SE,136,5.0,6.0,88,0.00,,,0.00,VWS V14.01,2013-01-02 15:34:00,
2013-01-02 09:35:00,14.1,11.2,29.86,SE,132,3.0,6.0,88,0.00,,,0.00,VWS V14.01,2013-01-02 15:35:00,
2013-01-02 09:36:00,14.1,11.2,29.86,SE,133,0.0,6.0,88,0.00,,,0.00,VWS V14.01,2013-01-02 15:36:00,
2013-01-02 09:37:00,14.1,11.2,29.86,SE,133,1.0,6.0,88,0.00,,,0.00,VWS V14.01,2013-01-02 15:37:00,
2013-01-02 09:38:00,14.1,11.2,29.86,SE,134,0.0,6.0,88,0.00,,,0.00,VWS V14.01,2013-01-02 15:38:00,
2013-01-02 09:39:00,14.1,11.2,29.86,SW,223,0.0,6.0,88,0.00,,,0.00,VWS V14.01,2013-01-02 15:39:00,
2013-01-02 09:40:00,14.1,11.2,29.86,SW,223,0.0,6.0,88,0.00,,,0.00,VWS V14.01,2013-01-02 15:40:00,
2013-01-02 09:41:00,14.1,11.2,29.86,SSW,211,2.0,6.0,88,0.00,,,0.00,VWS V14.01,2013-01-02 15:41:00,
2013-01-02 09:42:00,14.1,11.2,29.86,SSE,149,2.0,7.0,88,0.00,,,0.00,VWS V14.01,2013-01-02 15:42:00,
2013-01-02 09:43:00,14.1,11.2,29.86,SSE,147,1.0,7.0,88,0.00,,,0.00,VWS V14.01,2013-01-02 15:43:00,
2013-01-02 09:44:00,14.1,11.2,29.86,SSE,147,0.0,7.0,88,0.00,,,0.00,VWS V14.01,2013-01-02 15:44:00,
2013-01-02 09:45:00,14.1,11.2,29.86,SSE,147,0.0,7.0,88,0.00,,,0.00,VWS V14.01,2013-01-02 15:45:00,
2013-01-02 09:46:00,14.3,11.4,29.86,SSE,147,0.0,7.0,88,0.00,,,0.00,VWS V14.01,2013-01-02 15:46:00,
2013-01-02 09:47:00,14.3,11.4,29.86,SSE,147,4.0,7.0,88,0.00,,,0.00,VWS V14.01,2013-01-02 15:47:00,
2013-01-02 09:48:00,14.3,11.4,29.86,SE,146,6.0,7.0,88,0.00,,,0.00,VWS V14.01,2013-01-02 15:48:00,
2013-01-02 09:49:00,14.1,11.2,29.86,SE,146,0.0,7.0,88,0.00,,,0.00,VWS V14.01,2013-01-02 15:49:00,
2013-01-02 09:50:00,14.3,11.4,29.86,SE,146,0.0,7.0,88,0.00,,,0.00,VWS V14.01,2013-01-02 15:50:00,
2013-01-02 09:51:00,14.3,11.4,29.86,SE,146,4.0,7.0,88,0.00,,,0.00,VWS V14.01,2013-01-02 15:51:00,
2013-01-02 09:52:00,14.3,11.4,29.86,SE,146,0.0,7.0,88,0.00,,,0.00,VWS V14.01,2013-01-02 15:52:00,
2013-01-02 09:53:00,14.3,11.4,29.86,SE,146,0.0,7.0,88,0.00,,,0.00,VWS V14.01,2013-01-02 15:53:00,
2013-01-02 09:54:00,14.3,11.4,29.86,SE,146,0.0,7.0,88,0.00,,,0.00,VWS V14.01,2013-01-02 15:54:00,
2013-01-02 09:55:00,14.3,11.4,29.86,SE,146,0.0,7.0,88,0.00,,,0.00,VWS V14.01,2013-01-02 15:55:00,
2013-01-02 09:56:00,14.4,11.5,29.86,SE,146,0.0,7.0,88,0.00,,,0.00,VWS V14.01,2013-01-02 15:56:00,
2013-01-02 09:57:00,14.4,11.5,29.86,SW,214,0.0,7.0,88,0.00,,,0.00,VWS V14.01,2013-01-02 15:57:00,
2013-01-02 09:58:00,14.4,11.5,29.86,SW,215,2.0,7.0,88,0.00,,,0.00,VWS V14.01,2013-01-02 15:58:00,
2013-01-02 09:59:00,14.3,11.4,29.86,SSE,149,4.0,7.0,88,0.00,,,0.00,VWS V14.01,2013-01-02 15:59:00,
2013-01-02 10:00:00,14.3,11.4,29.86,SE,140,6.0,7.0,88,0.00,,,0.00,VWS V14.01,2013-01-02 16:00:00,
2013-01-02 10:01:00,14.3,11.4,29.86,SE,140,1.0,6.0,88,0.00,,,0.00,VWS V14.01,2013-01-02 16:01:00,
2013-01-02 10:02:00,14.3,11.4,29.86,SE,140,0.0,6.0,88,0.00,,,0.00,VWS V14.01,2013-01-02 16:02:00,
2013-01-02 10:03:00,14.3,11.4,29.86,SE,140,0.0,6.0,88,0.00,,,0.00,VWS V14.01,2013-01-02 16:03:00,
2013-01-02 10:04:00,14.3,11.4,29.86,SE,137,1.0,6.0,88,0.00,,,0.00,VWS V14.01,2013-01-02 16:04:00,
2013-01-02 10:05:00,14.4,11.5,29.86,SE,136,1.0,6.0,88,0.00,,,0.00,VWS V14.01,2013-01-02 16:05:00,
2013-01-02 10:06:00,14.4,11.5,29.86,SE,134,2.0,6.0,88,0.00,,,0.00,VWS V14.01,2013-01-02 16:06:00,
2013-01-02 10:07:00,14.4,11.5,29.86,SE,134,0.0,6.0,88,0.00,,,0.00,VWS V14.01,2013-01-02 16:07:00,
2013-01-02 10:08:00,14.4,11.5,29.86,SE,144,4.0,6.0,88,0.00,,,0.00,VWS V14.01,2013-01-02 16:08:00,
2013-01-02 10:09:00,14.4,11.5,29.86,SE,140,0.0,6.0,88,0.00,,,0.00,VWS V14.01,2013-01-02 16:09:00,
2013-01-02 10:10:00,14.4,11.5,29.86,SSE,163,3.0,6.0,88,0.00,,,0.00,VWS V14.01,2013-01-02 16:10:00,
2013-01-02 10:11:00,14.4,11.5,29.86,SSE,166,0.0,6.0,88,0.00,,,0.00,VWS V14.01,2013-01-02 16:11:00,
2013-01-02 10:12:00,14.4,11.5,29.86,SW,222,0.0,6.0,88,0.00,,,0.00,VWS V14.01,2013-01-02 16:12:00,
2013-01-02 10:13:00,14.4,11.5,29.86,SW,221,0.0,6.0,88,0.00,,,0.00,VWS V14.01,2013-01-02 16:13:00,
2013-01-02 10:14:00,14.4,11.5,29.86,SW,222,0.0,6.0,88,0.00,,,0.00,VWS V14.01,2013-01-02 16:14:00,
2013-01-02 10:15:00,14.4,11.5,29.86,SSW,208,5.0,6.0,88,0.00,,,0.00,VWS V14.01,2013-01-02 16:15:00,
2013-01-02 10:16:00,14.4,11.5,29.86,SE,139,3.0,6.0,88,0.00,,,0.00,VWS V14.01,2013-01-02 16:16:00,
2013-01-02 10:17:00,14.4,11.5,29.86,SE,139,2.0,6.0,88,0.00,,,0.00,VWS V14.01,2013-01-02 16:17:00,
2013-01-02 10:18:00,14.4,11.5,29.86,SE,139,2.0,6.0,88,0.00,,,0.00,VWS V14.01,2013-01-02 16:18:00,
2013-01-02 10:19:00,14.4,11.5,29.86,SE,139,0.0,6.0,88,0.00,,,0.00,VWS V14.01,2013-01-02 16:19:00,
2013-01-02 10:20:00,14.6,11.7,29.86,SE,139,0.0,6.0,88,0.00,,,0.00,VWS V14.01,2013-01-02 16:20:00,
2013-01-02 10:21:00,14.6,11.7,29.86,SE,139,0.0,6.0,88,0.00,,,0.00,VWS V14.01,2013-01-02 16:21:00,
2013-01-02 10:22:00,14.6,11.7,29.86,SE,139,0.0,6.0,88,0.00,,,0.00,VWS V14.01,2013-01-02 16:22:00,
2013-01-02 10:23:00,14.6,11.7,29.86,SE,139,0.0,6.0,88,0.00,,,0.00,VWS V14.01,2013-01-02 16:23:00,
2013-01-02 10:24:00,14.8,11.9,29.86,SE,139,0.0,6.0,88,0.00,,,0.00,VWS V14.01,2013-01-02 16:24:00,
2013-01-02 10:25:00,14.8,11.9,29.86,SE,139,0.0,6.0,88,0.00,,,0.00,VWS V14.01,2013-01-02 16:25:00,
2013-01-02 10:26:00,14.8,11.9,29.86,SE,139,1.0,6.0,88,0.00,,,0.00,VWS V14.01,2013-01-02 16:26:00,
2013-01-02 10:27:00,14.8,11.9,29.86,SE,140,0.0,6.0,88,0.00,,,0.00,VWS V14.01,2013-01-02 16:27:00,
2013-01-02 10:28:00,14.8,11.9,29.86,SE,143,0.0,6.0,88,0.00,,,0.00,VWS V14.01,2013-01-02 16:28:00,
2013-01-02 10:29:00,14.8,11.9,29.86,SE,143,2.0,6.0,88,0.00,,,0.00,VWS V14.01,2013-01-02 16:29:00,
2013-01-02 10:30:00,14.8,11.9,29.85,SE,143,1.0,6.0,88,0.00,,,0.00,VWS V14.01,2013-01-02 16:30:00,
2013-01-02 10:31:00,14.8,11.9,29.85,SE,143,1.0,3.0,88,0.00,,,0.00,VWS V14.01,2013-01-02 16:31:00,
2013-01-02 10:32:00,14.9,12.0,29.85,SE,143,0.0,3.0,88,0.00,,,0.00,VWS V14.01,2013-01-02 16:32:00,
2013-01-02 10:33:00,14.9,12.0,29.85,SE,143,1.0,3.0,88,0.00,,,0.00,VWS V14.01,2013-01-02 16:33:00,
2013-01-02 10:34:00,14.9,12.0,29.85,SE,143,0.0,3.0,88,0.00,,,0.00,VWS V14.01,2013-01-02 16:34:00,
2013-01-02 10:35:00,14.9,12.0,29.85,SE,143,0.0,3.0,88,0.00,,,0.00,VWS V14.01,2013-01-02 16:35:00,
2013-01-02 10:36:00,14.8,11.9,29.85,South,173,0.0,5.0,88,0.00,,,0.00,VWS V14.01,2013-01-02 16:36:00,
2013-01-02 10:37:00,14.8,11.9,29.85,South,173,2.0,5.0,88,0.00,,,0.00,VWS V14.01,2013-01-02 16:37:00,
2013-01-02 10:38:00,14.8,11.9,29.85,South,173,3.0,5.0,88,0.00,,,0.00,VWS V14.01,2013-01-02 16:38:00,
2013-01-02 10:39:00,14.8,11.9,29.85,South,173,0.0,5.0,88,0.00,,,0.00,VWS V14.01,2013-01-02 16:39:00,
2013-01-02 10:40:00,14.9,12.0,29.85,South,173,0.0,5.0,88,0.00,,,0.00,VWS V14.01,2013-01-02 16:40:00,
2013-01-02 10:41:00,14.9,12.0,29.85,South,173,0.0,5.0,88,0.00,,,0.00,VWS V14.01,2013-01-02 16:41:00,
2013-01-02 10:42:00,14.9,12.0,29.85,South,173,0.0,5.0,88,0.00,,,0.00,VWS V14.01,2013-01-02 16:42:00,
2013-01-02 10:43:00,14.9,12.0,29.85,South,173,0.0,5.0,88,0.00,,,0.00,VWS V14.01,2013-01-02 16:43:00,
2013-01-02 10:44:00,14.9,12.0,29.85,South,173,0.0,5.0,88,0.00,,,0.00,VWS V14.01,2013-01-02 16:44:00,
2013-01-02 10:45:00,15.1,12.2,29.85,South,173,0.0,5.0,88,0.00,,,0.00,VWS V14.01,2013-01-02 16:45:00,
2013-01-02 10:46:00,15.1,12.2,29.85,South,173,0.0,5.0,88,0.00,,,0.00,VWS V14.01,2013-01-02 16:46:00,
2013-01-02 10:47:00,15.1,12.2,29.85,South,173,0.0,5.0,88,0.00,,,0.00,VWS V14.01,2013-01-02 16:47:00,
2013-01-02 10:48:00,15.1,12.2,29.85,South,173,0.0,5.0,88,0.00,,,0.00,VWS V14.01,2013-01-02 16:48:00,
2013-01-02 10:49:00,15.1,12.2,29.85,South,173,0.0,5.0,88,0.00,,,0.00,VWS V14.01,2013-01-02 16:49:00,
2013-01-02 10:50:00,15.2,12.3,29.85,SE,136,2.0,6.0,88,0.00,,,0.00,VWS V14.01,2013-01-02 16:50:00,
2013-01-02 10:51:00,15.1,12.2,29.85,SE,136,3.0,6.0,88,0.00,,,0.00,VWS V14.01,2013-01-02 16:51:00,
2013-01-02 10:52:00,15.1,12.2,29.85,SE,136,4.0,6.0,88,0.00,,,0.00,VWS V14.01,2013-01-02 16:52:00,
2013-01-02 10:53:00,15.1,12.2,29.85,SE,136,2.0,6.0,88,0.00,,,0.00,VWS V14.01,2013-01-02 16:53:00,
2013-01-02 10:54:00,15.1,12.2,29.85,SE,136,3.0,6.0,88,0.00,,,0.00,VWS V14.01,2013-01-02 16:54:00,
2013-01-02 10:55:00,15.1,12.2,29.85,SE,136,2.0,6.0,88,0.00,,,0.00,VWS V14.01,2013-01-02 16:55:00,
2013-01-02 10:56:00,15.1,12.2,29.85,SE,136,0.0,6.0,88,0.00,,,0.00,VWS V14.01,2013-01-02 16:56:00,
2013-01-02 10:57:00,15.1,12.2,29.85,SE,136,1.0,6.0,88,0.00,,,0.00,VWS V14.01,2013-01-02 16:57:00,
2013-01-02 10:58:00,14.9,12.0,29.85,SE,136,0.0,6.0,88,0.00,,,0.00,VWS V14.01,2013-01-02 16:58:00,
2013-01-02 10:59:00,14.9,12.0,29.85,SE,136,2.0,6.0,88,0.00,,,0.00,VWS V14.01,2013-01-02 16:59:00,
2013-01-02 11:00:00,14.9,12.0,29.84,SE,136,5.0,6.0,88,0.00,,,0.00,VWS V14.01,2013-01-02 17:00:00,
2013-01-02 11:01:00,14.9,12.0,29.84,SE,133,5.0,6.0,88,0.00,,,0.00,VWS V14.01,2013-01-02 17:01:00,
2013-01-02 11:02:00,14.9,12.0,29.84,SE,133,2.0,6.0,88,0.00,,,0.00,VWS V14.01,2013-01-02 17:02:00,
2013-01-02 11:03:00,14.9,12.0,29.84,SE,133,0.0,6.0,88,0.00,,,0.00,VWS V14.01,2013-01-02 17:03:00,
2013-01-02 11:04:00,14.9,12.0,29.84,SE,133,0.0,6.0,88,0.00,,,0.00,VWS V14.01,2013-01-02 17:04:00,
2013-01-02 11:05:00,14.9,12.0,29.84,SE,133,3.0,6.0,88,0.00,,,0.00,VWS V14.01,2013-01-02 17:05:00,
2013-01-02 11:06:00,14.9,12.0,29.84,SE,133,5.0,6.0,88,0.00,,,0.00,VWS V14.01,2013-01-02 17:06:00,
2013-01-02 11:07:00,14.9,12.0,29.84,SE,129,6.0,6.0,88,0.00,,,0.00,VWS V14.01,2013-01-02 17:07:00,
2013-01-02 11:08:00,14.9,12.0,29.84,SE,126,5.0,7.0,88,0.00,,,0.00,VWS V14.01,2013-01-02 17:08:00,
2013-01-02 11:09:00,14.9,12.0,29.84,SE,125,3.0,7.0,88,0.00,,,0.00,VWS V14.01,2013-01-02 17:09:00,
2013-01-02 11:10:00,14.9,12.0,29.84,SE,125,4.0,7.0,88,0.00,,,0.00,VWS V14.01,2013-01-02 17:10:00,
2013-01-02 11:11:00,14.9,12.0,29.84,SE,125,0.0,7.0,88,0.00,,,0.00,VWS V14.01,2013-01-02 17:11:00,
2013-01-02 11:12:00,14.9,12.0,29.84,ESE,123,6.0,7.0,88,0.00,,,0.00,VWS V14.01,2013-01-02 17:12:00,
2013-01-02 11:13:00,14.9,12.0,29.84,SE,125,4.0,7.0,88,0.00,,,0.00,VWS V14.01,2013-01-02 17:13:00,
2013-01-02 11:14:00,14.9,12.0,29.84,ESE,119,2.0,8.0,88,0.00,,,0.00,VWS V14.01,2013-01-02 17:14:00,
2013-01-02 11:15:00,14.9,12.0,29.83,ESE,119,5.0,8.0,88,0.00,,,0.00,VWS V14.01,2013-01-02 17:15:00,
2013-01-02 11:16:00,14.9,12.0,29.83,ESE,119,0.0,8.0,88,0.00,,,0.00,VWS V14.01,2013-01-02 17:16:00,
2013-01-02 11:17:00,15.1,12.2,29.83,ESE,119,0.0,8.0,88,0.00,,,0.00,VWS V14.01,2013-01-02 17:17:00,
2013-01-02 11:18:00,15.1,12.4,29.83,ESE,119,0.0,8.0,89,0.00,,,0.00,VWS V14.01,2013-01-02 17:18:00,
2013-01-02 11:19:00,15.1,12.2,29.83,ESE,119,0.0,8.0,88,0.00,,,0.00,VWS V14.01,2013-01-02 17:19:00,
2013-01-02 11:20:00,15.2,12.6,29.83,ESE,120,3.0,8.0,89,0.00,,,0.00,VWS V14.01,2013-01-02 17:20:00,
2013-01-02 11:21:00,15.2,12.6,29.83,ESE,120,3.0,8.0,89,0.00,,,0.00,VWS V14.01,2013-01-02 17:21:00,
2013-01-02 11:22:00,15.1,12.2,29.83,ESE,120,4.0,8.0,88,0.00,,,0.00,VWS V14.01,2013-01-02 17:22:00,
2013-01-02 11:23:00,15.1,12.2,29.83,ESE,120,2.0,8.0,88,0.00,,,0.00,VWS V14.01,2013-01-02 17:23:00,
2013-01-02 11:24:00,15.1,12.2,29.83,ESE,120,2.0,8.0,88,0.00,,,0.00,VWS V14.01,2013-01-02 17:24:00,
2013-01-02 11:25:00,14.9,12.0,29.83,ESE,120,1.0,8.0,88,0.00,,,0.00,VWS V14.01,2013-01-02 17:25:00,
2013-01-02 11:26:00,15.1,12.2,29.83,ESE,120,0.0,8.0,88,0.00,,,0.00,VWS V14.01,2013-01-02 17:26:00,
2013-01-02 11:27:00,15.1,12.2,29.83,ESE,120,0.0,8.0,88,0.00,,,0.00,VWS V14.01,2013-01-02 17:27:00,
2013-01-02 11:28:00,15.1,12.2,29.83,ESE,120,0.0,8.0,88,0.00,,,0.00,VWS V14.01,2013-01-02 17:28:00,
2013-01-02 11:29:00,15.1,12.2,29.83,ESE,120,0.0,8.0,88,0.00,,,0.00,VWS V14.01,2013-01-02 17:29:00,
2013-01-02 11:30:00,15.2,12.6,29.83,ESE,120,5.0,8.0,89,0.00,,,0.00,VWS V14.01,2013-01-02 17:30:00,
2013-01-02 11:31:00,15.2,12.6,29.83,ESE,120,2.0,5.0,89,0.00,,,0.00,VWS V14.01,2013-01-02 17:31:00,
2013-01-02 11:32:00,15.2,12.6,29.83,ESE,120,0.0,5.0,89,0.00,,,0.00,VWS V14.01,2013-01-02 17:32:00,
2013-01-02 11:33:00,15.2,12.6,29.83,ESE,123,1.0,5.0,89,0.00,,,0.00,VWS V14.01,2013-01-02 17:33:00,
2013-01-02 11:34:00,15.4,12.7,29.83,ESE,123,0.0,5.0,89,0.00,,,0.00,VWS V14.01,2013-01-02 17:34:00,
2013-01-02 11:35:00,15.4,12.5,29.83,ESE,123,1.0,5.0,88,0.00,,,0.00,VWS V14.01,2013-01-02 17:35:00,
2013-01-02 11:36:00,15.4,12.5,29.83,ESE,123,0.0,5.0,88,0.00,,,0.00,VWS V14.01,2013-01-02 17:36:00,
2013-01-02 11:37:00,15.4,12.5,29.83,ESE,123,0.0,5.0,88,0.00,,,0.00,VWS V14.01,2013-01-02 17:37:00,
2013-01-02 11:38:00,15.4,12.5,29.83,ESE,123,0.0,5.0,88,0.00,,,0.00,VWS V14.01,2013-01-02 17:38:00,
2013-01-02 11:39:00,15.4,12.5,29.83,ESE,123,0.0,5.0,88,0.00,,,0.00,VWS V14.01,2013-01-02 17:39:00,
2013-01-02 11:40:00,15.4,12.5,29.83,ESE,123,2.0,5.0,88,0.00,,,0.00,VWS V14.01,2013-01-02 17:40:00,
2013-01-02 11:41:00,15.4,12.5,29.83,ESE,123,0.0,5.0,88,0.00,,,0.00,VWS V14.01,2013-01-02 17:41:00,
2013-01-02 11:42:00,15.4,12.5,29.83,ESE,123,0.0,5.0,88,0.00,,,0.00,VWS V14.01,2013-01-02 17:42:00,
2013-01-02 11:43:00,15.4,12.5,29.83,ESE,123,4.0,5.0,88,0.00,,,0.00,VWS V14.01,2013-01-02 17:43:00,
2013-01-02 11:44:00,15.4,12.5,29.83,ESE,123,2.0,5.0,88,0.00,,,0.00,VWS V14.01,2013-01-02 17:44:00,
2013-01-02 11:45:00,15.4,12.5,29.83,ESE,123,0.0,5.0,88,0.00,,,0.00,VWS V14.01,2013-01-02 17:45:00,
2013-01-02 11:46:00,15.4,12.5,29.83,ESE,123,0.0,5.0,88,0.00,,,0.00,VWS V14.01,2013-01-02 17:46:00,
2013-01-02 11:47:00,15.4,12.5,29.83,ESE,123,0.0,5.0,88,0.00,,,0.00,VWS V14.01,2013-01-02 17:47:00,
2013-01-02 11:48:00,15.4,12.5,29.83,ESE,123,0.0,5.0,88,0.00,,,0.00,VWS V14.01,2013-01-02 17:48:00,
2013-01-02 11:49:00,15.4,12.5,29.83,ESE,123,3.0,5.0,88,0.00,,,0.00,VWS V14.01,2013-01-02 17:49:00,
2013-01-02 11:50:00,15.4,12.5,29.83,ESE,123,1.0,5.0,88,0.00,,,0.00,VWS V14.01,2013-01-02 17:50:00,
2013-01-02 11:51:00,15.4,12.5,29.83,ESE,122,0.0,5.0,88,0.00,,,0.00,VWS V14.01,2013-01-02 17:51:00,
2013-01-02 11:52:00,15.4,12.5,29.83,ESE,122,0.0,5.0,88,0.00,,,0.00,VWS V14.01,2013-01-02 17:52:00,
2013-01-02 11:53:00,15.4,12.5,29.83,ESE,122,0.0,5.0,88,0.00,,,0.00,VWS V14.01,2013-01-02 17:53:00,
2013-01-02 11:54:00,15.4,12.7,29.83,ESE,122,2.0,5.0,89,0.00,,,0.00,VWS V14.01,2013-01-02 17:54:00,
2013-01-02 11:55:00,15.4,12.7,29.83,ESE,122,0.0,5.0,89,0.00,,,0.00,VWS V14.01,2013-01-02 17:55:00,
2013-01-02 11:56:00,15.6,12.9,29.83,ESE,123,1.0,5.0,89,0.00,,,0.00,VWS V14.01,2013-01-02 17:56:00,
2013-01-02 11:57:00,15.6,12.9,29.83,ESE,123,0.0,5.0,89,0.00,,,0.00,VWS V14.01,2013-01-02 17:57:00,
2013-01-02 11:58:00,15.6,12.9,29.83,ESE,123,1.0,5.0,89,0.00,,,0.00,VWS V14.01,2013-01-02 17:58:00,
2013-01-02 11:59:00,15.6,12.9,29.83,ESE,123,0.0,5.0,89,0.00,,,0.00,VWS V14.01,2013-01-02 17:59:00,
2013-01-02 12:00:00,15.6,12.7,29.83,ESE,123,0.0,5.0,88,0.00,,,0.00,VWS V14.01,2013-01-02 18:00:00,
2013-01-02 12:01:00,15.6,12.9,29.83,ESE,123,0.0,1.0,89,0.00,,,0.00,VWS V14.01,2013-01-02 18:01:00,
2013-01-02 12:02:00,15.6,12.9,29.83,ESE,119,5.0,6.0,89,0.00,,,0.00,VWS V14.01,2013-01-02 18:02:00,
2013-01-02 12:03:00,15.6,12.7,29.83,ESE,122,6.0,6.0,88,0.00,,,0.00,VWS V14.01,2013-01-02 18:03:00,
2013-01-02 12:04:00,15.6,12.7,29.83,ESE,122,0.0,6.0,88,0.00,,,0.00,VWS V14.01,2013-01-02 18:04:00,
2013-01-02 12:05:00,15.6,12.7,29.83,ESE,122,0.0,6.0,88,0.00,,,0.00,VWS V14.01,2013-01-02 18:05:00,
2013-01-02 12:06:00,15.6,12.7,29.83,ESE,122,1.0,6.0,88,0.00,,,0.00,VWS V14.01,2013-01-02 18:06:00,
2013-01-02 12:07:00,15.6,12.7,29.83,ESE,122,0.0,6.0,88,0.00,,,0.00,VWS V14.01,2013-01-02 18:07:00,
2013-01-02 12:08:00,15.6,12.7,29.83,ESE,122,3.0,6.0,88,0.00,,,0.00,VWS V14.01,2013-01-02 18:08:00,
2013-01-02 12:09:00,15.6,12.7,29.83,ESE,122,0.0,6.0,88,0.00,,,0.00,VWS V14.01,2013-01-02 18:09:00,
2013-01-02 12:10:00,15.6,12.7,29.83,ESE,122,0.0,6.0,88,0.00,,,0.00,VWS V14.01,2013-01-02 18:10:00,
2013-01-02 12:11:00,15.6,12.9,29.83,ESE,122,1.0,6.0,89,0.00,,,0.00,VWS V14.01,2013-01-02 18:11:00,
2013-01-02 12:12:00,15.6,12.9,29.83,ESE,122,0.0,6.0,89,0.00,,,0.00,VWS V14.01,2013-01-02 18:12:00,
2013-01-02 12:13:00,15.6,12.9,29.83,ESE,122,3.0,6.0,89,0.00,,,0.00,VWS V14.01,2013-01-02 18:13:00,
2013-01-02 12:14:00,15.7,13.0,29.83,ESE,122,0.0,6.0,89,0.00,,,0.00,VWS V14.01,2013-01-02 18:14:00,
2013-01-02 12:15:00,15.7,13.0,29.83,ESE,122,1.0,6.0,89,0.00,,,0.00,VWS V14.01,2013-01-02 18:15:00,
2013-01-02 12:16:00,15.7,13.0,29.83,ESE,122,0.0,6.0,89,0.00,,,0.00,VWS V14.01,2013-01-02 18:16:00,
2013-01-02 12:17:00,15.7,13.0,29.83,ESE,122,5.0,6.0,89,0.00,,,0.00,VWS V14.01,2013-01-02 18:17:00,
2013-01-02 12:18:00,15.7,12.8,29.83,ESE,122,0.0,6.0,88,0.00,,,0.00,VWS V14.01,2013-01-02 18:18:00,
2013-01-02 12:19:00,15.7,12.8,29.83,ESE,122,0.0,6.0,88,0.00,,,0.00,VWS V14.01,2013-01-02 18:19:00,
2013-01-02 12:20:00,15.7,12.8,29.83,ESE,122,0.0,6.0,88,0.00,,,0.00,VWS V14.01,2013-01-02 18:20:00,
2013-01-02 12:21:00,15.7,13.0,29.83,ESE,122,3.0,6.0,89,0.00,,,0.00,VWS V14.01,2013-01-02 18:21:00,
2013-01-02 12:22:00,15.7,13.0,29.83,ESE,122,0.0,6.0,89,0.00,,,0.00,VWS V14.01,2013-01-02 18:22:00,
2013-01-02 12:23:00,15.7,13.0,29.83,ESE,122,0.0,6.0,89,0.00,,,0.00,VWS V14.01,2013-01-02 18:23:00,
2013-01-02 12:24:00,15.7,12.8,29.83,ESE,123,0.0,6.0,88,0.00,,,0.00,VWS V14.01,2013-01-02 18:24:00,
2013-01-02 12:25:00,15.7,12.8,29.83,SE,129,1.0,6.0,88,0.00,,,0.00,VWS V14.01,2013-01-02 18:25:00,
2013-01-02 12:26:00,15.7,12.8,29.83,SE,129,0.0,6.0,88,0.00,,,0.00,VWS V14.01,2013-01-02 18:26:00,
2013-01-02 12:27:00,15.7,12.8,29.83,SE,129,0.0,6.0,88,0.00,,,0.00,VWS V14.01,2013-01-02 18:27:00,
2013-01-02 12:28:00,15.7,12.8,29.83,SE,129,0.0,6.0,88,0.00,,,0.00,VWS V14.01,2013-01-02 18:28:00,
2013-01-02 12:29:00,15.7,12.8,29.83,SE,129,0.0,6.0,88,0.00,,,0.00,VWS V14.01,2013-01-02 18:29:00,
2013-01-02 12:30:00,15.6,12.7,29.83,SE,129,6.0,6.0,88,0.00,,,0.00,VWS V14.01,2013-01-02 18:30:00,
2013-01-02 12:31:00,15.6,12.7,29.83,SE,129,0.0,5.0,88,0.00,,,0.00,VWS V14.01,2013-01-02 18:31:00,
2013-01-02 12:32:00,15.6,12.7,29.83,SE,129,3.0,5.0,88,0.00,,,0.00,VWS V14.01,2013-01-02 18:32:00,
2013-01-02 12:33:00,15.6,12.7,29.83,SE,129,0.0,5.0,88,0.00,,,0.00,VWS V14.01,2013-01-02 18:33:00,
2013-01-02 12:34:00,15.6,12.7,29.83,SE,129,3.0,5.0,88,0.00,,,0.00,VWS V14.01,2013-01-02 18:34:00,
2013-01-02 12:35:00,15.6,12.7,29.83,SE,129,0.0,5.0,88,0.00,,,0.00,VWS V14.01,2013-01-02 18:35:00,
2013-01-02 12:36:00,15.6,12.7,29.83,SE,129,1.0,5.0,88,0.00,,,0.00,VWS V14.01,2013-01-02 18:36:00,
2013-01-02 12:37:00,15.6,12.7,29.83,SE,129,4.0,5.0,88,0.00,,,0.00,VWS V14.01,2013-01-02 18:37:00,
2013-01-02 12:38:00,15.4,12.5,29.83,SE,129,3.0,5.0,88,0.00,,,0.00,VWS V14.01,2013-01-02 18:38:00,
2013-01-02 12:39:00,15.4,12.5,29.83,SE,129,4.0,6.0,88,0.00,,,0.00,VWS V14.01,2013-01-02 18:39:00,
2013-01-02 12:40:00,15.2,12.3,29.83,SE,129,5.0,6.0,88,0.00,,,0.00,VWS V14.01,2013-01-02 18:40:00,
2013-01-02 12:41:00,15.2,12.3,29.83,SE,129,1.0,6.0,88,0.00,,,0.00,VWS V14.01,2013-01-02 18:41:00,
2013-01-02 12:42:00,15.2,12.3,29.83,SE,127,4.0,6.0,88,0.00,,,0.00,VWS V14.01,2013-01-02 18:42:00,
2013-01-02 12:43:00,15.2,12.3,29.83,SE,127,0.0,6.0,88,0.00,,,0.00,VWS V14.01,2013-01-02 18:43:00,
2013-01-02 12:44:00,15.2,12.3,29.83,SE,129,0.0,6.0,88,0.00,,,0.00,VWS V14.01,2013-01-02 18:44:00,
2013-01-02 12:45:00,15.2,12.3,29.83,SE,132,1.0,6.0,88,0.00,,,0.00,VWS V14.01,2013-01-02 18:45:00,
2013-01-02 12:46:00,15.2,12.3,29.83,SE,132,0.0,6.0,88,0.00,,,0.00,VWS V14.01,2013-01-02 18:46:00,
2013-01-02 12:47:00,15.2,12.3,29.83,SE,132,0.0,6.0,88,0.00,,,0.00,VWS V14.01,2013-01-02 18:47:00,
2013-01-02 12:48:00,15.2,12.3,29.83,SE,132,0.0,6.0,88,0.00,,,0.00,VWS V14.01,2013-01-02 18:48:00,
2013-01-02 12:49:00,15.2,12.3,29.83,SE,132,0.0,6.0,88,0.00,,,0.00,VWS V14.01,2013-01-02 18:49:00,
2013-01-02 12:50:00,15.2,12.3,29.83,SE,132,0.0,6.0,88,0.00,,,0.00,VWS V14.01,2013-01-02 18:50:00,
2013-01-02 12:51:00,15.4,12.5,29.83,SE,132,4.0,6.0,88,0.00,,,0.00,VWS V14.01,2013-01-02 18:51:00,
2013-01-02 12:52:00,15.4,12.5,29.83,SE,132,4.0,6.0,88,0.00,,,0.00,VWS V14.01,2013-01-02 18:52:00,
2013-01-02 12:53:00,15.2,12.3,29.83,SE,132,0.0,6.0,88,0.00,,,0.00,VWS V14.01,2013-01-02 18:53:00,
2013-01-02 12:54:00,15.4,12.5,29.83,SE,132,0.0,6.0,88,0.00,,,0.00,VWS V14.01,2013-01-02 18:54:00,
2013-01-02 12:55:00,15.4,12.7,29.83,SE,132,3.0,6.0,89,0.00,,,0.00,VWS V14.01,2013-01-02 18:55:00,
2013-01-02 12:56:00,15.4,12.7,29.83,SE,132,0.0,6.0,89,0.00,,,0.00,VWS V14.01,2013-01-02 18:56:00,
2013-01-02 12:57:00,15.4,12.7,29.83,SE,132,2.0,6.0,89,0.00,,,0.00,VWS V14.01,2013-01-02 18:57:00,
2013-01-02 12:58:00,15.4,12.5,29.83,SE,129,0.0,6.0,88,0.00,,,0.00,VWS V14.01,2013-01-02 18:58:00,
2013-01-02 12:59:00,15.6,12.7,29.83,SE,129,3.0,6.0,88,0.00,,,0.00,VWS V14.01,2013-01-02 18:59:00,
2013-01-02 13:00:00,15.6,12.7,29.83,SE,129,0.0,6.0,88,0.00,,,0.00,VWS V14.01,2013-01-02 19:00:00,
2013-01-02 13:01:00,15.6,12.7,29.83,SE,129,0.0,0.0,88,0.00,,,0.00,VWS V14.01,2013-01-02 19:01:00,
2013-01-02 13:02:00,15.6,12.7,29.83,SE,129,0.0,0.0,88,0.00,,,0.00,VWS V14.01,2013-01-02 19:02:00,
2013-01-02 13:03:00,15.6,12.9,29.83,SE,130,0.0,2.0,89,0.00,,,0.00,VWS V14.01,2013-01-02 19:03:00,
2013-01-02 13:04:00,15.6,12.7,29.83,SE,130,0.0,2.0,88,0.00,,,0.00,VWS V14.01,2013-01-02 19:04:00,
2013-01-02 13:05:00,15.6,12.7,29.83,SE,130,0.0,2.0,88,0.00,,,0.00,VWS V14.01,2013-01-02 19:05:00,
2013-01-02 13:06:00,15.7,12.8,29.83,SE,130,0.0,2.0,88,0.00,,,0.00,VWS V14.01,2013-01-02 19:06:00,
2013-01-02 13:07:00,15.7,13.0,29.83,SE,130,0.0,2.0,89,0.00,,,0.00,VWS V14.01,2013-01-02 19:07:00,
2013-01-02 13:08:00,15.7,13.0,29.83,SE,130,0.0,3.0,89,0.00,,,0.00,VWS V14.01,2013-01-02 19:08:00,
2013-01-02 13:09:00,15.7,13.0,29.83,SE,130,0.0,3.0,89,0.00,,,0.00,VWS V14.01,2013-01-02 19:09:00,
2013-01-02 13:10:00,15.9,13.2,29.83,SE,130,0.0,3.0,89,0.00,,,0.00,VWS V14.01,2013-01-02 19:10:00,
2013-01-02 13:11:00,15.9,13.2,29.83,SE,130,0.0,3.0,89,0.00,,,0.00,VWS V14.01,2013-01-02 19:11:00,
2013-01-02 13:12:00,15.9,13.2,29.83,SE,130,3.0,3.0,89,0.00,,,0.00,VWS V14.01,2013-01-02 19:12:00,
2013-01-02 13:13:00,15.9,13.0,29.83,SE,130,2.0,3.0,88,0.00,,,0.00,VWS V14.01,2013-01-02 19:13:00,
2013-01-02 13:14:00,15.9,13.0,29.83,SE,130,3.0,5.0,88,0.00,,,0.00,VWS V14.01,2013-01-02 19:14:00,
2013-01-02 13:15:00,15.7,12.8,29.83,SE,130,6.0,6.0,88,0.00,,,0.00,VWS V14.01,2013-01-02 19:15:00,
2013-01-02 13:16:00,15.6,12.7,29.83,SE,130,4.0,6.0,88,0.00,,,0.00,VWS V14.01,2013-01-02 19:16:00,
2013-01-02 13:17:00,15.6,12.7,29.83,SE,130,2.0,6.0,88,0.00,,,0.00,VWS V14.01,2013-01-02 19:17:00,
2013-01-02 13:18:00,15.4,12.5,29.83,SE,130,0.0,6.0,88,0.00,,,0.00,VWS V14.01,2013-01-02 19:18:00,
2013-01-02 13:19:00,15.4,12.5,29.83,SE,130,0.0,6.0,88,0.00,,,0.00,VWS V14.01,2013-01-02 19:19:00,
2013-01-02 13:20:00,15.4,12.5,29.83,SE,130,1.0,6.0,88,0.00,,,0.00,VWS V14.01,2013-01-02 19:20:00,
2013-01-02 13:21:00,15.4,12.5,29.83,SE,130,0.0,6.0,88,0.00,,,0.00,VWS V14.01,2013-01-02 19:21:00,
2013-01-02 13:22:00,15.6,12.7,29.83,SE,130,0.0,6.0,88,0.00,,,0.00,VWS V14.01,2013-01-02 19:22:00,
2013-01-02 13:23:00,15.6,12.7,29.83,SE,130,0.0,6.0,88,0.00,,,0.00,VWS V14.01,2013-01-02 19:23:00,
2013-01-02 13:24:00,15.6,12.7,29.83,SE,130,0.0,6.0,88,0.00,,,0.00,VWS V14.01,2013-01-02 19:24:00,
2013-01-02 13:25:00,15.6,12.7,29.83,SE,130,6.0,6.0,88,0.00,,,0.00,VWS V14.01,2013-01-02 19:25:00,
2013-01-02 13:26:00,15.6,12.7,29.83,SE,130,2.0,6.0,88,0.00,,,0.00,VWS V14.01,2013-01-02 19:26:00,
2013-01-02 13:27:00,15.6,12.7,29.83,SE,127,5.0,6.0,88,0.00,,,0.00,VWS V14.01,2013-01-02 19:27:00,
2013-01-02 13:28:00,15.4,12.5,29.83,SE,127,3.0,6.0,88,0.00,,,0.00,VWS V14.01,2013-01-02 19:28:00,
2013-01-02 13:29:00,15.4,12.5,29.83,SE,127,2.0,6.0,88,0.00,,,0.00,VWS V14.01,2013-01-02 19:29:00,
2013-01-02 13:30:00,15.4,12.5,29.83,SE,127,5.0,6.0,88,0.00,,,0.00,VWS V14.01,2013-01-02 19:30:00,
2013-01-02 13:31:00,15.4,12.5,29.83,SE,129,5.0,5.0,88,0.00,,,0.00,VWS V14.01,2013-01-02 19:31:00,
2013-01-02 13:32:00,15.4,12.5,29.83,SE,129,1.0,6.0,88,0.00,,,0.00,VWS V14.01,2013-01-02 19:32:00,
2013-01-02 13:33:00,15.4,12.5,29.83,SE,129,3.0,6.0,88,0.00,,,0.00,VWS V14.01,2013-01-02 19:33:00,
2013-01-02 13:34:00,15.4,12.5,29.83,SE,129,0.0,6.0,88,0.00,,,0.00,VWS V14.01,2013-01-02 19:34:00,
2013-01-02 13:35:00,15.4,12.5,29.83,SE,127,2.0,6.0,88,0.00,,,0.00,VWS V14.01,2013-01-02 19:35:00,
2013-01-02 13:36:00,15.4,12.5,29.83,SE,127,4.0,6.0,88,0.00,,,0.00,VWS V14.01,2013-01-02 19:36:00,
2013-01-02 13:37:00,15.4,12.5,29.83,SE,127,2.0,6.0,88,0.00,,,0.00,VWS V14.01,2013-01-02 19:37:00,
2013-01-02 13:38:00,15.4,12.5,29.83,SE,127,1.0,6.0,88,0.00,,,0.00,VWS V14.01,2013-01-02 19:38:00,
2013-01-02 13:39:00,15.4,12.5,29.83,SE,127,4.0,6.0,88,0.00,,,0.00,VWS V14.01,2013-01-02 19:39:00,
2013-01-02 13:40:00,15.4,12.5,29.83,SE,127,4.0,6.0,88,0.00,,,0.00,VWS V14.01,2013-01-02 19:40:00,
2013-01-02 13:41:00,15.4,12.5,29.83,SE,126,5.0,6.0,88,0.00,,,0.00,VWS V14.01,2013-01-02 19:41:00,
2013-01-02 13:42:00,15.4,12.5,29.83,SE,126,2.0,6.0,88,0.00,,,0.00,VWS V14.01,2013-01-02 19:42:00,
2013-01-02 13:43:00,15.4,12.5,29.83,SE,126,0.0,6.0,88,0.00,,,0.00,VWS V14.01,2013-01-02 19:43:00,
2013-01-02 13:44:00,15.4,12.5,29.83,SE,126,3.0,6.0,88,0.00,,,0.00,VWS V14.01,2013-01-02 19:44:00,
2013-01-02 13:45:00,15.6,12.9,29.83,SE,126,0.0,6.0,89,0.00,,,0.00,VWS V14.01,2013-01-02 19:45:00,
2013-01-02 13:46:00,15.6,12.9,29.83,SE,126,0.0,6.0,89,0.00,,,0.00,VWS V14.01,2013-01-02 19:46:00,
2013-01-02 13:47:00,15.6,12.9,29.83,SE,126,0.0,6.0,89,0.00,,,0.00,VWS V14.01,2013-01-02 19:47:00,
2013-01-02 13:48:00,15.7,13.0,29.83,SE,126,2.0,6.0,89,0.00,,,0.00,VWS V14.01,2013-01-02 19:48:00,
2013-01-02 13:49:00,15.7,13.0,29.83,SE,126,4.0,6.0,89,0.00,,,0.00,VWS V14.01,2013-01-02 19:49:00,
2013-01-02 13:50:00,15.6,12.7,29.83,SE,126,4.0,6.0,88,0.00,,,0.00,VWS V14.01,2013-01-02 19:50:00,
2013-01-02 13:51:00,15.6,12.7,29.83,SE,126,0.0,6.0,88,0.00,,,0.00,VWS V14.01,2013-01-02 19:51:00,
2013-01-02 13:52:00,15.4,12.5,29.83,SE,126,0.0,6.0,88,0.00,,,0.00,VWS V14.01,2013-01-02 19:52:00,
2013-01-02 13:53:00,15.4,12.5,29.83,SE,126,0.0,6.0,88,0.00,,,0.00,VWS V14.01,2013-01-02 19:53:00,
2013-01-02 13:54:00,15.6,12.7,29.83,SE,126,0.0,6.0,88,0.00,,,0.00,VWS V14.01,2013-01-02 19:54:00,
2013-01-02 13:55:00,15.6,12.7,29.83,SE,126,0.0,6.0,88,0.00,,,0.00,VWS V14.01,2013-01-02 19:55:00,
2013-01-02 13:56:00,15.6,12.9,29.83,SE,126,0.0,6.0,89,0.00,,,0.00,VWS V14.01,2013-01-02 19:56:00,
2013-01-02 13:57:00,15.7,13.0,29.83,SE,126,0.0,6.0,89,0.00,,,0.00,VWS V14.01,2013-01-02 19:57:00,
2013-01-02 13:58:00,15.7,13.0,29.83,SE,126,2.0,6.0,89,0.00,,,0.00,VWS V14.01,2013-01-02 19:58:00,
2013-01-02 13:59:00,15.7,13.0,29.83,SE,126,0.0,6.0,89,0.00,,,0.00,VWS V14.01,2013-01-02 19:59:00,
2013-01-02 14:00:00,15.7,12.8,29.84,SE,126,2.0,6.0,88,0.00,,,0.00,VWS V14.01,2013-01-02 20:00:00,
2013-01-02 14:01:00,15.7,12.8,29.84,SE,126,0.0,2.0,88,0.00,,,0.00,VWS V14.01,2013-01-02 20:01:00,
2013-01-02 14:02:00,15.9,13.2,29.84,SE,126,3.0,3.0,89,0.00,,,0.00,VWS V14.01,2013-01-02 20:02:00,
2013-01-02 14:03:00,15.9,13.2,29.84,SE,126,2.0,3.0,89,0.00,,,0.00,VWS V14.01,2013-01-02 20:03:00,
2013-01-02 14:04:00,15.9,13.0,29.84,SE,126,0.0,3.0,88,0.00,,,0.00,VWS V14.01,2013-01-02 20:04:00,
2013-01-02 14:05:00,15.9,13.2,29.84,SE,126,5.0,5.0,89,0.00,,,0.00,VWS V14.01,2013-01-02 20:05:00,
2013-01-02 14:06:00,15.9,13.0,29.84,SE,126,5.0,5.0,88,0.00,,,0.00,VWS V14.01,2013-01-02 20:06:00,
2013-01-02 14:07:00,15.7,12.8,29.84,SE,126,5.0,5.0,88,0.00,,,0.00,VWS V14.01,2013-01-02 20:07:00,
2013-01-02 14:08:00,15.7,12.8,29.84,SE,126,2.0,5.0,88,0.00,,,0.00,VWS V14.01,2013-01-02 20:08:00,
2013-01-02 14:09:00,15.7,12.8,29.84,SE,126,3.0,5.0,88,0.00,,,0.00,VWS V14.01,2013-01-02 20:09:00,
2013-01-02 14:10:00,15.6,12.7,29.84,SE,126,4.0,5.0,88,0.00,,,0.00,VWS V14.01,2013-01-02 20:10:00,
2013-01-02 14:11:00,15.6,12.7,29.84,SE,126,3.0,6.0,88,0.00,,,0.00,VWS V14.01,2013-01-02 20:11:00,
2013-01-02 14:12:00,15.6,12.7,29.84,SE,126,3.0,6.0,88,0.00,,,0.00,VWS V14.01,2013-01-02 20:12:00,
2013-01-02 14:13:00,15.6,12.7,29.84,SE,127,3.0,6.0,88,0.00,,,0.00,VWS V14.01,2013-01-02 20:13:00,
2013-01-02 14:14:00,15.6,12.7,29.84,SE,126,2.0,6.0,88,0.00,,,0.00,VWS V14.01,2013-01-02 20:14:00,
2013-01-02 14:15:00,15.6,12.7,29.84,SE,127,2.0,6.0,88,0.00,,,0.00,VWS V14.01,2013-01-02 20:15:00,
2013-01-02 14:16:00,15.6,12.7,29.84,SE,126,6.0,7.0,88,0.00,,,0.00,VWS V14.01,2013-01-02 20:16:00,
2013-01-02 14:17:00,15.6,12.7,29.84,SE,125,4.0,7.0,88,0.00,,,0.00,VWS V14.01,2013-01-02 20:17:00,
2013-01-02 14:18:00,15.6,12.7,29.84,SE,125,2.0,7.0,88,0.00,,,0.00,VWS V14.01,2013-01-02 20:18:00,
2013-01-02 14:19:00,15.6,12.7,29.84,SE,125,0.0,7.0,88,0.00,,,0.00,VWS V14.01,2013-01-02 20:19:00,
2013-01-02 14:20:00,15.6,12.7,29.84,SE,125,5.0,7.0,88,0.00,,,0.00,VWS V14.01,2013-01-02 20:20:00,
2013-01-02 14:21:00,15.6,12.7,29.84,ESE,122,3.0,7.0,88,0.00,,,0.00,VWS V14.01,2013-01-02 20:21:00,
2013-01-02 14:22:00,15.6,12.7,29.84,ESE,123,5.0,7.0,88,0.00,,,0.00,VWS V14.01,2013-01-02 20:22:00,
2013-01-02 14:23:00,15.6,12.7,29.84,ESE,123,0.0,7.0,88,0.00,,,0.00,VWS V14.01,2013-01-02 20:23:00,
2013-01-02 14:24:00,15.6,12.7,29.84,ESE,123,2.0,7.0,88,0.00,,,0.00,VWS V14.01,2013-01-02 20:24:00,
2013-01-02 14:25:00,15.6,12.7,29.84,ESE,123,4.0,7.0,88,0.00,,,0.00,VWS V14.01,2013-01-02 20:25:00,
2013-01-02 14:26:00,15.6,12.7,29.84,ESE,123,2.0,7.0,88,0.00,,,0.00,VWS V14.01,2013-01-02 20:26:00,
2013-01-02 14:27:00,15.6,12.7,29.84,ESE,123,5.0,7.0,88,0.00,,,0.00,VWS V14.01,2013-01-02 20:27:00,
2013-01-02 14:28:00,15.7,12.8,29.84,ESE,123,0.0,7.0,88,0.00,,,0.00,VWS V14.01,2013-01-02 20:28:00,
2013-01-02 14:29:00,15.7,12.8,29.84,ESE,123,0.0,7.0,88,0.00,,,0.00,VWS V14.01,2013-01-02 20:29:00,
2013-01-02 14:30:00,15.7,12.8,29.85,ESE,123,0.0,7.0,88,0.00,,,0.00,VWS V14.01,2013-01-02 20:30:00,
2013-01-02 14:31:00,15.7,12.8,29.85,ESE,123,0.0,0.0,88,0.00,,,0.00,VWS V14.01,2013-01-02 20:31:00,
2013-01-02 14:32:00,15.7,12.8,29.85,ESE,123,0.0,0.0,88,0.00,,,0.00,VWS V14.01,2013-01-02 20:32:00,
2013-01-02 14:33:00,15.7,12.8,29.85,ESE,123,5.0,5.0,88,0.00,,,0.00,VWS V14.01,2013-01-02 20:33:00,
2013-01-02 14:34:00,15.7,12.8,29.85,ESE,123,5.0,6.0,88,0.00,,,0.00,VWS V14.01,2013-01-02 20:34:00,
2013-01-02 14:35:00,15.6,12.7,29.85,ESE,123,2.0,6.0,88,0.00,,,0.00,VWS V14.01,2013-01-02 20:35:00,
2013-01-02 14:36:00,15.6,12.7,29.85,SE,125,2.0,6.0,88,0.00,,,0.00,VWS V14.01,2013-01-02 20:36:00,
2013-01-02 14:37:00,15.6,12.7,29.85,SE,125,5.0,6.0,88,0.00,,,0.00,VWS V14.01,2013-01-02 20:37:00,
2013-01-02 14:38:00,15.6,12.7,29.85,SE,125,0.0,6.0,88,0.00,,,0.00,VWS V14.01,2013-01-02 20:38:00,
2013-01-02 14:39:00,15.6,12.7,29.85,SE,125,0.0,6.0,88,0.00,,,0.00,VWS V14.01,2013-01-02 20:39:00,
2013-01-02 14:40:00,15.7,12.8,29.85,SE,125,2.0,6.0,88,0.00,,,0.00,VWS V14.01,2013-01-02 20:40:00,
2013-01-02 14:41:00,15.7,12.8,29.85,SE,125,2.0,6.0,88,0.00,,,0.00,VWS V14.01,2013-01-02 20:41:00,
2013-01-02 14:42:00,15.7,12.8,29.85,SE,125,0.0,6.0,88,0.00,,,0.00,VWS V14.01,2013-01-02 20:42:00,
2013-01-02 14:43:00,15.7,12.8,29.85,SE,125,0.0,6.0,88,0.00,,,0.00,VWS V14.01,2013-01-02 20:43:00,
2013-01-02 14:44:00,15.7,12.8,29.85,SE,125,2.0,6.0,88,0.00,,,0.00,VWS V14.01,2013-01-02 20:44:00,
2013-01-02 14:45:00,15.7,12.8,29.85,ESE,123,2.0,6.0,88,0.00,,,0.00,VWS V14.01,2013-01-02 20:45:00,
2013-01-02 14:46:00,15.7,12.8,29.85,ESE,123,0.0,6.0,88,0.00,,,0.00,VWS V14.01,2013-01-02 20:46:00,
2013-01-02 14:47:00,15.7,12.8,29.85,ESE,123,0.0,6.0,88,0.00,,,0.00,VWS V14.01,2013-01-02 20:47:00,
2013-01-02 14:48:00,15.7,12.8,29.85,SE,125,0.0,6.0,88,0.00,,,0.00,VWS V14.01,2013-01-02 20:48:00,
2013-01-02 14:49:00,15.9,13.0,29.85,SE,125,0.0,6.0,88,0.00,,,0.00,VWS V14.01,2013-01-02 20:49:00,
2013-01-02 14:50:00,15.9,13.0,29.85,ESE,123,0.0,6.0,88,0.00,,,0.00,VWS V14.01,2013-01-02 20:50:00,
2013-01-02 14:51:00,15.9,13.0,29.85,SE,125,0.0,6.0,88,0.00,,,0.00,VWS V14.01,2013-01-02 20:51:00,
2013-01-02 14:52:00,15.9,13.0,29.85,SE,125,0.0,6.0,88,0.00,,,0.00,VWS V14.01,2013-01-02 20:52:00,
2013-01-02 14:53:00,15.7,12.8,29.85,SE,125,0.0,6.0,88,0.00,,,0.00,VWS V14.01,2013-01-02 20:53:00,
2013-01-02 14:54:00,15.7,12.8,29.85,ESE,123,0.0,6.0,88,0.00,,,0.00,VWS V14.01,2013-01-02 20:54:00,
2013-01-02 14:55:00,15.7,12.8,29.85,SE,125,3.0,6.0,88,0.00,,,0.00,VWS V14.01,2013-01-02 20:55:00,
2013-01-02 14:56:00,15.7,12.8,29.85,SE,125,1.0,6.0,88,0.00,,,0.00,VWS V14.01,2013-01-02 20:56:00,
2013-01-02 14:57:00,15.7,12.8,29.85,SE,125,5.0,6.0,88,0.00,,,0.00,VWS V14.01,2013-01-02 20:57:00,
2013-01-02 14:58:00,15.6,12.7,29.85,SE,125,0.0,6.0,88,0.00,,,0.00,VWS V14.01,2013-01-02 20:58:00,
2013-01-02 14:59:00,15.6,12.7,29.85,SE,125,0.0,6.0,88,0.00,,,0.00,VWS V14.01,2013-01-02 20:59:00,
2013-01-02 15:00:00,15.6,12.7,29.85,SE,125,0.0,1.0,88,0.00,,,0.00,VWS V14.01,2013-01-02 21:00:00,
2013-01-02 15:01:00,15.6,12.7,29.85,SE,125,0.0,1.0,88,0.00,,,0.00,VWS V14.01,2013-01-02 21:01:00,
2013-01-02 15:02:00,15.6,12.7,29.85,SE,125,0.0,1.0,88,0.00,,,0.00,VWS V14.01,2013-01-02 21:02:00,
2013-01-02 15:03:00,15.7,12.8,29.85,SE,125,0.0,1.0,88,0.00,,,0.00,VWS V14.01,2013-01-02 21:03:00,
2013-01-02 15:04:00,15.7,12.8,29.85,SE,125,0.0,1.0,88,0.00,,,0.00,VWS V14.01,2013-01-02 21:04:00,
2013-01-02 15:05:00,15.7,12.8,29.85,SE,125,0.0,1.0,88,0.00,,,0.00,VWS V14.01,2013-01-02 21:05:00,
2013-01-02 15:06:00,15.7,12.8,29.85,SE,125,0.0,1.0,88,0.00,,,0.00,VWS V14.01,2013-01-02 21:06:00,
2013-01-02 15:07:00,15.7,13.0,29.85,SE,125,0.0,1.0,89,0.00,,,0.00,VWS V14.01,2013-01-02 21:07:00,
2013-01-02 15:08:00,15.9,13.2,29.85,SE,125,0.0,1.0,89,0.00,,,0.00,VWS V14.01,2013-01-02 21:08:00,
2013-01-02 15:09:00,15.9,13.2,29.85,SE,125,0.0,1.0,89,0.00,,,0.00,VWS V14.01,2013-01-02 21:09:00,
2013-01-02 15:10:00,15.9,13.2,29.85,SE,125,0.0,1.0,89,0.00,,,0.00,VWS V14.01,2013-01-02 21:10:00,
2013-01-02 15:11:00,15.9,13.0,29.85,SE,125,2.0,3.0,88,0.00,,,0.00,VWS V14.01,2013-01-02 21:11:00,
2013-01-02 15:12:00,15.9,13.0,29.85,SE,125,2.0,3.0,88,0.00,,,0.00,VWS V14.01,2013-01-02 21:12:00,
2013-01-02 15:13:00,15.7,12.8,29.85,SE,125,1.0,3.0,88,0.00,,,0.00,VWS V14.01,2013-01-02 21:13:00,
2013-01-02 15:14:00,15.7,12.8,29.85,SE,125,0.0,3.0,88,0.00,,,0.00,VWS V14.01,2013-01-02 21:14:00,
2013-01-02 15:15:00,15.7,12.8,29.85,SE,125,0.0,3.0,88,0.00,,,0.00,VWS V14.01,2013-01-02 21:15:00,
2013-01-02 15:16:00,15.7,12.8,29.85,SE,125,1.0,3.0,88,0.00,,,0.00,VWS V14.01,2013-01-02 21:16:00,
2013-01-02 15:17:00,15.7,12.8,29.85,SE,125,0.0,3.0,88,0.00,,,0.00,VWS V14.01,2013-01-02 21:17:00,
2013-01-02 15:18:00,15.7,12.8,29.85,SE,125,2.0,3.0,88,0.00,,,0.00,VWS V14.01,2013-01-02 21:18:00,
2013-01-02 15:19:00,15.7,12.8,29.85,SE,125,1.0,3.0,88,0.00,,,0.00,VWS V14.01,2013-01-02 21:19:00,
2013-01-02 15:20:00,15.7,12.8,29.85,SE,125,0.0,3.0,88,0.00,,,0.00,VWS V14.01,2013-01-02 21:20:00,
2013-01-02 15:21:00,15.7,12.8,29.85,SE,125,0.0,3.0,88,0.00,,,0.00,VWS V14.01,2013-01-02 21:21:00,
2013-01-02 15:22:00,15.7,12.8,29.85,SE,125,0.0,3.0,88,0.00,,,0.00,VWS V14.01,2013-01-02 21:22:00,
2013-01-02 15:23:00,15.7,12.8,29.85,SE,125,0.0,3.0,88,0.00,,,0.00,VWS V14.01,2013-01-02 21:23:00,
2013-01-02 15:24:00,15.7,12.8,29.85,SE,125,3.0,3.0,88,0.00,,,0.00,VWS V14.01,2013-01-02 21:24:00,
2013-01-02 15:25:00,15.7,12.8,29.85,SE,125,0.0,3.0,88,0.00,,,0.00,VWS V14.01,2013-01-02 21:25:00,
2013-01-02 15:26:00,15.7,12.8,29.85,SE,125,0.0,3.0,88,0.00,,,0.00,VWS V14.01,2013-01-02 21:26:00,
2013-01-02 15:27:00,15.7,12.8,29.85,SE,125,0.0,3.0,88,0.00,,,0.00,VWS V14.01,2013-01-02 21:27:00,
2013-01-02 15:28:00,15.7,12.8,29.85,SE,125,1.0,3.0,88,0.00,,,0.00,VWS V14.01,2013-01-02 21:28:00,
2013-01-02 15:29:00,15.7,12.8,29.85,SE,125,0.0,3.0,88,0.00,,,0.00,VWS V14.01,2013-01-02 21:29:00,
2013-01-02 15:30:00,15.7,12.8,29.86,SE,125,0.0,3.0,88,0.00,,,0.00,VWS V14.01,2013-01-02 21:30:00,
2013-01-02 15:31:00,15.7,12.8,29.86,SE,125,0.0,1.0,88,0.00,,,0.00,VWS V14.01,2013-01-02 21:31:00,
2013-01-02 15:32:00,15.7,12.8,29.86,SE,125,0.0,1.0,88,0.00,,,0.00,VWS V14.01,2013-01-02 21:32:00,
2013-01-02 15:33:00,15.7,12.8,29.86,SE,125,1.0,2.0,88,0.00,,,0.00,VWS V14.01,2013-01-02 21:33:00,
2013-01-02 15:34:00,15.7,12.8,29.86,SE,125,2.0,3.0,88,0.00,,,0.00,VWS V14.01,2013-01-02 21:34:00,
2013-01-02 15:35:00,15.7,12.8,29.86,SE,125,2.0,4.0,88,0.00,,,0.00,VWS V14.01,2013-01-02 21:35:00,
2013-01-02 15:36:00,15.7,12.8,29.86,SE,125,2.0,4.0,88,0.00,,,0.00,VWS V14.01,2013-01-02 21:36:00,
2013-01-02 15:37:00,15.7,12.8,29.86,SE,125,2.0,4.0,88,0.00,,,0.00,VWS V14.01,2013-01-02 21:37:00,
2013-01-02 15:38:00,15.7,12.8,29.86,SE,125,2.0,4.0,88,0.00,,,0.00,VWS V14.01,2013-01-02 21:38:00,
2013-01-02 15:39:00,15.7,12.8,29.86,SE,125,1.0,4.0,88,0.00,,,0.00,VWS V14.01,2013-01-02 21:39:00,
2013-01-02 15:40:00,15.7,12.8,29.86,SE,125,0.0,4.0,88,0.00,,,0.00,VWS V14.01,2013-01-02 21:40:00,
2013-01-02 15:41:00,15.7,12.8,29.86,SE,125,0.0,4.0,88,0.00,,,0.00,VWS V14.01,2013-01-02 21:41:00,
2013-01-02 15:42:00,15.7,12.8,29.86,SE,125,0.0,4.0,88,0.00,,,0.00,VWS V14.01,2013-01-02 21:42:00,
2013-01-02 15:43:00,15.7,12.8,29.86,SE,125,0.0,4.0,88,0.00,,,0.00,VWS V14.01,2013-01-02 21:43:00,
2013-01-02 15:44:00,15.9,13.0,29.86,SE,125,0.0,4.0,88,0.00,,,0.00,VWS V14.01,2013-01-02 21:44:00,
2013-01-02 15:45:00,15.9,13.2,29.86,SE,125,0.0,4.0,89,0.00,,,0.00,VWS V14.01,2013-01-02 21:45:00,
2013-01-02 15:46:00,15.9,13.0,29.86,SE,125,0.0,4.0,88,0.00,,,0.00,VWS V14.01,2013-01-02 21:46:00,
2013-01-02 15:47:00,15.9,13.0,29.86,SE,125,0.0,4.0,88,0.00,,,0.00,VWS V14.01,2013-01-02 21:47:00,
2013-01-02 15:48:00,15.9,13.0,29.86,SE,125,0.0,4.0,88,0.00,,,0.00,VWS V14.01,2013-01-02 21:48:00,
2013-01-02 15:49:00,15.9,13.0,29.86,SE,125,0.0,4.0,88,0.00,,,0.00,VWS V14.01,2013-01-02 21:49:00,
2013-01-02 15:50:00,15.9,13.0,29.86,SE,125,0.0,4.0,88,0.00,,,0.00,VWS V14.01,2013-01-02 21:50:00,
2013-01-02 15:51:00,15.9,13.0,29.86,SE,125,0.0,4.0,88,0.00,,,0.00,VWS V14.01,2013-01-02 21:51:00,
2013-01-02 15:52:00,15.9,13.2,29.86,SE,125,0.0,4.0,89,0.00,,,0.00,VWS V14.01,2013-01-02 21:52:00,
2013-01-02 15:53:00,15.9,13.2,29.86,SE,125,0.0,4.0,89,0.00,,,0.00,VWS V14.01,2013-01-02 21:53:00,
2013-01-02 15:54:00,15.9,13.2,29.86,SE,125,0.0,4.0,89,0.00,,,0.00,VWS V14.01,2013-01-02 21:54:00,
2013-01-02 15:55:00,15.9,13.0,29.86,SE,125,0.0,4.0,88,0.00,,,0.00,VWS V14.01,2013-01-02 21:55:00,
2013-01-02 15:56:00,15.9,13.0,29.86,SE,125,0.0,4.0,88,0.00,,,0.00,VWS V14.01,2013-01-02 21:56:00,
2013-01-02 15:57:00,15.9,13.0,29.86,SE,125,0.0,4.0,88,0.00,,,0.00,VWS V14.01,2013-01-02 21:57:00,
2013-01-02 15:58:00,15.9,13.0,29.86,SE,125,0.0,4.0,88,0.00,,,0.00,VWS V14.01,2013-01-02 21:58:00,
2013-01-02 15:59:00,15.9,13.0,29.86,SE,125,0.0,4.0,88,0.00,,,0.00,VWS V14.01,2013-01-02 21:59:00,
2013-01-02 16:00:00,15.9,13.0,29.87,SE,125,0.0,4.0,88,0.00,,,0.00,VWS V14.01,2013-01-02 22:00:00,
2013-01-02 16:01:00,15.9,13.0,29.87,SE,125,0.0,0.0,88,0.00,,,0.00,VWS V14.01,2013-01-02 22:01:00,
2013-01-02 16:02:00,15.9,13.0,29.87,SE,125,0.0,0.0,88,0.00,,,0.00,VWS V14.01,2013-01-02 22:02:00,
2013-01-02 16:03:00,15.9,13.0,29.87,SE,125,0.0,0.0,88,0.00,,,0.00,VWS V14.01,2013-01-02 22:03:00,
2013-01-02 16:04:00,15.9,13.0,29.87,SE,125,0.0,0.0,88,0.00,,,0.00,VWS V14.01,2013-01-02 22:04:00,
2013-01-02 16:05:00,15.9,13.0,29.87,SE,125,1.0,1.0,88,0.00,,,0.00,VWS V14.01,2013-01-02 22:05:00,
2013-01-02 16:06:00,15.9,13.0,29.87,SE,125,0.0,1.0,88,0.00,,,0.00,VWS V14.01,2013-01-02 22:06:00,
2013-01-02 16:07:00,15.9,13.0,29.87,SE,125,0.0,1.0,88,0.00,,,0.00,VWS V14.01,2013-01-02 22:07:00,
2013-01-02 16:08:00,15.9,13.0,29.87,SE,125,0.0,1.0,88,0.00,,,0.00,VWS V14.01,2013-01-02 22:08:00,
2013-01-02 16:09:00,15.9,13.0,29.87,SE,125,0.0,1.0,88,0.00,,,0.00,VWS V14.01,2013-01-02 22:09:00,
2013-01-02 16:10:00,15.9,13.0,29.87,SE,125,0.0,1.0,88,0.00,,,0.00,VWS V14.01,2013-01-02 22:10:00,
2013-01-02 16:11:00,15.9,13.0,29.87,SE,125,0.0,1.0,88,0.00,,,0.00,VWS V14.01,2013-01-02 22:11:00,
2013-01-02 16:12:00,15.9,13.0,29.87,SE,125,0.0,1.0,88,0.00,,,0.00,VWS V14.01,2013-01-02 22:12:00,
2013-01-02 16:13:00,15.9,13.0,29.87,SE,125,0.0,1.0,88,0.00,,,0.00,VWS V14.01,2013-01-02 22:13:00,
2013-01-02 16:14:00,15.9,13.0,29.87,SE,125,0.0,1.0,88,0.00,,,0.00,VWS V14.01,2013-01-02 22:14:00,
2013-01-02 16:15:00,15.9,13.0,29.87,SE,125,0.0,1.0,88,0.00,,,0.00,VWS V14.01,2013-01-02 22:15:00,
2013-01-02 16:16:00,15.9,13.0,29.87,SE,125,0.0,1.0,88,0.00,,,0.00,VWS V14.01,2013-01-02 22:16:00,
2013-01-02 16:17:00,15.9,13.0,29.87,SE,125,0.0,1.0,88,0.00,,,0.00,VWS V14.01,2013-01-02 22:17:00,
2013-01-02 16:18:00,15.9,13.0,29.87,SE,125,0.0,1.0,88,0.00,,,0.00,VWS V14.01,2013-01-02 22:18:00,
2013-01-02 16:19:00,15.9,13.0,29.87,SE,125,0.0,1.0,88,0.00,,,0.00,VWS V14.01,2013-01-02 22:19:00,
2013-01-02 16:20:00,15.9,13.0,29.87,SE,125,0.0,1.0,88,0.00,,,0.00,VWS V14.01,2013-01-02 22:20:00,
2013-01-02 16:21:00,15.9,13.0,29.87,SE,125,0.0,1.0,88,0.00,,,0.00,VWS V14.01,2013-01-02 22:21:00,
2013-01-02 16:22:00,15.9,13.0,29.87,SE,125,0.0,1.0,88,0.00,,,0.00,VWS V14.01,2013-01-02 22:22:00,
2013-01-02 16:23:00,15.9,13.0,29.87,SE,125,0.0,1.0,88,0.00,,,0.00,VWS V14.01,2013-01-02 22:23:00,
2013-01-02 16:24:00,15.9,13.0,29.87,SE,125,0.0,1.0,88,0.00,,,0.00,VWS V14.01,2013-01-02 22:24:00,
2013-01-02 16:25:00,15.9,13.2,29.87,SE,125,0.0,1.0,89,0.00,,,0.00,VWS V14.01,2013-01-02 22:25:00,
2013-01-02 16:26:00,16.1,13.4,29.87,SE,125,0.0,1.0,89,0.00,,,0.00,VWS V14.01,2013-01-02 22:26:00,
2013-01-02 16:27:00,16.1,13.4,29.87,SE,125,0.0,1.0,89,0.00,,,0.00,VWS V14.01,2013-01-02 22:27:00,
2013-01-02 16:28:00,16.1,13.2,29.87,SE,125,0.0,1.0,88,0.00,,,0.00,VWS V14.01,2013-01-02 22:28:00,
2013-01-02 16:29:00,16.1,13.2,29.87,SE,125,0.0,1.0,88,0.00,,,0.00,VWS V14.01,2013-01-02 22:29:00,
2013-01-02 16:30:00,16.1,13.2,29.88,SE,125,0.0,1.0,88,0.00,,,0.00,VWS V14.01,2013-01-02 22:30:00,
2013-01-02 16:31:00,16.1,13.2,29.88,SE,125,0.0,0.0,88,0.00,,,0.00,VWS V14.01,2013-01-02 22:31:00,
2013-01-02 16:32:00,16.1,13.2,29.88,SE,125,0.0,0.0,88,0.00,,,0.00,VWS V14.01,2013-01-02 22:32:00,
2013-01-02 16:33:00,16.1,13.2,29.88,SE,125,0.0,0.0,88,0.00,,,0.00,VWS V14.01,2013-01-02 22:33:00,
2013-01-02 16:34:00,16.1,13.2,29.88,SE,125,0.0,0.0,88,0.00,,,0.00,VWS V14.01,2013-01-02 22:34:00,
2013-01-02 16:35:00,16.1,13.2,29.88,SE,125,0.0,0.0,88,0.00,,,0.00,VWS V14.01,2013-01-02 22:35:00,
2013-01-02 16:36:00,16.1,13.2,29.88,SE,125,0.0,0.0,88,0.00,,,0.00,VWS V14.01,2013-01-02 22:36:00,
2013-01-02 16:37:00,16.1,13.2,29.88,SE,125,0.0,0.0,88,0.00,,,0.00,VWS V14.01,2013-01-02 22:37:00,
2013-01-02 16:38:00,16.1,13.2,29.88,SE,125,0.0,0.0,88,0.00,,,0.00,VWS V14.01,2013-01-02 22:38:00,
2013-01-02 16:39:00,16.1,13.2,29.88,SE,125,0.0,0.0,88,0.00,,,0.00,VWS V14.01,2013-01-02 22:39:00,
2013-01-02 16:40:00,16.1,13.2,29.88,SE,125,0.0,0.0,88,0.00,,,0.00,VWS V14.01,2013-01-02 22:40:00,
2013-01-02 16:41:00,16.1,13.2,29.88,SE,125,0.0,0.0,88,0.00,,,0.00,VWS V14.01,2013-01-02 22:41:00,
2013-01-02 16:42:00,16.1,13.2,29.88,SE,125,0.0,0.0,88,0.00,,,0.00,VWS V14.01,2013-01-02 22:42:00,
2013-01-02 16:43:00,16.1,13.2,29.88,SE,125,0.0,0.0,88,0.00,,,0.00,VWS V14.01,2013-01-02 22:43:00,
2013-01-02 16:44:00,16.1,13.4,29.88,SE,125,0.0,0.0,89,0.00,,,0.00,VWS V14.01,2013-01-02 22:44:00,
2013-01-02 16:45:00,16.1,13.4,29.88,SE,125,0.0,0.0,89,0.00,,,0.00,VWS V14.01,2013-01-02 22:45:00,
2013-01-02 16:46:00,16.1,13.4,29.88,SE,125,0.0,0.0,89,0.00,,,0.00,VWS V14.01,2013-01-02 22:46:00,
2013-01-02 16:47:00,16.1,13.4,29.88,SE,125,0.0,0.0,89,0.00,,,0.00,VWS V14.01,2013-01-02 22:47:00,
2013-01-02 16:48:00,16.1,13.4,29.88,SE,125,0.0,0.0,89,0.00,,,0.00,VWS V14.01,2013-01-02 22:48:00,
2013-01-02 16:49:00,16.2,13.5,29.88,SE,125,0.0,0.0,89,0.00,,,0.00,VWS V14.01,2013-01-02 22:49:00,
2013-01-02 16:50:00,16.1,13.4,29.88,SE,125,0.0,0.0,89,0.00,,,0.00,VWS V14.01,2013-01-02 22:50:00,
2013-01-02 16:51:00,16.2,13.5,29.88,SE,125,0.0,0.0,89,0.00,,,0.00,VWS V14.01,2013-01-02 22:51:00,
2013-01-02 16:52:00,16.2,13.5,29.88,SE,125,0.0,0.0,89,0.00,,,0.00,VWS V14.01,2013-01-02 22:52:00,
2013-01-02 16:53:00,16.2,13.3,29.88,SE,125,0.0,0.0,88,0.00,,,0.00,VWS V14.01,2013-01-02 22:53:00,
2013-01-02 16:54:00,16.2,13.3,29.88,SE,125,0.0,0.0,88,0.00,,,0.00,VWS V14.01,2013-01-02 22:54:00,
2013-01-02 16:55:00,16.2,13.3,29.88,SE,125,0.0,0.0,88,0.00,,,0.00,VWS V14.01,2013-01-02 22:55:00,
2013-01-02 16:56:00,16.2,13.5,29.88,SE,125,0.0,0.0,89,0.00,,,0.00,VWS V14.01,2013-01-02 22:56:00,
2013-01-02 16:57:00,16.2,13.3,29.88,SE,125,0.0,0.0,88,0.00,,,0.00,VWS V14.01,2013-01-02 22:57:00,
2013-01-02 16:58:00,16.2,13.3,29.88,SE,125,0.0,0.0,88,0.00,,,0.00,VWS V14.01,2013-01-02 22:58:00,
2013-01-02 16:59:00,16.2,13.5,29.88,SE,125,0.0,0.0,89,0.00,,,0.00,VWS V14.01,2013-01-02 22:59:00,
2013-01-02 17:00:00,16.2,13.5,29.88,SE,125,0.0,0.0,89,0.00,,,0.00,VWS V14.01,2013-01-02 23:00:00,
2013-01-02 17:01:00,16.2,13.5,29.88,SE,125,0.0,0.0,89,0.00,,,0.00,VWS V14.01,2013-01-02 23:01:00,
2013-01-02 17:02:00,16.2,13.5,29.88,SE,125,0.0,0.0,89,0.00,,,0.00,VWS V14.01,2013-01-02 23:02:00,
2013-01-02 17:03:00,16.2,13.5,29.88,SE,125,0.0,0.0,89,0.00,,,0.00,VWS V14.01,2013-01-02 23:03:00,
2013-01-02 17:04:00,16.2,13.5,29.88,SE,125,0.0,0.0,89,0.00,,,0.00,VWS V14.01,2013-01-02 23:04:00,
2013-01-02 17:05:00,16.2,13.5,29.88,SE,125,0.0,0.0,89,0.00,,,0.00,VWS V14.01,2013-01-02 23:05:00,
2013-01-02 17:06:00,16.2,13.5,29.88,SE,125,0.0,0.0,89,0.00,,,0.00,VWS V14.01,2013-01-02 23:06:00,
2013-01-02 17:07:00,16.2,13.5,29.88,SE,125,0.0,0.0,89,0.00,,,0.00,VWS V14.01,2013-01-02 23:07:00,
2013-01-02 17:08:00,16.2,13.3,29.88,SE,125,0.0,0.0,88,0.00,,,0.00,VWS V14.01,2013-01-02 23:08:00,
2013-01-02 17:09:00,16.2,13.3,29.88,SE,125,0.0,0.0,88,0.00,,,0.00,VWS V14.01,2013-01-02 23:09:00,
2013-01-02 17:10:00,16.2,13.3,29.88,SE,125,0.0,0.0,88,0.00,,,0.00,VWS V14.01,2013-01-02 23:10:00,
2013-01-02 17:11:00,16.2,13.3,29.88,SE,125,0.0,0.0,88,0.00,,,0.00,VWS V14.01,2013-01-02 23:11:00,
2013-01-02 17:12:00,16.2,13.3,29.88,SE,125,0.0,0.0,88,0.00,,,0.00,VWS V14.01,2013-01-02 23:12:00,
2013-01-02 17:13:00,16.2,13.3,29.88,SE,125,0.0,0.0,88,0.00,,,0.00,VWS V14.01,2013-01-02 23:13:00,
2013-01-02 17:14:00,16.2,13.3,29.88,SE,125,0.0,0.0,88,0.00,,,0.00,VWS V14.01,2013-01-02 23:14:00,
2013-01-02 17:15:00,16.2,13.3,29.88,SE,125,0.0,0.0,88,0.00,,,0.00,VWS V14.01,2013-01-02 23:15:00,
2013-01-02 17:16:00,16.2,13.3,29.88,SE,125,0.0,0.0,88,0.00,,,0.00,VWS V14.01,2013-01-02 23:16:00,
2013-01-02 17:17:00,16.2,13.3,29.88,SE,125,0.0,0.0,88,0.00,,,0.00,VWS V14.01,2013-01-02 23:17:00,
2013-01-02 17:18:00,16.2,13.3,29.88,SE,125,0.0,1.0,88,0.00,,,0.00,VWS V14.01,2013-01-02 23:18:00,
2013-01-02 17:19:00,16.2,13.3,29.88,SE,125,0.0,1.0,88,0.00,,,0.00,VWS V14.01,2013-01-02 23:19:00,
2013-01-02 17:20:00,16.2,13.3,29.88,SE,125,0.0,1.0,88,0.00,,,0.00,VWS V14.01,2013-01-02 23:20:00,
2013-01-02 17:21:00,16.2,13.3,29.88,SE,125,0.0,1.0,88,0.00,,,0.00,VWS V14.01,2013-01-02 23:21:00,
2013-01-02 17:22:00,16.2,13.3,29.88,SE,125,0.0,1.0,88,0.00,,,0.00,VWS V14.01,2013-01-02 23:22:00,
2013-01-02 17:23:00,16.2,13.3,29.88,SE,125,0.0,1.0,88,0.00,,,0.00,VWS V14.01,2013-01-02 23:23:00,
2013-01-02 17:24:00,16.2,13.3,29.88,SE,125,0.0,1.0,88,0.00,,,0.00,VWS V14.01,2013-01-02 23:24:00,
2013-01-02 17:25:00,16.2,13.5,29.88,SE,125,0.0,1.0,89,0.00,,,0.00,VWS V14.01,2013-01-02 23:25:00,
2013-01-02 17:26:00,16.2,13.3,29.88,SE,125,0.0,1.0,88,0.00,,,0.00,VWS V14.01,2013-01-02 23:26:00,
2013-01-02 17:27:00,16.2,13.3,29.88,SE,125,0.0,1.0,88,0.00,,,0.00,VWS V14.01,2013-01-02 23:27:00,
2013-01-02 17:28:00,16.2,13.3,29.88,SE,125,1.0,2.0,88,0.00,,,0.00,VWS V14.01,2013-01-02 23:28:00,
2013-01-02 17:29:00,16.2,13.3,29.88,SE,125,0.0,2.0,88,0.00,,,0.00,VWS V14.01,2013-01-02 23:29:00,
2013-01-02 17:30:00,16.2,13.3,29.89,SE,125,0.0,2.0,88,0.00,,,0.00,VWS V14.01,2013-01-02 23:30:00,
2013-01-02 17:31:00,16.2,13.3,29.89,SE,125,0.0,1.0,88,0.00,,,0.00,VWS V14.01,2013-01-02 23:31:00,
2013-01-02 17:32:00,16.2,13.3,29.89,SE,125,0.0,1.0,88,0.00,,,0.00,VWS V14.01,2013-01-02 23:32:00,
2013-01-02 17:33:00,16.2,13.3,29.89,SE,125,0.0,1.0,88,0.00,,,0.00,VWS V14.01,2013-01-02 23:33:00,
2013-01-02 17:34:00,16.2,13.3,29.89,SE,125,0.0,1.0,88,0.00,,,0.00,VWS V14.01,2013-01-02 23:34:00,
2013-01-02 17:35:00,16.2,13.3,29.89,SE,125,0.0,1.0,88,0.00,,,0.00,VWS V14.01,2013-01-02 23:35:00,
2013-01-02 17:36:00,16.2,13.3,29.89,SE,125,0.0,1.0,88,0.00,,,0.00,VWS V14.01,2013-01-02 23:36:00,
2013-01-02 17:37:00,16.2,13.3,29.89,SE,125,0.0,1.0,88,0.00,,,0.00,VWS V14.01,2013-01-02 23:37:00,
2013-01-02 17:38:00,16.2,13.3,29.89,SE,125,0.0,1.0,88,0.00,,,0.00,VWS V14.01,2013-01-02 23:38:00,
2013-01-02 17:39:00,16.2,13.3,29.89,SE,125,0.0,1.0,88,0.00,,,0.00,VWS V14.01,2013-01-02 23:39:00,
2013-01-02 17:40:00,16.2,13.3,29.89,SE,125,0.0,1.0,88,0.00,,,0.00,VWS V14.01,2013-01-02 23:40:00,
2013-01-02 17:41:00,16.2,13.3,29.89,SE,125,0.0,1.0,88,0.00,,,0.00,VWS V14.01,2013-01-02 23:41:00,
2013-01-02 17:42:00,16.2,13.3,29.89,SE,125,0.0,1.0,88,0.00,,,0.00,VWS V14.01,2013-01-02 23:42:00,
2013-01-02 17:43:00,16.2,13.3,29.89,SE,125,0.0,1.0,88,0.00,,,0.00,VWS V14.01,2013-01-02 23:43:00,
2013-01-02 17:44:00,16.2,13.3,29.89,SE,125,0.0,1.0,88,0.00,,,0.00,VWS V14.01,2013-01-02 23:44:00,
2013-01-02 17:45:00,16.2,13.3,29.90,SE,125,0.0,1.0,88,0.00,,,0.00,VWS V14.01,2013-01-02 23:45:00,
2013-01-02 17:46:00,16.2,13.3,29.90,SE,125,0.0,1.0,88,0.00,,,0.00,VWS V14.01,2013-01-02 23:46:00,
2013-01-02 17:47:00,16.2,13.3,29.90,SE,125,2.0,2.0,88,0.00,,,0.00,VWS V14.01,2013-01-02 23:47:00,
2013-01-02 17:48:00,16.2,13.3,29.90,SE,125,0.0,3.0,88,0.00,,,0.00,VWS V14.01,2013-01-02 23:48:00,
2013-01-02 17:49:00,16.2,13.3,29.90,SE,125,0.0,3.0,88,0.00,,,0.00,VWS V14.01,2013-01-02 23:49:00,
2013-01-02 17:50:00,16.2,13.3,29.90,SE,125,0.0,3.0,88,0.00,,,0.00,VWS V14.01,2013-01-02 23:50:00,
2013-01-02 17:51:00,16.2,13.5,29.90,SE,125,0.0,3.0,89,0.00,,,0.00,VWS V14.01,2013-01-02 23:51:00,
2013-01-02 17:52:00,16.2,13.5,29.90,SE,125,0.0,3.0,89,0.00,,,0.00,VWS V14.01,2013-01-02 23:52:00,
2013-01-02 17:53:00,16.2,13.5,29.90,SE,125,0.0,3.0,89,0.00,,,0.00,VWS V14.01,2013-01-02 23:53:00,
2013-01-02 17:54:00,16.2,13.5,29.90,SE,125,0.0,3.0,89,0.00,,,0.00,VWS V14.01,2013-01-02 23:54:00,
2013-01-02 17:55:00,16.2,13.5,29.90,SE,125,0.0,3.0,89,0.00,,,0.00,VWS V14.01,2013-01-02 23:55:00,
2013-01-02 17:56:00,16.2,13.5,29.90,SE,125,0.0,3.0,89,0.00,,,0.00,VWS V14.01,2013-01-02 23:56:00,
2013-01-02 17:57:00,16.2,13.3,29.90,SE,125,0.0,3.0,88,0.00,,,0.00,VWS V14.01,2013-01-02 23:57:00,
2013-01-02 17:58:00,16.2,13.3,29.90,SE,125,0.0,3.0,88,0.00,,,0.00,VWS V14.01,2013-01-02 23:58:00,
2013-01-02 17:59:00,16.2,13.3,29.90,SE,125,0.0,3.0,88,0.00,,,0.00,VWS V14.01,2013-01-02 23:59:00,
2013-01-02 18:00:00,16.2,13.3,29.90,SE,125,0.0,3.0,88,0.00,,,0.00,VWS V14.01,2013-01-03 00:00:00,
2013-01-02 18:01:00,16.2,13.3,29.90,SE,125,0.0,0.0,88,0.00,,,0.00,VWS V14.01,2013-01-03 00:01:00,
2013-01-02 18:02:00,16.2,13.5,29.90,SE,125,0.0,0.0,89,0.00,,,0.00,VWS V14.01,2013-01-03 00:02:00,
2013-01-02 18:03:00,16.2,13.5,29.90,SE,125,0.0,0.0,89,0.00,,,0.00,VWS V14.01,2013-01-03 00:03:00,
2013-01-02 18:04:00,16.2,13.5,29.90,SE,125,0.0,0.0,89,0.00,,,0.00,VWS V14.01,2013-01-03 00:04:00,
2013-01-02 18:05:00,16.2,13.5,29.90,SE,125,0.0,0.0,89,0.00,,,0.00,VWS V14.01,2013-01-03 00:05:00,
2013-01-02 18:06:00,16.2,13.5,29.90,SE,125,0.0,0.0,89,0.00,,,0.00,VWS V14.01,2013-01-03 00:06:00,
2013-01-02 18:07:00,16.2,13.5,29.90,SE,125,0.0,0.0,89,0.00,,,0.00,VWS V14.01,2013-01-03 00:07:00,
2013-01-02 18:08:00,16.2,13.5,29.90,SE,125,0.0,0.0,89,0.00,,,0.00,VWS V14.01,2013-01-03 00:08:00,
2013-01-02 18:09:00,16.2,13.5,29.90,SE,125,0.0,0.0,89,0.00,,,0.00,VWS V14.01,2013-01-03 00:09:00,
2013-01-02 18:10:00,16.2,13.5,29.90,SE,125,0.0,0.0,89,0.00,,,0.00,VWS V14.01,2013-01-03 00:10:00,
2013-01-02 18:11:00,16.2,13.5,29.90,SE,125,0.0,0.0,89,0.00,,,0.00,VWS V14.01,2013-01-03 00:11:00,
2013-01-02 18:12:00,16.4,13.7,29.90,SE,125,0.0,0.0,89,0.00,,,0.00,VWS V14.01,2013-01-03 00:12:00,
2013-01-02 18:13:00,16.4,13.7,29.90,SE,125,0.0,0.0,89,0.00,,,0.00,VWS V14.01,2013-01-03 00:13:00,
2013-01-02 18:14:00,16.4,13.7,29.90,SE,125,0.0,0.0,89,0.00,,,0.00,VWS V14.01,2013-01-03 00:14:00,
2013-01-02 18:15:00,16.4,13.7,29.91,SE,125,0.0,0.0,89,0.00,,,0.00,VWS V14.01,2013-01-03 00:15:00,
2013-01-02 18:16:00,16.4,13.7,29.91,SE,125,0.0,0.0,89,0.00,,,0.00,VWS V14.01,2013-01-03 00:16:00,
2013-01-02 18:17:00,16.4,13.7,29.91,SE,125,0.0,0.0,89,0.00,,,0.00,VWS V14.01,2013-01-03 00:17:00,
2013-01-02 18:18:00,16.4,13.7,29.91,SE,125,0.0,0.0,89,0.00,,,0.00,VWS V14.01,2013-01-03 00:18:00,
2013-01-02 18:19:00,16.4,13.5,29.91,SE,125,0.0,0.0,88,0.00,,,0.00,VWS V14.01,2013-01-03 00:19:00,
2013-01-02 18:20:00,16.4,13.7,29.91,SE,125,0.0,0.0,89,0.00,,,0.00,VWS V14.01,2013-01-03 00:20:00,
2013-01-02 18:21:00,16.4,13.7,29.91,SE,125,0.0,0.0,89,0.00,,,0.00,VWS V14.01,2013-01-03 00:21:00,
2013-01-02 18:22:00,16.2,13.5,29.91,SE,125,0.0,0.0,89,0.00,,,0.00,VWS V14.01,2013-01-03 00:22:00,
2013-01-02 18:23:00,16.4,13.5,29.91,SE,125,0.0,0.0,88,0.00,,,0.00,VWS V14.01,2013-01-03 00:23:00,
2013-01-02 18:24:00,16.2,13.3,29.91,SE,125,0.0,1.0,88,0.00,,,0.00,VWS V14.01,2013-01-03 00:24:00,
2013-01-02 18:25:00,16.2,13.3,29.91,SE,125,0.0,1.0,88,0.00,,,0.00,VWS V14.01,2013-01-03 00:25:00,
2013-01-02 18:26:00,16.2,13.3,29.91,SE,125,0.0,1.0,88,0.00,,,0.00,VWS V14.01,2013-01-03 00:26:00,
2013-01-02 18:27:00,16.2,13.3,29.91,SE,125,0.0,1.0,88,0.00,,,0.00,VWS V14.01,2013-01-03 00:27:00,
2013-01-02 18:28:00,16.2,13.5,29.91,SE,125,0.0,1.0,89,0.00,,,0.00,VWS V14.01,2013-01-03 00:28:00,
2013-01-02 18:29:00,16.2,13.5,29.91,SE,125,0.0,1.0,89,0.00,,,0.00,VWS V14.01,2013-01-03 00:29:00,
2013-01-02 18:30:00,16.4,13.7,29.91,SE,125,0.0,1.0,89,0.00,,,0.00,VWS V14.01,2013-01-03 00:30:00,
2013-01-02 18:31:00,16.4,13.7,29.91,SE,125,0.0,0.0,89,0.00,,,0.00,VWS V14.01,2013-01-03 00:31:00,
2013-01-02 18:32:00,16.4,13.7,29.91,SE,125,0.0,0.0,89,0.00,,,0.00,VWS V14.01,2013-01-03 00:32:00,
2013-01-02 18:33:00,16.4,13.7,29.91,SE,125,0.0,0.0,89,0.00,,,0.00,VWS V14.01,2013-01-03 00:33:00,
2013-01-02 18:34:00,16.4,13.7,29.91,SE,125,0.0,0.0,89,0.00,,,0.00,VWS V14.01,2013-01-03 00:34:00,
2013-01-02 18:35:00,16.4,13.7,29.91,SE,125,0.0,0.0,89,0.00,,,0.00,VWS V14.01,2013-01-03 00:35:00,
2013-01-02 18:36:00,16.4,13.7,29.91,SE,125,0.0,0.0,89,0.00,,,0.00,VWS V14.01,2013-01-03 00:36:00,
2013-01-02 18:37:00,16.4,13.7,29.91,SE,125,0.0,0.0,89,0.00,,,0.00,VWS V14.01,2013-01-03 00:37:00,
2013-01-02 18:38:00,16.4,13.7,29.91,SE,125,0.0,0.0,89,0.00,,,0.00,VWS V14.01,2013-01-03 00:38:00,
2013-01-02 18:39:00,16.4,13.7,29.91,SE,125,0.0,0.0,89,0.00,,,0.00,VWS V14.01,2013-01-03 00:39:00,
2013-01-02 18:40:00,16.4,13.7,29.91,SE,125,0.0,1.0,89,0.00,,,0.00,VWS V14.01,2013-01-03 00:40:00,
2013-01-02 18:41:00,16.4,13.7,29.91,SE,125,1.0,1.0,89,0.00,,,0.00,VWS V14.01,2013-01-03 00:41:00,
2013-01-02 18:42:00,16.4,13.7,29.91,SE,125,0.0,1.0,89,0.00,,,0.00,VWS V14.01,2013-01-03 00:42:00,
2013-01-02 18:43:00,16.4,13.7,29.91,SE,125,0.0,1.0,89,0.00,,,0.00,VWS V14.01,2013-01-03 00:43:00,
2013-01-02 18:44:00,16.4,13.7,29.91,SE,125,0.0,1.0,89,0.00,,,0.00,VWS V14.01,2013-01-03 00:44:00,
2013-01-02 18:45:00,16.4,13.7,29.91,SE,125,0.0,1.0,89,0.00,,,0.00,VWS V14.01,2013-01-03 00:45:00,
2013-01-02 18:46:00,16.4,13.7,29.91,SE,125,0.0,1.0,89,0.00,,,0.00,VWS V14.01,2013-01-03 00:46:00,
2013-01-02 18:47:00,16.4,13.7,29.91,SE,125,0.0,1.0,89,0.00,,,0.00,VWS V14.01,2013-01-03 00:47:00,
2013-01-02 18:48:00,16.4,13.7,29.91,SE,125,0.0,1.0,89,0.00,,,0.00,VWS V14.01,2013-01-03 00:48:00,
2013-01-02 18:49:00,16.4,13.7,29.91,SE,125,0.0,1.0,89,0.00,,,0.00,VWS V14.01,2013-01-03 00:49:00,
2013-01-02 18:50:00,16.4,13.7,29.91,SE,125,1.0,2.0,89,0.00,,,0.00,VWS V14.01,2013-01-03 00:50:00,
2013-01-02 18:51:00,16.4,13.7,29.91,SE,125,0.0,2.0,89,0.00,,,0.00,VWS V14.01,2013-01-03 00:51:00,
2013-01-02 18:52:00,16.4,13.7,29.91,SE,125,0.0,2.0,89,0.00,,,0.00,VWS V14.01,2013-01-03 00:52:00,
2013-01-02 18:53:00,16.4,13.7,29.91,SE,125,0.0,2.0,89,0.00,,,0.00,VWS V14.01,2013-01-03 00:53:00,
2013-01-02 18:54:00,16.4,13.7,29.91,SE,125,0.0,2.0,89,0.00,,,0.00,VWS V14.01,2013-01-03 00:54:00,
2013-01-02 18:55:00,16.4,13.7,29.91,SE,125,0.0,2.0,89,0.00,,,0.00,VWS V14.01,2013-01-03 00:55:00,
2013-01-02 18:56:00,16.4,13.7,29.91,SE,125,0.0,2.0,89,0.00,,,0.00,VWS V14.01,2013-01-03 00:56:00,
2013-01-02 18:57:00,16.4,13.7,29.91,SE,125,0.0,2.0,89,0.00,,,0.00,VWS V14.01,2013-01-03 00:57:00,
2013-01-02 18:58:00,16.5,13.8,29.91,SE,125,0.0,2.0,89,0.00,,,0.00,VWS V14.01,2013-01-03 00:58:00,
2013-01-02 18:59:00,16.5,13.8,29.91,SE,125,0.0,2.0,89,0.00,,,0.00,VWS V14.01,2013-01-03 00:59:00,
2013-01-02 19:00:00,16.5,13.8,29.91,SE,125,0.0,2.0,89,0.00,,,0.00,VWS V14.01,2013-01-03 01:00:00,
2013-01-02 19:01:00,16.5,13.8,29.91,SE,125,0.0,0.0,89,0.00,,,0.00,VWS V14.01,2013-01-03 01:01:00,
2013-01-02 19:02:00,16.5,13.8,29.91,SE,125,0.0,0.0,89,0.00,,,0.00,VWS V14.01,2013-01-03 01:02:00,
2013-01-02 19:03:00,16.5,13.8,29.91,SE,125,0.0,0.0,89,0.00,,,0.00,VWS V14.01,2013-01-03 01:03:00,
2013-01-02 19:04:00,16.5,13.8,29.91,SE,125,0.0,0.0,89,0.00,,,0.00,VWS V14.01,2013-01-03 01:04:00,
2013-01-02 19:05:00,16.5,13.8,29.91,SE,125,0.0,0.0,89,0.00,,,0.00,VWS V14.01,2013-01-03 01:05:00,
2013-01-02 19:06:00,16.5,13.8,29.91,SE,125,0.0,0.0,89,0.00,,,0.00,VWS V14.01,2013-01-03 01:06:00,
2013-01-02 19:07:00,16.5,13.8,29.91,SE,125,0.0,0.0,89,0.00,,,0.00,VWS V14.01,2013-01-03 01:07:00,
2013-01-02 19:08:00,16.5,13.8,29.91,SE,125,0.0,0.0,89,0.00,,,0.00,VWS V14.01,2013-01-03 01:08:00,
2013-01-02 19:09:00,16.5,13.8,29.91,SE,125,0.0,1.0,89,0.00,,,0.00,VWS V14.01,2013-01-03 01:09:00,
2013-01-02 19:10:00,16.5,13.8,29.91,SE,125,0.0,1.0,89,0.00,,,0.00,VWS V14.01,2013-01-03 01:10:00,
2013-01-02 19:11:00,16.5,13.8,29.91,SE,125,0.0,1.0,89,0.00,,,0.00,VWS V14.01,2013-01-03 01:11:00,
2013-01-02 19:12:00,16.5,13.8,29.91,SE,125,0.0,1.0,89,0.00,,,0.00,VWS V14.01,2013-01-03 01:12:00,
2013-01-02 19:13:00,16.5,13.8,29.91,SE,125,0.0,1.0,89,0.00,,,0.00,VWS V14.01,2013-01-03 01:13:00,
2013-01-02 19:14:00,16.5,13.8,29.91,SE,125,0.0,1.0,89,0.00,,,0.00,VWS V14.01,2013-01-03 01:14:00,
2013-01-02 19:15:00,16.5,13.8,29.91,SE,125,0.0,1.0,89,0.00,,,0.00,VWS V14.01,2013-01-03 01:15:00,
2013-01-02 19:16:00,16.5,13.8,29.91,SE,125,0.0,1.0,89,0.00,,,0.00,VWS V14.01,2013-01-03 01:16:00,
2013-01-02 19:17:00,16.7,14.0,29.91,SE,125,0.0,1.0,89,0.00,,,0.00,VWS V14.01,2013-01-03 01:17:00,
2013-01-02 19:18:00,16.7,14.0,29.91,SE,125,0.0,1.0,89,0.00,,,0.00,VWS V14.01,2013-01-03 01:18:00,
2013-01-02 19:19:00,16.7,14.0,29.91,SE,125,0.0,1.0,89,0.00,,,0.00,VWS V14.01,2013-01-03 01:19:00,
2013-01-02 19:20:00,16.7,14.0,29.91,SE,125,0.0,1.0,89,0.00,,,0.00,VWS V14.01,2013-01-03 01:20:00,
2013-01-02 19:21:00,16.7,14.0,29.91,SE,125,0.0,1.0,89,0.00,,,0.00,VWS V14.01,2013-01-03 01:21:00,
2013-01-02 19:22:00,16.7,14.0,29.91,SE,125,0.0,1.0,89,0.00,,,0.00,VWS V14.01,2013-01-03 01:22:00,
2013-01-02 19:23:00,16.7,14.0,29.91,SE,125,0.0,1.0,89,0.00,,,0.00,VWS V14.01,2013-01-03 01:23:00,
2013-01-02 19:24:00,16.7,14.0,29.91,SE,125,0.0,1.0,89,0.00,,,0.00,VWS V14.01,2013-01-03 01:24:00,
2013-01-02 19:25:00,16.7,14.0,29.91,SE,125,0.0,1.0,89,0.00,,,0.00,VWS V14.01,2013-01-03 01:25:00,
2013-01-02 19:26:00,16.7,14.0,29.91,SE,125,0.0,1.0,89,0.00,,,0.00,VWS V14.01,2013-01-03 01:26:00,
2013-01-02 19:27:00,16.7,14.0,29.91,SE,125,0.0,1.0,89,0.00,,,0.00,VWS V14.01,2013-01-03 01:27:00,
2013-01-02 19:28:00,16.7,14.0,29.91,SE,125,0.0,1.0,89,0.00,,,0.00,VWS V14.01,2013-01-03 01:28:00,
2013-01-02 19:29:00,16.9,14.2,29.91,SE,125,0.0,1.0,89,0.00,,,0.00,VWS V14.01,2013-01-03 01:29:00,
2013-01-02 19:30:00,16.9,14.2,29.91,SE,125,0.0,1.0,89,0.00,,,0.00,VWS V14.01,2013-01-03 01:30:00,
2013-01-02 19:31:00,16.9,14.2,29.91,SE,125,0.0,0.0,89,0.00,,,0.00,VWS V14.01,2013-01-03 01:31:00,
2013-01-02 19:32:00,16.9,14.2,29.91,SE,125,0.0,0.0,89,0.00,,,0.00,VWS V14.01,2013-01-03 01:32:00,
2013-01-02 19:33:00,16.9,14.2,29.91,SE,125,0.0,0.0,89,0.00,,,0.00,VWS V14.01,2013-01-03 01:33:00,
2013-01-02 19:34:00,16.9,14.2,29.91,SE,125,0.0,0.0,89,0.00,,,0.00,VWS V14.01,2013-01-03 01:34:00,
2013-01-02 19:35:00,16.9,14.2,29.91,SE,125,0.0,0.0,89,0.00,,,0.00,VWS V14.01,2013-01-03 01:35:00,
2013-01-02 19:36:00,16.9,14.2,29.91,SE,125,0.0,0.0,89,0.00,,,0.00,VWS V14.01,2013-01-03 01:36:00,
2013-01-02 19:37:00,16.9,14.2,29.91,SE,125,0.0,0.0,89,0.00,,,0.00,VWS V14.01,2013-01-03 01:37:00,
2013-01-02 19:38:00,16.9,14.2,29.91,SE,125,0.0,0.0,89,0.00,,,0.00,VWS V14.01,2013-01-03 01:38:00,
2013-01-02 19:39:00,16.9,14.2,29.91,SE,125,0.0,0.0,89,0.00,,,0.00,VWS V14.01,2013-01-03 01:39:00,
2013-01-02 19:40:00,16.9,14.2,29.91,SE,125,0.0,0.0,89,0.00,,,0.00,VWS V14.01,2013-01-03 01:40:00,
2013-01-02 19:41:00,16.9,14.2,29.91,SE,125,0.0,0.0,89,0.00,,,0.00,VWS V14.01,2013-01-03 01:41:00,
2013-01-02 19:42:00,17.0,14.3,29.91,SE,125,0.0,0.0,89,0.00,,,0.00,VWS V14.01,2013-01-03 01:42:00,
2013-01-02 19:43:00,17.0,14.3,29.91,SE,125,0.0,0.0,89,0.00,,,0.00,VWS V14.01,2013-01-03 01:43:00,
2013-01-02 19:44:00,17.0,14.3,29.91,SE,125,0.0,0.0,89,0.00,,,0.00,VWS V14.01,2013-01-03 01:44:00,
2013-01-02 19:45:00,17.0,14.3,29.91,SE,125,0.0,0.0,89,0.00,,,0.00,VWS V14.01,2013-01-03 01:45:00,
2013-01-02 19:46:00,17.0,14.3,29.91,SE,125,0.0,0.0,89,0.00,,,0.00,VWS V14.01,2013-01-03 01:46:00,
2013-01-02 19:47:00,17.0,14.3,29.91,SE,125,0.0,0.0,89,0.00,,,0.00,VWS V14.01,2013-01-03 01:47:00,
2013-01-02 19:48:00,17.0,14.3,29.91,SE,125,0.0,0.0,89,0.00,,,0.00,VWS V14.01,2013-01-03 01:48:00,
2013-01-02 19:49:00,17.0,14.3,29.91,SE,125,0.0,0.0,89,0.00,,,0.00,VWS V14.01,2013-01-03 01:49:00,
2013-01-02 19:50:00,17.0,14.3,29.91,SE,125,0.0,0.0,89,0.00,,,0.00,VWS V14.01,2013-01-03 01:50:00,
2013-01-02 19:51:00,17.0,14.3,29.91,SE,125,0.0,0.0,89,0.00,,,0.00,VWS V14.01,2013-01-03 01:51:00,
2013-01-02 19:52:00,17.0,14.3,29.91,SE,125,0.0,0.0,89,0.00,,,0.00,VWS V14.01,2013-01-03 01:52:00,
2013-01-02 19:53:00,17.0,14.3,29.91,SE,125,0.0,0.0,89,0.00,,,0.00,VWS V14.01,2013-01-03 01:53:00,
2013-01-02 19:54:00,17.0,14.3,29.91,SE,125,0.0,0.0,89,0.00,,,0.00,VWS V14.01,2013-01-03 01:54:00,
2013-01-02 19:55:00,17.0,14.3,29.91,SE,125,0.0,0.0,89,0.00,,,0.00,VWS V14.01,2013-01-03 01:55:00,
2013-01-02 19:56:00,17.0,14.3,29.91,SE,125,0.0,0.0,89,0.00,,,0.00,VWS V14.01,2013-01-03 01:56:00,
2013-01-02 19:57:00,17.2,14.5,29.91,SE,125,0.0,0.0,89,0.00,,,0.00,VWS V14.01,2013-01-03 01:57:00,
2013-01-02 19:58:00,17.2,14.5,29.91,SE,125,0.0,0.0,89,0.00,,,0.00,VWS V14.01,2013-01-03 01:58:00,
2013-01-02 19:59:00,17.2,14.5,29.91,SE,125,0.0,0.0,89,0.00,,,0.00,VWS V14.01,2013-01-03 01:59:00,
2013-01-02 20:00:00,17.2,14.5,29.91,SE,125,0.0,0.0,89,0.00,,,0.00,VWS V14.01,2013-01-03 02:00:00,
2013-01-02 20:01:00,17.2,14.5,29.91,SE,125,0.0,0.0,89,0.00,,,0.00,VWS V14.01,2013-01-03 02:01:00,
2013-01-02 20:02:00,17.2,14.5,29.91,SE,125,0.0,0.0,89,0.00,,,0.00,VWS V14.01,2013-01-03 02:02:00,
2013-01-02 20:03:00,17.2,14.5,29.91,SE,125,0.0,0.0,89,0.00,,,0.00,VWS V14.01,2013-01-03 02:03:00,
2013-01-02 20:04:00,17.2,14.5,29.91,SE,125,0.0,0.0,89,0.00,,,0.00,VWS V14.01,2013-01-03 02:04:00,
2013-01-02 20:05:00,17.2,14.5,29.91,SE,125,0.0,0.0,89,0.00,,,0.00,VWS V14.01,2013-01-03 02:05:00,
2013-01-02 20:06:00,17.2,14.5,29.91,SE,125,0.0,0.0,89,0.00,,,0.00,VWS V14.01,2013-01-03 02:06:00,
2013-01-02 20:07:00,17.2,14.5,29.91,SE,125,0.0,0.0,89,0.00,,,0.00,VWS V14.01,2013-01-03 02:07:00,
2013-01-02 20:08:00,17.2,14.5,29.91,SE,125,0.0,0.0,89,0.00,,,0.00,VWS V14.01,2013-01-03 02:08:00,
2013-01-02 20:09:00,17.2,14.5,29.91,SE,125,0.0,0.0,89,0.00,,,0.00,VWS V14.01,2013-01-03 02:09:00,
2013-01-02 20:10:00,17.2,14.5,29.91,SE,125,0.0,0.0,89,0.00,,,0.00,VWS V14.01,2013-01-03 02:10:00,
2013-01-02 20:11:00,17.2,14.5,29.91,SE,125,0.0,0.0,89,0.00,,,0.00,VWS V14.01,2013-01-03 02:11:00,
2013-01-02 20:12:00,17.2,14.5,29.91,SE,125,0.0,0.0,89,0.00,,,0.00,VWS V14.01,2013-01-03 02:12:00,
2013-01-02 20:13:00,17.2,14.5,29.91,SE,125,0.0,0.0,89,0.00,,,0.00,VWS V14.01,2013-01-03 02:13:00,
2013-01-02 20:14:00,17.3,14.6,29.91,SE,125,0.0,0.0,89,0.00,,,0.00,VWS V14.01,2013-01-03 02:14:00,
2013-01-02 20:15:00,17.3,14.6,29.91,SE,125,0.0,0.0,89,0.00,,,0.00,VWS V14.01,2013-01-03 02:15:00,
2013-01-02 20:16:00,17.3,14.6,29.91,SE,125,0.0,0.0,89,0.00,,,0.00,VWS V14.01,2013-01-03 02:16:00,
2013-01-02 20:17:00,17.3,14.6,29.91,SE,125,0.0,0.0,89,0.00,,,0.00,VWS V14.01,2013-01-03 02:17:00,
2013-01-02 20:18:00,17.3,14.6,29.91,SE,125,0.0,0.0,89,0.00,,,0.00,VWS V14.01,2013-01-03 02:18:00,
2013-01-02 20:19:00,17.3,14.6,29.91,SE,125,0.0,0.0,89,0.00,,,0.00,VWS V14.01,2013-01-03 02:19:00,
2013-01-02 20:20:00,17.3,14.9,29.91,SE,125,0.0,0.0,90,0.00,,,0.00,VWS V14.01,2013-01-03 02:20:00,
2013-01-02 20:21:00,17.3,14.9,29.91,SE,125,0.0,0.0,90,0.00,,,0.00,VWS V14.01,2013-01-03 02:21:00,
2013-01-02 20:22:00,17.3,14.9,29.91,SE,125,0.0,2.0,90,0.00,,,0.00,VWS V14.01,2013-01-03 02:22:00,
2013-01-02 20:23:00,17.3,14.9,29.91,SE,125,0.0,2.0,90,0.00,,,0.00,VWS V14.01,2013-01-03 02:23:00,
2013-01-02 20:24:00,17.5,15.1,29.91,SE,125,0.0,2.0,90,0.00,,,0.00,VWS V14.01,2013-01-03 02:24:00,
2013-01-02 20:25:00,17.5,15.1,29.91,SE,125,0.0,2.0,90,0.00,,,0.00,VWS V14.01,2013-01-03 02:25:00,
2013-01-02 20:26:00,17.5,15.1,29.91,SE,125,0.0,2.0,90,0.00,,,0.00,VWS V14.01,2013-01-03 02:26:00,
2013-01-02 20:27:00,17.5,15.1,29.91,SE,125,0.0,2.0,90,0.00,,,0.00,VWS V14.01,2013-01-03 02:27:00,
2013-01-02 20:28:00,17.5,15.1,29.91,SE,125,0.0,2.0,90,0.00,,,0.00,VWS V14.01,2013-01-03 02:28:00,
2013-01-02 20:29:00,17.5,15.1,29.91,SE,125,0.0,2.0,90,0.00,,,0.00,VWS V14.01,2013-01-03 02:29:00,
2013-01-02 20:30:00,17.5,15.1,29.91,SE,125,0.0,2.0,90,0.00,,,0.00,VWS V14.01,2013-01-03 02:30:00,
2013-01-02 20:31:00,17.5,15.1,29.91,SE,125,0.0,0.0,90,0.00,,,0.00,VWS V14.01,2013-01-03 02:31:00,
2013-01-02 20:32:00,17.5,15.1,29.91,SE,125,0.0,0.0,90,0.00,,,0.00,VWS V14.01,2013-01-03 02:32:00,
2013-01-02 20:33:00,17.5,15.1,29.91,SE,125,0.0,0.0,90,0.00,,,0.00,VWS V14.01,2013-01-03 02:33:00,
2013-01-02 20:34:00,17.5,15.1,29.91,SE,125,0.0,0.0,90,0.00,,,0.00,VWS V14.01,2013-01-03 02:34:00,
2013-01-02 20:35:00,17.5,15.1,29.91,SE,125,0.0,0.0,90,0.00,,,0.00,VWS V14.01,2013-01-03 02:35:00,
2013-01-02 20:36:00,17.7,15.3,29.91,SE,125,0.0,0.0,90,0.00,,,0.00,VWS V14.01,2013-01-03 02:36:00,
2013-01-02 20:37:00,17.7,15.3,29.91,SE,125,0.0,0.0,90,0.00,,,0.00,VWS V14.01,2013-01-03 02:37:00,
2013-01-02 20:38:00,17.7,15.3,29.91,SE,125,0.0,0.0,90,0.00,,,0.00,VWS V14.01,2013-01-03 02:38:00,
2013-01-02 20:39:00,17.7,15.3,29.91,SE,125,0.0,0.0,90,0.00,,,0.00,VWS V14.01,2013-01-03 02:39:00,
2013-01-02 20:40:00,17.7,15.3,29.91,SE,125,0.0,0.0,90,0.00,,,0.00,VWS V14.01,2013-01-03 02:40:00,
2013-01-02 20:41:00,17.7,15.3,29.91,SE,125,0.0,0.0,90,0.00,,,0.00,VWS V14.01,2013-01-03 02:41:00,
2013-01-02 20:42:00,17.7,15.3,29.91,SE,125,0.0,0.0,90,0.00,,,0.00,VWS V14.01,2013-01-03 02:42:00,
2013-01-02 20:43:00,17.8,15.4,29.91,SE,125,0.0,0.0,90,0.00,,,0.00,VWS V14.01,2013-01-03 02:43:00,
2013-01-02 20:44:00,17.8,15.4,29.91,SE,125,0.0,0.0,90,0.00,,,0.00,VWS V14.01,2013-01-03 02:44:00,
2013-01-02 20:45:00,17.8,15.4,29.92,SE,125,0.0,0.0,90,0.00,,,0.00,VWS V14.01,2013-01-03 02:45:00,
2013-01-02 20:46:00,17.8,15.4,29.92,SE,125,0.0,0.0,90,0.00,,,0.00,VWS V14.01,2013-01-03 02:46:00,
2013-01-02 20:47:00,17.8,15.4,29.92,SE,125,0.0,0.0,90,0.00,,,0.00,VWS V14.01,2013-01-03 02:47:00,
2013-01-02 20:48:00,17.8,15.4,29.92,SE,125,0.0,0.0,90,0.00,,,0.00,VWS V14.01,2013-01-03 02:48:00,
2013-01-02 20:49:00,17.8,15.4,29.92,SE,125,0.0,0.0,90,0.00,,,0.00,VWS V14.01,2013-01-03 02:49:00,
2013-01-02 20:50:00,18.0,15.6,29.92,SE,125,0.0,0.0,90,0.00,,,0.00,VWS V14.01,2013-01-03 02:50:00,
2013-01-02 20:51:00,18.0,15.6,29.92,SE,125,0.0,0.0,90,0.00,,,0.00,VWS V14.01,2013-01-03 02:51:00,
2013-01-02 20:52:00,18.0,15.6,29.92,SE,125,0.0,0.0,90,0.00,,,0.00,VWS V14.01,2013-01-03 02:52:00,
2013-01-02 20:53:00,18.0,15.6,29.92,SE,125,0.0,0.0,90,0.00,,,0.00,VWS V14.01,2013-01-03 02:53:00,
2013-01-02 20:54:00,18.0,15.6,29.92,SE,125,0.0,0.0,90,0.00,,,0.00,VWS V14.01,2013-01-03 02:54:00,
2013-01-02 20:55:00,18.0,15.6,29.92,SE,125,0.0,0.0,90,0.00,,,0.00,VWS V14.01,2013-01-03 02:55:00,
2013-01-02 20:56:00,18.1,15.7,29.92,SE,125,0.0,0.0,90,0.00,,,0.00,VWS V14.01,2013-01-03 02:56:00,
2013-01-02 20:57:00,18.1,15.7,29.92,SE,125,0.0,0.0,90,0.00,,,0.00,VWS V14.01,2013-01-03 02:57:00,
2013-01-02 20:58:00,18.1,15.7,29.92,SE,125,0.0,1.0,90,0.00,,,0.00,VWS V14.01,2013-01-03 02:58:00,
2013-01-02 20:59:00,18.1,15.7,29.92,SE,125,0.0,1.0,90,0.00,,,0.00,VWS V14.01,2013-01-03 02:59:00,
2013-01-02 21:00:00,18.1,15.7,29.92,SE,125,0.0,1.0,90,0.00,,,0.00,VWS V14.01,2013-01-03 03:00:00,
2013-01-02 21:01:00,18.1,15.7,29.92,SE,125,0.0,0.0,90,0.00,,,0.00,VWS V14.01,2013-01-03 03:01:00,
2013-01-02 21:02:00,18.3,15.9,29.92,SE,125,0.0,0.0,90,0.00,,,0.00,VWS V14.01,2013-01-03 03:02:00,
2013-01-02 21:03:00,18.3,15.9,29.92,SE,125,0.0,0.0,90,0.00,,,0.00,VWS V14.01,2013-01-03 03:03:00,
2013-01-02 21:04:00,18.3,15.9,29.92,SE,125,0.0,0.0,90,0.00,,,0.00,VWS V14.01,2013-01-03 03:04:00,
2013-01-02 21:05:00,18.3,15.9,29.92,SE,125,0.0,0.0,90,0.00,,,0.00,VWS V14.01,2013-01-03 03:05:00,
2013-01-02 21:06:00,18.3,15.9,29.92,SE,125,0.0,0.0,90,0.00,,,0.00,VWS V14.01,2013-01-03 03:06:00,
2013-01-02 21:07:00,18.3,15.9,29.92,SE,125,0.0,1.0,90,0.00,,,0.00,VWS V14.01,2013-01-03 03:07:00,
2013-01-02 21:08:00,18.4,16.0,29.92,SE,125,0.0,1.0,90,0.00,,,0.00,VWS V14.01,2013-01-03 03:08:00,
2013-01-02 21:09:00,18.4,16.0,29.92,SE,125,0.0,1.0,90,0.00,,,0.00,VWS V14.01,2013-01-03 03:09:00,
2013-01-02 21:10:00,18.4,16.0,29.92,SE,125,0.0,1.0,90,0.00,,,0.00,VWS V14.01,2013-01-03 03:10:00,
2013-01-02 21:11:00,18.4,16.0,29.92,SE,125,0.0,1.0,90,0.00,,,0.00,VWS V14.01,2013-01-03 03:11:00,
2013-01-02 21:13:00,18.4,16.0,29.92,SE,125,0.0,1.0,90,0.00,,,0.00,VWS V14.01,2013-01-03 03:13:00,
2013-01-02 21:14:00,18.4,16.0,29.93,SE,125,0.0,1.0,90,0.00,,,0.00,VWS V14.01,2013-01-03 03:14:00,
2013-01-02 21:15:00,18.4,16.0,29.93,SE,125,0.0,1.0,90,0.00,,,0.00,VWS V14.01,2013-01-03 03:15:00,
2013-01-02 21:16:00,18.4,16.0,29.93,SE,125,0.0,1.0,90,0.00,,,0.00,VWS V14.01,2013-01-03 03:16:00,
2013-01-02 21:17:00,18.6,16.2,29.93,SE,125,0.0,1.0,90,0.00,,,0.00,VWS V14.01,2013-01-03 03:17:00,
2013-01-02 21:18:00,18.6,16.2,29.93,SE,125,0.0,1.0,90,0.00,,,0.00,VWS V14.01,2013-01-03 03:18:00,
2013-01-02 21:19:00,18.6,16.2,29.93,SE,125,0.0,1.0,90,0.00,,,0.00,VWS V14.01,2013-01-03 03:19:00,
2013-01-02 21:20:00,18.6,16.2,29.93,SE,125,0.0,1.0,90,0.00,,,0.00,VWS V14.01,2013-01-03 03:20:00,
2013-01-02 21:21:00,18.6,16.2,29.93,SE,125,0.0,1.0,90,0.00,,,0.00,VWS V14.01,2013-01-03 03:21:00,
2013-01-02 21:22:00,18.6,16.2,29.93,SE,125,0.0,1.0,90,0.00,,,0.00,VWS V14.01,2013-01-03 03:22:00,
2013-01-02 21:23:00,18.6,16.2,29.93,SE,125,0.0,1.0,90,0.00,,,0.00,VWS V14.01,2013-01-03 03:23:00,
2013-01-02 21:24:00,18.6,16.2,29.93,SE,125,0.0,1.0,90,0.00,,,0.00,VWS V14.01,2013-01-03 03:24:00,
2013-01-02 21:25:00,18.6,16.2,29.93,SE,125,0.0,1.0,90,0.00,,,0.00,VWS V14.01,2013-01-03 03:25:00,
2013-01-02 21:26:00,18.6,16.2,29.93,SE,125,0.0,1.0,90,0.00,,,0.00,VWS V14.01,2013-01-03 03:26:00,
2013-01-02 21:27:00,18.6,16.2,29.93,SE,125,0.0,1.0,90,0.00,,,0.00,VWS V14.01,2013-01-03 03:27:00,
2013-01-02 21:28:00,18.6,16.2,29.93,SE,125,0.0,1.0,90,0.00,,,0.00,VWS V14.01,2013-01-03 03:28:00,
2013-01-02 21:29:00,18.8,16.4,29.93,SE,125,0.0,1.0,90,0.00,,,0.00,VWS V14.01,2013-01-03 03:29:00,
2013-01-02 21:30:00,18.8,16.4,29.92,ESE,123,0.0,1.0,90,0.00,,,0.00,VWS V14.01,2013-01-03 03:30:00,
2013-01-02 21:31:00,18.8,16.4,29.92,ESE,123,1.0,1.0,90,0.00,,,0.00,VWS V14.01,2013-01-03 03:31:00,
2013-01-02 21:32:00,18.8,16.4,29.92,ESE,118,1.0,1.0,90,0.00,,,0.00,VWS V14.01,2013-01-03 03:32:00,
2013-01-02 21:33:00,18.9,16.5,29.92,ESE,116,0.0,1.0,90,0.00,,,0.00,VWS V14.01,2013-01-03 03:33:00,
2013-01-02 21:34:00,18.9,16.5,29.92,ESE,116,0.0,1.0,90,0.00,,,0.00,VWS V14.01,2013-01-03 03:34:00,
2013-01-02 21:35:00,18.9,16.5,29.92,ESE,112,0.0,1.0,90,0.00,,,0.00,VWS V14.01,2013-01-03 03:35:00,
2013-01-02 21:36:00,19.1,16.7,29.92,ESE,113,0.0,1.0,90,0.00,,,0.00,VWS V14.01,2013-01-03 03:36:00,
2013-01-02 21:37:00,19.1,16.7,29.92,ESE,113,0.0,1.0,90,0.00,,,0.00,VWS V14.01,2013-01-03 03:37:00,
2013-01-02 21:38:00,19.1,16.7,29.92,ESE,113,0.0,1.0,90,0.00,,,0.00,VWS V14.01,2013-01-03 03:38:00,
2013-01-02 21:39:00,19.1,16.7,29.92,ESE,112,0.0,1.0,90,0.00,,,0.00,VWS V14.01,2013-01-03 03:39:00,
2013-01-02 21:40:00,19.1,16.7,29.92,ESE,112,1.0,1.0,90,0.00,,,0.00,VWS V14.01,2013-01-03 03:40:00,
2013-01-02 21:41:00,19.2,16.8,29.92,ESE,112,0.0,1.0,90,0.00,,,0.00,VWS V14.01,2013-01-03 03:41:00,
2013-01-02 21:42:00,19.2,16.8,29.92,ESE,112,0.0,1.0,90,0.00,,,0.00,VWS V14.01,2013-01-03 03:42:00,
2013-01-02 21:43:00,19.2,16.8,29.92,ESE,112,0.0,1.0,90,0.00,,,0.00,VWS V14.01,2013-01-03 03:43:00,
2013-01-02 21:44:00,19.2,16.8,29.92,ESE,112,0.0,1.0,90,0.00,,,0.00,VWS V14.01,2013-01-03 03:44:00,
2013-01-02 21:45:00,19.2,16.8,29.93,ESE,110,1.0,1.0,90,0.00,,,0.00,VWS V14.01,2013-01-03 03:45:00,
2013-01-02 21:46:00,19.2,16.8,29.93,ESE,110,0.0,1.0,90,0.00,,,0.00,VWS V14.01,2013-01-03 03:46:00,
2013-01-02 21:47:00,19.2,16.8,29.93,ESE,110,1.0,1.0,90,0.00,,,0.00,VWS V14.01,2013-01-03 03:47:00,
2013-01-02 21:48:00,19.4,17.0,29.93,ESE,110,0.0,1.0,90,0.00,,,0.00,VWS V14.01,2013-01-03 03:48:00,
2013-01-02 21:49:00,19.4,17.0,29.93,ESE,110,0.0,1.0,90,0.00,,,0.00,VWS V14.01,2013-01-03 03:49:00,
2013-01-02 21:50:00,19.4,17.0,29.93,ESE,110,0.0,1.0,90,0.00,,,0.00,VWS V14.01,2013-01-03 03:50:00,
2013-01-02 21:51:00,19.4,17.0,29.93,ESE,112,0.0,1.0,90,0.00,,,0.00,VWS V14.01,2013-01-03 03:51:00,
2013-01-02 21:52:00,19.4,17.0,29.93,ESE,112,0.0,1.0,90,0.00,,,0.00,VWS V14.01,2013-01-03 03:52:00,
2013-01-02 21:53:00,19.4,17.0,29.93,ESE,110,0.0,1.0,90,0.00,,,0.00,VWS V14.01,2013-01-03 03:53:00,
2013-01-02 21:54:00,19.4,17.0,29.93,ESE,112,0.0,1.0,90,0.00,,,0.00,VWS V14.01,2013-01-03 03:54:00,
2013-01-02 21:55:00,19.4,17.0,29.93,ESE,112,0.0,1.0,90,0.00,,,0.00,VWS V14.01,2013-01-03 03:55:00,
2013-01-02 21:56:00,19.5,17.0,29.93,East,101,0.0,2.0,90,0.00,,,0.00,VWS V14.01,2013-01-03 03:56:00,
2013-01-02 21:57:00,19.5,17.0,29.93,East,101,0.0,2.0,90,0.00,,,0.00,VWS V14.01,2013-01-03 03:57:00,
2013-01-02 21:58:00,19.5,17.0,29.93,East,101,0.0,2.0,90,0.00,,,0.00,VWS V14.01,2013-01-03 03:58:00,
2013-01-02 21:59:00,19.5,17.0,29.93,East,101,0.0,2.0,90,0.00,,,0.00,VWS V14.01,2013-01-03 03:59:00,
2013-01-02 22:00:00,19.5,17.0,29.93,East,101,0.0,2.0,90,0.00,,,0.00,VWS V14.01,2013-01-03 04:00:00,
2013-01-02 22:01:00,19.5,17.0,29.93,East,101,0.0,0.0,90,0.00,,,0.00,VWS V14.01,2013-01-03 04:01:00,
2013-01-02 22:02:00,19.7,17.2,29.93,East,101,0.0,0.0,90,0.00,,,0.00,VWS V14.01,2013-01-03 04:02:00,
2013-01-02 22:03:00,19.7,17.2,29.93,East,101,1.0,1.0,90,0.00,,,0.00,VWS V14.01,2013-01-03 04:03:00,
2013-01-02 22:04:00,19.7,17.2,29.93,East,101,0.0,1.0,90,0.00,,,0.00,VWS V14.01,2013-01-03 04:04:00,
2013-01-02 22:05:00,19.7,17.2,29.93,East,101,0.0,1.0,90,0.00,,,0.00,VWS V14.01,2013-01-03 04:05:00,
2013-01-02 22:06:00,19.7,17.2,29.93,East,99,0.0,1.0,90,0.00,,,0.00,VWS V14.01,2013-01-03 04:06:00,
2013-01-02 22:07:00,19.7,17.2,29.93,East,96,1.0,1.0,90,0.00,,,0.00,VWS V14.01,2013-01-03 04:07:00,
2013-01-02 22:08:00,19.7,17.2,29.93,East,96,0.0,1.0,90,0.00,,,0.00,VWS V14.01,2013-01-03 04:08:00,
2013-01-02 22:09:00,19.9,17.5,29.93,East,96,0.0,1.0,90,0.00,,,0.00,VWS V14.01,2013-01-03 04:09:00,
2013-01-02 22:10:00,19.9,17.5,29.93,East,95,0.0,1.0,90,0.00,,,0.00,VWS V14.01,2013-01-03 04:10:00,
2013-01-02 22:11:00,19.9,17.5,29.93,NW,314,3.0,5.0,90,0.00,,,0.00,VWS V14.01,2013-01-03 04:11:00,
2013-01-02 22:12:00,19.9,17.5,29.93,NW,314,0.0,5.0,90,0.00,,,0.00,VWS V14.01,2013-01-03 04:12:00,
2013-01-02 22:13:00,19.9,17.5,29.93,NW,314,0.0,5.0,90,0.00,,,0.00,VWS V14.01,2013-01-03 04:13:00,
2013-01-02 22:14:00,19.9,17.5,29.93,NW,314,0.0,5.0,90,0.00,,,0.00,VWS V14.01,2013-01-03 04:14:00,
2013-01-02 22:15:00,20.0,17.5,29.94,NW,314,3.0,5.0,90,0.00,,,0.00,VWS V14.01,2013-01-03 04:15:00,
2013-01-02 22:16:00,20.0,17.5,29.94,NW,312,5.0,5.0,90,0.00,,,0.00,VWS V14.01,2013-01-03 04:16:00,
2013-01-02 22:17:00,20.0,17.5,29.94,NW,314,1.0,6.0,90,0.00,,,0.00,VWS V14.01,2013-01-03 04:17:00,
2013-01-02 22:18:00,20.2,17.7,29.94,WNW,301,5.0,8.0,90,0.00,,,0.00,VWS V14.01,2013-01-03 04:18:00,
2013-01-02 22:19:00,20.2,17.5,29.94,West,274,1.0,8.0,89,0.00,,,0.00,VWS V14.01,2013-01-03 04:19:00,
2013-01-02 22:20:00,20.2,17.5,29.94,West,280,3.0,8.0,89,0.00,,,0.00,VWS V14.01,2013-01-03 04:20:00,
2013-01-02 22:21:00,20.3,17.6,29.94,WNW,287,0.0,8.0,89,0.00,,,0.00,VWS V14.01,2013-01-03 04:21:00,
2013-01-02 22:22:00,20.3,17.3,29.94,NW,308,5.0,10.0,88,0.00,,,0.00,VWS V14.01,2013-01-03 04:22:00,
2013-01-02 22:23:00,20.5,17.5,29.94,WNW,293,1.0,10.0,88,0.00,,,0.00,VWS V14.01,2013-01-03 04:23:00,
2013-01-02 22:24:00,20.5,17.5,29.94,NNW,329,10.0,10.0,88,0.00,,,0.00,VWS V14.01,2013-01-03 04:24:00,
2013-01-02 22:25:00,20.5,17.2,29.94,NW,321,0.0,10.0,87,0.00,,,0.00,VWS V14.01,2013-01-03 04:25:00,
2013-01-02 22:26:00,20.5,17.2,29.94,WNW,300,6.0,10.0,87,0.00,,,0.00,VWS V14.01,2013-01-03 04:26:00,
2013-01-02 22:27:00,20.5,17.2,29.94,WNW,284,0.0,10.0,87,0.00,,,0.00,VWS V14.01,2013-01-03 04:27:00,
2013-01-02 22:28:00,20.6,17.4,29.94,West,273,1.0,10.0,87,0.00,,,0.00,VWS V14.01,2013-01-03 04:28:00,
2013-01-02 22:29:00,20.6,17.1,29.94,West,273,3.0,10.0,86,0.00,,,0.00,VWS V14.01,2013-01-03 04:29:00,
2013-01-02 22:30:00,20.6,17.1,29.95,WNW,291,2.0,10.0,86,0.00,,,0.00,VWS V14.01,2013-01-03 04:30:00,
2013-01-02 22:31:00,20.6,17.1,29.95,WNW,291,1.0,3.0,86,0.00,,,0.00,VWS V14.01,2013-01-03 04:31:00,
2013-01-02 22:32:00,20.6,17.1,29.95,WNW,291,0.0,3.0,86,0.00,,,0.00,VWS V14.01,2013-01-03 04:32:00,
2013-01-02 22:34:00,20.6,16.8,29.95,WNW,295,0.0,3.0,85,0.00,,,0.00,VWS V14.01,2013-01-03 04:34:00,
2013-01-02 22:35:00,20.6,16.8,29.95,WNW,284,0.0,3.0,85,0.00,,,0.00,VWS V14.01,2013-01-03 04:35:00,
2013-01-02 22:36:00,20.6,16.8,29.95,West,278,1.0,3.0,85,0.00,,,0.00,VWS V14.01,2013-01-03 04:36:00,
2013-01-02 22:37:00,20.6,16.8,29.95,West,278,0.0,3.0,85,0.00,,,0.00,VWS V14.01,2013-01-03 04:37:00,
2013-01-02 22:38:00,20.6,16.8,29.95,West,278,1.0,3.0,85,0.00,,,0.00,VWS V14.01,2013-01-03 04:38:00,
2013-01-02 22:39:00,20.6,16.8,29.95,WNW,283,2.0,3.0,85,0.00,,,0.00,VWS V14.01,2013-01-03 04:39:00,
2013-01-02 22:40:00,20.6,16.8,29.95,WNW,283,1.0,3.0,85,0.00,,,0.00,VWS V14.01,2013-01-03 04:40:00,
2013-01-02 22:41:00,20.6,16.8,29.95,NW,305,1.0,7.0,85,0.00,,,0.00,VWS V14.01,2013-01-03 04:41:00,
2013-01-02 22:42:00,20.6,16.5,29.95,WNW,286,1.0,7.0,84,0.00,,,0.00,VWS V14.01,2013-01-03 04:42:00,
2013-01-02 22:43:00,20.6,16.5,29.95,WNW,286,1.0,7.0,84,0.00,,,0.00,VWS V14.01,2013-01-03 04:43:00,
2013-01-02 22:44:00,20.6,16.5,29.95,WNW,286,2.0,7.0,84,0.00,,,0.00,VWS V14.01,2013-01-03 04:44:00,
2013-01-02 22:45:00,20.6,16.5,29.95,WNW,291,0.0,7.0,84,0.00,,,0.00,VWS V14.01,2013-01-03 04:45:00,
2013-01-02 22:46:00,20.6,16.3,29.95,WNW,291,2.0,7.0,83,0.00,,,0.00,VWS V14.01,2013-01-03 04:46:00,
2013-01-02 22:47:00,20.6,16.3,29.95,WNW,293,1.0,7.0,83,0.00,,,0.00,VWS V14.01,2013-01-03 04:47:00,
2013-01-02 22:48:00,20.6,16.3,29.95,WNW,293,1.0,7.0,83,0.00,,,0.00,VWS V14.01,2013-01-03 04:48:00,
2013-01-02 22:49:00,20.6,16.3,29.95,WNW,293,1.0,7.0,83,0.00,,,0.00,VWS V14.01,2013-01-03 04:49:00,
2013-01-02 22:50:00,20.6,16.3,29.95,WNW,293,0.0,7.0,83,0.00,,,0.00,VWS V14.01,2013-01-03 04:50:00,
2013-01-02 22:51:00,20.6,16.3,29.95,West,270,1.0,7.0,83,0.00,,,0.00,VWS V14.01,2013-01-03 04:51:00,
2013-01-02 22:52:00,20.6,16.3,29.95,WNW,286,5.0,7.0,83,0.00,,,0.00,VWS V14.01,2013-01-03 04:52:00,
2013-01-02 22:53:00,20.6,16.3,29.95,West,277,1.0,7.0,83,0.00,,,0.00,VWS V14.01,2013-01-03 04:53:00,
2013-01-02 22:54:00,20.6,16.3,29.95,WNW,297,5.0,7.0,83,0.00,,,0.00,VWS V14.01,2013-01-03 04:54:00,
2013-01-02 22:55:00,20.6,16.3,29.95,WNW,290,6.0,7.0,83,0.00,,,0.00,VWS V14.01,2013-01-03 04:55:00,
2013-01-02 22:56:00,20.6,16.0,29.95,WNW,295,2.0,7.0,82,0.00,,,0.00,VWS V14.01,2013-01-03 04:56:00,
2013-01-02 22:57:00,20.5,15.9,29.95,NNW,331,5.0,10.0,82,0.00,,,0.00,VWS V14.01,2013-01-03 04:57:00,
2013-01-02 22:58:00,20.5,15.9,29.95,NW,310,4.0,10.0,82,0.00,,,0.00,VWS V14.01,2013-01-03 04:58:00,
2013-01-02 22:59:00,20.5,15.9,29.95,WNW,302,2.0,10.0,82,0.00,,,0.00,VWS V14.01,2013-01-03 04:59:00,
2013-01-02 23:00:00,20.5,15.9,29.95,NW,305,1.0,10.0,82,0.00,,,0.00,VWS V14.01,2013-01-03 05:00:00,
2013-01-02 23:01:00,20.5,15.9,29.95,WNW,294,2.0,6.0,82,0.00,,,0.00,VWS V14.01,2013-01-03 05:01:00,
2013-01-02 23:02:00,20.5,15.9,29.95,WNW,300,6.0,8.0,82,0.00,,,0.00,VWS V14.01,2013-01-03 05:02:00,
2013-01-02 23:03:00,20.3,15.4,29.95,WNW,298,3.0,8.0,81,0.00,,,0.00,VWS V14.01,2013-01-03 05:03:00,
2013-01-02 23:04:00,20.3,15.4,29.95,WNW,284,0.0,11.0,81,0.00,,,0.00,VWS V14.01,2013-01-03 05:04:00,
2013-01-02 23:05:00,20.3,15.4,29.95,WNW,297,1.0,11.0,81,0.00,,,0.00,VWS V14.01,2013-01-03 05:05:00,
2013-01-02 23:06:00,20.2,15.0,29.95,WNW,293,5.0,11.0,80,0.00,,,0.00,VWS V14.01,2013-01-03 05:06:00,
2013-01-02 23:07:00,20.2,15.0,29.95,WNW,300,4.0,11.0,80,0.00,,,0.00,VWS V14.01,2013-01-03 05:07:00,
2013-01-02 23:08:00,20.0,14.8,29.95,WNW,290,1.0,11.0,80,0.00,,,0.00,VWS V14.01,2013-01-03 05:08:00,
2013-01-02 23:09:00,20.0,14.8,29.95,West,270,2.0,11.0,80,0.00,,,0.00,VWS V14.01,2013-01-03 05:09:00,
2013-01-02 23:10:00,20.0,14.8,29.95,WNW,301,4.0,11.0,80,0.00,,,0.00,VWS V14.01,2013-01-03 05:10:00,
2013-01-02 23:11:00,20.0,14.8,29.95,WNW,298,0.0,11.0,80,0.00,,,0.00,VWS V14.01,2013-01-03 05:11:00,
2013-01-02 23:12:00,19.9,14.7,29.95,WNW,295,0.0,11.0,80,0.00,,,0.00,VWS V14.01,2013-01-03 05:12:00,
2013-01-02 23:13:00,19.9,14.7,29.95,West,274,0.0,11.0,80,0.00,,,0.00,VWS V14.01,2013-01-03 05:13:00,
2013-01-02 23:14:00,19.9,14.7,29.95,West,276,5.0,11.0,80,0.00,,,0.00,VWS V14.01,2013-01-03 05:14:00,
2013-01-02 23:15:00,19.9,14.7,29.95,West,278,2.0,11.0,80,0.00,,,0.00,VWS V14.01,2013-01-03 05:15:00,
2013-01-02 23:16:00,19.9,14.7,29.95,WNW,284,1.0,11.0,80,0.00,,,0.00,VWS V14.01,2013-01-03 05:16:00,
2013-01-02 23:17:00,19.9,14.7,29.95,WNW,284,2.0,11.0,80,0.00,,,0.00,VWS V14.01,2013-01-03 05:17:00,
2013-01-02 23:18:00,19.9,14.7,29.95,WNW,287,3.0,11.0,80,0.00,,,0.00,VWS V14.01,2013-01-03 05:18:00,
2013-01-02 23:19:00,19.9,14.7,29.95,WNW,294,1.0,11.0,80,0.00,,,0.00,VWS V14.01,2013-01-03 05:19:00,
2013-01-02 23:20:00,19.9,14.7,29.95,NW,311,0.0,11.0,80,0.00,,,0.00,VWS V14.01,2013-01-03 05:20:00,
2013-01-02 23:21:00,19.7,14.5,29.95,WNW,293,1.0,11.0,80,0.00,,,0.00,VWS V14.01,2013-01-03 05:21:00,
2013-01-02 23:22:00,19.7,14.5,29.95,West,270,3.0,11.0,80,0.00,,,0.00,VWS V14.01,2013-01-03 05:22:00,
2013-01-02 23:23:00,19.7,14.5,29.95,West,270,1.0,11.0,80,0.00,,,0.00,VWS V14.01,2013-01-03 05:23:00,
2013-01-02 23:24:00,19.7,14.3,29.95,West,270,2.0,11.0,79,0.00,,,0.00,VWS V14.01,2013-01-03 05:24:00,
2013-01-02 23:25:00,19.7,14.3,29.95,West,271,0.0,11.0,79,0.00,,,0.00,VWS V14.01,2013-01-03 05:25:00,
2013-01-02 23:26:00,19.5,14.1,29.95,West,270,2.0,11.0,79,0.00,,,0.00,VWS V14.01,2013-01-03 05:26:00,
2013-01-02 23:27:00,19.5,14.1,29.95,West,270,1.0,11.0,79,0.00,,,0.00,VWS V14.01,2013-01-03 05:27:00,
2013-01-02 23:28:00,19.5,14.1,29.95,West,270,3.0,11.0,79,0.00,,,0.00,VWS V14.01,2013-01-03 05:28:00,
2013-01-02 23:29:00,19.4,14.0,29.95,WNW,294,1.0,11.0,79,0.00,,,0.00,VWS V14.01,2013-01-03 05:29:00,
2013-01-02 23:30:00,19.4,14.0,29.96,West,281,3.0,11.0,79,0.00,,,0.00,VWS V14.01,2013-01-03 05:30:00,
2013-01-02 23:31:00,19.4,14.0,29.96,West,277,6.0,6.0,79,0.00,,,0.00,VWS V14.01,2013-01-03 05:31:00,
2013-01-02 23:32:00,19.2,13.8,29.96,West,281,1.0,6.0,79,0.00,,,0.00,VWS V14.01,2013-01-03 05:32:00,
2013-01-02 23:33:00,19.2,13.8,29.96,WNW,294,5.0,9.0,79,0.00,,,0.00,VWS V14.01,2013-01-03 05:33:00,
2013-01-02 23:34:00,19.2,13.8,29.96,WNW,297,1.0,9.0,79,0.00,,,0.00,VWS V14.01,2013-01-03 05:34:00,
2013-01-02 23:35:00,19.2,13.8,29.96,West,271,4.0,9.0,79,0.00,,,0.00,VWS V14.01,2013-01-03 05:35:00,
2013-01-02 23:36:00,19.1,13.7,29.96,West,270,1.0,9.0,79,0.00,,,0.00,VWS V14.01,2013-01-03 05:36:00,
2013-01-02 23:37:00,19.1,13.7,29.96,West,278,0.0,9.0,79,0.00,,,0.00,VWS V14.01,2013-01-03 05:37:00,
2013-01-02 23:38:00,19.1,13.7,29.96,West,277,1.0,9.0,79,0.00,,,0.00,VWS V14.01,2013-01-03 05:38:00,
2013-01-02 23:39:00,19.1,13.7,29.96,West,277,2.0,9.0,79,0.00,,,0.00,VWS V14.01,2013-01-03 05:39:00,
2013-01-02 23:40:00,19.1,14.0,29.96,West,281,5.0,9.0,80,0.00,,,0.00,VWS V14.01,2013-01-03 05:40:00,
2013-01-02 23:41:00,18.9,13.8,29.96,West,278,1.0,9.0,80,0.00,,,0.00,VWS V14.01,2013-01-03 05:41:00,
2013-01-02 23:42:00,18.9,13.8,29.96,West,276,3.0,9.0,80,0.00,,,0.00,VWS V14.01,2013-01-03 05:42:00,
2013-01-02 23:43:00,18.9,13.8,29.96,West,280,2.0,9.0,80,0.00,,,0.00,VWS V14.01,2013-01-03 05:43:00,
2013-01-02 23:44:00,18.9,13.8,29.96,West,280,2.0,9.0,80,0.00,,,0.00,VWS V14.01,2013-01-03 05:44:00,
2013-01-02 23:45:00,18.9,13.8,29.96,West,280,4.0,9.0,80,0.00,,,0.00,VWS V14.01,2013-01-03 05:45:00,
2013-01-02 23:46:00,18.8,13.7,29.96,WNW,288,2.0,9.0,80,0.00,,,0.00,VWS V14.01,2013-01-03 05:46:00,
2013-01-02 23:47:00,18.8,13.7,29.96,WNW,298,6.0,9.0,80,0.00,,,0.00,VWS V14.01,2013-01-03 05:47:00,
2013-01-02 23:48:00,18.8,13.7,29.96,WNW,290,1.0,9.0,80,0.00,,,0.00,VWS V14.01,2013-01-03 05:48:00,
2013-01-02 23:49:00,18.8,13.7,29.96,WNW,295,5.0,9.0,80,0.00,,,0.00,VWS V14.01,2013-01-03 05:49:00,
2013-01-02 23:50:00,18.6,13.5,29.96,WNW,295,1.0,9.0,80,0.00,,,0.00,VWS V14.01,2013-01-03 05:50:00,
2013-01-02 23:51:00,18.6,13.5,29.96,WNW,298,4.0,9.0,80,0.00,,,0.00,VWS V14.01,2013-01-03 05:51:00,
2013-01-02 23:52:00,18.6,13.5,29.96,WNW,283,1.0,9.0,80,0.00,,,0.00,VWS V14.01,2013-01-03 05:52:00,
2013-01-02 23:53:00,18.6,13.5,29.96,WNW,288,9.0,9.0,80,0.00,,,0.00,VWS V14.01,2013-01-03 05:53:00,
2013-01-02 23:54:00,18.4,13.0,29.96,NW,314,0.0,9.0,79,0.00,,,0.00,VWS V14.01,2013-01-03 05:54:00,
2013-01-02 23:55:00,18.4,13.3,29.96,WNW,290,0.0,9.0,80,0.00,,,0.00,VWS V14.01,2013-01-03 05:55:00,
2013-01-02 23:56:00,18.3,13.2,29.96,WNW,286,6.0,9.0,80,0.00,,,0.00,VWS V14.01,2013-01-03 05:56:00,
2013-01-02 23:57:00,18.3,12.9,29.96,West,271,0.0,9.0,79,0.00,,,0.00,VWS V14.01,2013-01-03 05:57:00,
2013-01-02 23:58:00,18.1,12.7,29.96,WNW,284,1.0,9.0,79,0.00,,,0.00,VWS V14.01,2013-01-03 05:58:00,
2013-01-02 23:59:00,18.1,13.0,29.96,WNW,284,1.0,9.0,80,0.00,,,0.00,VWS V14.01,2013-01-03 05:59:00,